<?xml version="1.0" encoding="UTF-8" standalone="no" ?>
<gpx xmlns="http://www.topografix.com/GPX/1/1" xmlns:xsi="http://www.w3.org/2001/XMLSchema-instance" xsi:schemaLocation="http://www.topografix.com/GPX/1/1 http://www.topografix.com/GPX/1/1/gpx.xsd" version="1.1" creator="VisuGPX - https://www.visugpx.com">
  <metadata>
    <name>Borrels_Pierrefeu_PugetV_Cuers</name>
  </metadata>
  <trk>
    <name><![CDATA[15335053-Borrels_Pierrefeu_PugetV_Cuers]]></name>
    <extensions>
      <line xmlns="http://www.topografix.com/GPX/gpx_style/0/2">
        <color>0000FF</color>
        <width>4</width>
      </line>
    </extensions>
    <trkseg>
      <trkpt lat="43.12182" lon="5.95563">
        <ele>11</ele>
        <time>2022-08-11T14:26:15Z</time>
      </trkpt>
      <trkpt lat="43.12177" lon="5.95563">
        <ele>11</ele>
        <time>2022-08-11T14:26:16Z</time>
      </trkpt>
      <trkpt lat="43.12178" lon="5.95566">
        <ele>11</ele>
        <time>2022-08-11T14:26:16Z</time>
      </trkpt>
      <trkpt lat="43.12183" lon="5.9557">
        <ele>11</ele>
        <time>2022-08-11T14:26:17Z</time>
      </trkpt>
      <trkpt lat="43.1226" lon="5.958">
        <ele>16</ele>
        <time>2022-08-11T14:26:50Z</time>
      </trkpt>
      <trkpt lat="43.12296" lon="5.95892">
        <ele>20</ele>
        <time>2022-08-11T14:27:04Z</time>
      </trkpt>
      <trkpt lat="43.12328" lon="5.96004">
        <ele>23</ele>
        <time>2022-08-11T14:27:19Z</time>
      </trkpt>
      <trkpt lat="43.12333" lon="5.96035">
        <ele>22</ele>
        <time>2022-08-11T14:27:24Z</time>
      </trkpt>
      <trkpt lat="43.12334" lon="5.96088">
        <ele>22</ele>
        <time>2022-08-11T14:27:30Z</time>
      </trkpt>
      <trkpt lat="43.12327" lon="5.9615">
        <ele>22</ele>
        <time>2022-08-11T14:27:39Z</time>
      </trkpt>
      <trkpt lat="43.12309" lon="5.96204">
        <ele>24</ele>
        <time>2022-08-11T14:27:46Z</time>
      </trkpt>
      <trkpt lat="43.12283" lon="5.96257">
        <ele>25</ele>
        <time>2022-08-11T14:27:55Z</time>
      </trkpt>
      <trkpt lat="43.12246" lon="5.96307">
        <ele>26</ele>
        <time>2022-08-11T14:28:04Z</time>
      </trkpt>
      <trkpt lat="43.12233" lon="5.96329">
        <ele>26</ele>
        <time>2022-08-11T14:28:07Z</time>
      </trkpt>
      <trkpt lat="43.12226" lon="5.9635">
        <ele>26</ele>
        <time>2022-08-11T14:28:10Z</time>
      </trkpt>
      <trkpt lat="43.12223" lon="5.96383">
        <ele>24</ele>
        <time>2022-08-11T14:28:15Z</time>
      </trkpt>
      <trkpt lat="43.12213" lon="5.96408">
        <ele>24</ele>
        <time>2022-08-11T14:28:18Z</time>
      </trkpt>
      <trkpt lat="43.12217" lon="5.96437">
        <ele>23</ele>
        <time>2022-08-11T14:28:22Z</time>
      </trkpt>
      <trkpt lat="43.12231" lon="5.96488">
        <ele>22</ele>
        <time>2022-08-11T14:28:29Z</time>
      </trkpt>
      <trkpt lat="43.12261" lon="5.96547">
        <ele>22</ele>
        <time>2022-08-11T14:28:39Z</time>
      </trkpt>
      <trkpt lat="43.12278" lon="5.96589">
        <ele>21</ele>
        <time>2022-08-11T14:28:45Z</time>
      </trkpt>
      <trkpt lat="43.12281" lon="5.96608">
        <ele>20</ele>
        <time>2022-08-11T14:28:47Z</time>
      </trkpt>
      <trkpt lat="43.1228" lon="5.96625">
        <ele>20</ele>
        <time>2022-08-11T14:28:50Z</time>
      </trkpt>
      <trkpt lat="43.12276" lon="5.96649">
        <ele>20</ele>
        <time>2022-08-11T14:28:53Z</time>
      </trkpt>
      <trkpt lat="43.12271" lon="5.96672">
        <ele>20</ele>
        <time>2022-08-11T14:28:56Z</time>
      </trkpt>
      <trkpt lat="43.12266" lon="5.96686">
        <ele>19</ele>
        <time>2022-08-11T14:28:58Z</time>
      </trkpt>
      <trkpt lat="43.12252" lon="5.9671">
        <ele>18</ele>
        <time>2022-08-11T14:29:02Z</time>
      </trkpt>
      <trkpt lat="43.12242" lon="5.9672">
        <ele>18</ele>
        <time>2022-08-11T14:29:04Z</time>
      </trkpt>
      <trkpt lat="43.1222" lon="5.96737">
        <ele>17</ele>
        <time>2022-08-11T14:29:09Z</time>
      </trkpt>
      <trkpt lat="43.12151" lon="5.96748">
        <ele>17</ele>
        <time>2022-08-11T14:29:21Z</time>
      </trkpt>
      <trkpt lat="43.1214" lon="5.96753">
        <ele>17</ele>
        <time>2022-08-11T14:29:23Z</time>
      </trkpt>
      <trkpt lat="43.12114" lon="5.96774">
        <ele>17</ele>
        <time>2022-08-11T14:29:29Z</time>
      </trkpt>
      <trkpt lat="43.1209" lon="5.968">
        <ele>17</ele>
        <time>2022-08-11T14:29:34Z</time>
      </trkpt>
      <trkpt lat="43.12055" lon="5.96831">
        <ele>17</ele>
        <time>2022-08-11T14:29:41Z</time>
      </trkpt>
      <trkpt lat="43.11897" lon="5.96979">
        <ele>19</ele>
        <time>2022-08-11T14:30:15Z</time>
      </trkpt>
      <trkpt lat="43.11812" lon="5.97061">
        <ele>20</ele>
        <time>2022-08-11T14:30:34Z</time>
      </trkpt>
      <trkpt lat="43.11792" lon="5.97084">
        <ele>20</ele>
        <time>2022-08-11T14:30:39Z</time>
      </trkpt>
      <trkpt lat="43.11765" lon="5.97131">
        <ele>20</ele>
        <time>2022-08-11T14:30:46Z</time>
      </trkpt>
      <trkpt lat="43.11749" lon="5.97165">
        <ele>20</ele>
        <time>2022-08-11T14:30:52Z</time>
      </trkpt>
      <trkpt lat="43.11722" lon="5.97232">
        <ele>21</ele>
        <time>2022-08-11T14:31:02Z</time>
      </trkpt>
      <trkpt lat="43.11681" lon="5.97335">
        <ele>22</ele>
        <time>2022-08-11T14:31:17Z</time>
      </trkpt>
      <trkpt lat="43.11676" lon="5.97356">
        <ele>22</ele>
        <time>2022-08-11T14:31:20Z</time>
      </trkpt>
      <trkpt lat="43.11674" lon="5.97376">
        <ele>23</ele>
        <time>2022-08-11T14:31:22Z</time>
      </trkpt>
      <trkpt lat="43.11674" lon="5.97465">
        <ele>23</ele>
        <time>2022-08-11T14:31:34Z</time>
      </trkpt>
      <trkpt lat="43.1167" lon="5.97496">
        <ele>23</ele>
        <time>2022-08-11T14:31:38Z</time>
      </trkpt>
      <trkpt lat="43.11666" lon="5.97512">
        <ele>23</ele>
        <time>2022-08-11T14:31:40Z</time>
      </trkpt>
      <trkpt lat="43.11625" lon="5.97594">
        <ele>23</ele>
        <time>2022-08-11T14:31:53Z</time>
      </trkpt>
      <trkpt lat="43.11613" lon="5.97629">
        <ele>22</ele>
        <time>2022-08-11T14:31:58Z</time>
      </trkpt>
      <trkpt lat="43.11603" lon="5.97673">
        <ele>22</ele>
        <time>2022-08-11T14:32:04Z</time>
      </trkpt>
      <trkpt lat="43.11575" lon="5.97882">
        <ele>21</ele>
        <time>2022-08-11T14:32:32Z</time>
      </trkpt>
      <trkpt lat="43.11549" lon="5.97993">
        <ele>22</ele>
        <time>2022-08-11T14:32:47Z</time>
      </trkpt>
      <trkpt lat="43.11544" lon="5.98022">
        <ele>22</ele>
        <time>2022-08-11T14:32:51Z</time>
      </trkpt>
      <trkpt lat="43.11539" lon="5.98067">
        <ele>23</ele>
        <time>2022-08-11T14:32:57Z</time>
      </trkpt>
      <trkpt lat="43.1154" lon="5.98084">
        <ele>23</ele>
        <time>2022-08-11T14:32:59Z</time>
      </trkpt>
      <trkpt lat="43.11542" lon="5.98108">
        <ele>23</ele>
        <time>2022-08-11T14:33:02Z</time>
      </trkpt>
      <trkpt lat="43.11552" lon="5.98162">
        <ele>23</ele>
        <time>2022-08-11T14:33:09Z</time>
      </trkpt>
      <trkpt lat="43.11553" lon="5.98183">
        <ele>23</ele>
        <time>2022-08-11T14:33:12Z</time>
      </trkpt>
      <trkpt lat="43.11552" lon="5.98199">
        <ele>23</ele>
        <time>2022-08-11T14:33:14Z</time>
      </trkpt>
      <trkpt lat="43.11529" lon="5.9831">
        <ele>23</ele>
        <time>2022-08-11T14:33:29Z</time>
      </trkpt>
      <trkpt lat="43.11517" lon="5.98344">
        <ele>23</ele>
        <time>2022-08-11T14:33:34Z</time>
      </trkpt>
      <trkpt lat="43.11502" lon="5.98371">
        <ele>23</ele>
        <time>2022-08-11T14:33:38Z</time>
      </trkpt>
      <trkpt lat="43.11465" lon="5.98415">
        <ele>25</ele>
        <time>2022-08-11T14:33:47Z</time>
      </trkpt>
      <trkpt lat="43.1142" lon="5.98474">
        <ele>25</ele>
        <time>2022-08-11T14:33:58Z</time>
      </trkpt>
      <trkpt lat="43.1132" lon="5.98616">
        <ele>26</ele>
        <time>2022-08-11T14:34:24Z</time>
      </trkpt>
      <trkpt lat="43.1129" lon="5.98664">
        <ele>26</ele>
        <time>2022-08-11T14:34:32Z</time>
      </trkpt>
      <trkpt lat="43.11275" lon="5.98703">
        <ele>25</ele>
        <time>2022-08-11T14:34:38Z</time>
      </trkpt>
      <trkpt lat="43.11261" lon="5.9875">
        <ele>26</ele>
        <time>2022-08-11T14:34:44Z</time>
      </trkpt>
      <trkpt lat="43.11214" lon="5.98903">
        <ele>24</ele>
        <time>2022-08-11T14:35:06Z</time>
      </trkpt>
      <trkpt lat="43.11186" lon="5.98998">
        <ele>24</ele>
        <time>2022-08-11T14:35:19Z</time>
      </trkpt>
      <trkpt lat="43.11178" lon="5.9904">
        <ele>24</ele>
        <time>2022-08-11T14:35:25Z</time>
      </trkpt>
      <trkpt lat="43.11176" lon="5.99084">
        <ele>25</ele>
        <time>2022-08-11T14:35:30Z</time>
      </trkpt>
      <trkpt lat="43.11172" lon="5.99265">
        <ele>24</ele>
        <time>2022-08-11T14:35:54Z</time>
      </trkpt>
      <trkpt lat="43.11171" lon="5.99287">
        <ele>24</ele>
        <time>2022-08-11T14:35:57Z</time>
      </trkpt>
      <trkpt lat="43.11161" lon="5.99362">
        <ele>25</ele>
        <time>2022-08-11T14:36:07Z</time>
      </trkpt>
      <trkpt lat="43.11155" lon="5.99392">
        <ele>25</ele>
        <time>2022-08-11T14:36:11Z</time>
      </trkpt>
      <trkpt lat="43.11138" lon="5.99461">
        <ele>26</ele>
        <time>2022-08-11T14:36:20Z</time>
      </trkpt>
      <trkpt lat="43.1109" lon="5.99588">
        <ele>31</ele>
        <time>2022-08-11T14:36:39Z</time>
      </trkpt>
      <trkpt lat="43.11072" lon="5.99632">
        <ele>32</ele>
        <time>2022-08-11T14:36:45Z</time>
      </trkpt>
      <trkpt lat="43.10964" lon="5.99925">
        <ele>30</ele>
        <time>2022-08-11T14:37:28Z</time>
      </trkpt>
      <trkpt lat="43.10962" lon="5.9994">
        <ele>30</ele>
        <time>2022-08-11T14:37:30Z</time>
      </trkpt>
      <trkpt lat="43.10954" lon="5.99949">
        <ele>30</ele>
        <time>2022-08-11T14:37:32Z</time>
      </trkpt>
      <trkpt lat="43.10949" lon="5.99962">
        <ele>30</ele>
        <time>2022-08-11T14:37:34Z</time>
      </trkpt>
      <trkpt lat="43.10942" lon="6.00001">
        <ele>29</ele>
        <time>2022-08-11T14:37:39Z</time>
      </trkpt>
      <trkpt lat="43.1094" lon="6.00165">
        <ele>26</ele>
        <time>2022-08-11T14:38:00Z</time>
      </trkpt>
      <trkpt lat="43.10934" lon="6.00209">
        <ele>25</ele>
        <time>2022-08-11T14:38:06Z</time>
      </trkpt>
      <trkpt lat="43.10901" lon="6.00358">
        <ele>26</ele>
        <time>2022-08-11T14:38:26Z</time>
      </trkpt>
      <trkpt lat="43.10896" lon="6.00388">
        <ele>27</ele>
        <time>2022-08-11T14:38:30Z</time>
      </trkpt>
      <trkpt lat="43.10864" lon="6.00651">
        <ele>25</ele>
        <time>2022-08-11T14:39:05Z</time>
      </trkpt>
      <trkpt lat="43.10858" lon="6.00826">
        <ele>28</ele>
        <time>2022-08-11T14:39:28Z</time>
      </trkpt>
      <trkpt lat="43.10859" lon="6.01135">
        <ele>27</ele>
        <time>2022-08-11T14:40:08Z</time>
      </trkpt>
      <trkpt lat="43.10863" lon="6.01177">
        <ele>26</ele>
        <time>2022-08-11T14:40:13Z</time>
      </trkpt>
      <trkpt lat="43.10875" lon="6.01233">
        <ele>27</ele>
        <time>2022-08-11T14:40:21Z</time>
      </trkpt>
      <trkpt lat="43.10886" lon="6.01262">
        <ele>27</ele>
        <time>2022-08-11T14:40:25Z</time>
      </trkpt>
      <trkpt lat="43.10902" lon="6.01296">
        <ele>27</ele>
        <time>2022-08-11T14:40:30Z</time>
      </trkpt>
      <trkpt lat="43.11043" lon="6.01567">
        <ele>25</ele>
        <time>2022-08-11T14:41:14Z</time>
      </trkpt>
      <trkpt lat="43.11058" lon="6.01608">
        <ele>24</ele>
        <time>2022-08-11T14:41:20Z</time>
      </trkpt>
      <trkpt lat="43.11062" lon="6.01632">
        <ele>24</ele>
        <time>2022-08-11T14:41:23Z</time>
      </trkpt>
      <trkpt lat="43.11063" lon="6.0167">
        <ele>25</ele>
        <time>2022-08-11T14:41:28Z</time>
      </trkpt>
      <trkpt lat="43.11068" lon="6.0168">
        <ele>25</ele>
        <time>2022-08-11T14:41:29Z</time>
      </trkpt>
      <trkpt lat="43.11068" lon="6.01714">
        <ele>25</ele>
        <time>2022-08-11T14:41:34Z</time>
      </trkpt>
      <trkpt lat="43.11013" lon="6.02164">
        <ele>24</ele>
        <time>2022-08-11T14:42:33Z</time>
      </trkpt>
      <trkpt lat="43.10991" lon="6.02257">
        <ele>26</ele>
        <time>2022-08-11T14:42:46Z</time>
      </trkpt>
      <trkpt lat="43.10966" lon="6.02326">
        <ele>27</ele>
        <time>2022-08-11T14:42:56Z</time>
      </trkpt>
      <trkpt lat="43.10949" lon="6.02358">
        <ele>27</ele>
        <time>2022-08-11T14:43:01Z</time>
      </trkpt>
      <trkpt lat="43.10897" lon="6.02423">
        <ele>27</ele>
        <time>2022-08-11T14:43:13Z</time>
      </trkpt>
      <trkpt lat="43.10888" lon="6.02431">
        <ele>28</ele>
        <time>2022-08-11T14:43:15Z</time>
      </trkpt>
      <trkpt lat="43.10853" lon="6.02448">
        <ele>28</ele>
        <time>2022-08-11T14:43:22Z</time>
      </trkpt>
      <trkpt lat="43.10738" lon="6.02474">
        <ele>32</ele>
        <time>2022-08-11T14:43:43Z</time>
      </trkpt>
      <trkpt lat="43.10732" lon="6.02468">
        <ele>32</ele>
        <time>2022-08-11T14:43:44Z</time>
      </trkpt>
      <trkpt lat="43.10714" lon="6.0247">
        <ele>32</ele>
        <time>2022-08-11T14:43:47Z</time>
      </trkpt>
      <trkpt lat="43.10704" lon="6.02491">
        <ele>32</ele>
        <time>2022-08-11T14:43:50Z</time>
      </trkpt>
      <trkpt lat="43.10688" lon="6.02503">
        <ele>33</ele>
        <time>2022-08-11T14:43:54Z</time>
      </trkpt>
      <trkpt lat="43.10677" lon="6.025">
        <ele>33</ele>
        <time>2022-08-11T14:43:56Z</time>
      </trkpt>
      <trkpt lat="43.10669" lon="6.02515">
        <ele>33</ele>
        <time>2022-08-11T14:43:58Z</time>
      </trkpt>
      <trkpt lat="43.10676" lon="6.02564">
        <ele>34</ele>
        <time>2022-08-11T14:44:05Z</time>
      </trkpt>
      <trkpt lat="43.10675" lon="6.02593">
        <ele>34</ele>
        <time>2022-08-11T14:44:08Z</time>
      </trkpt>
      <trkpt lat="43.10677" lon="6.0262">
        <ele>34</ele>
        <time>2022-08-11T14:44:12Z</time>
      </trkpt>
      <trkpt lat="43.10727" lon="6.02874">
        <ele>33</ele>
        <time>2022-08-11T14:44:46Z</time>
      </trkpt>
      <trkpt lat="43.10735" lon="6.02906">
        <ele>32</ele>
        <time>2022-08-11T14:44:50Z</time>
      </trkpt>
      <trkpt lat="43.10747" lon="6.02921">
        <ele>32</ele>
        <time>2022-08-11T14:44:53Z</time>
      </trkpt>
      <trkpt lat="43.10752" lon="6.0294">
        <ele>32</ele>
        <time>2022-08-11T14:44:56Z</time>
      </trkpt>
      <trkpt lat="43.1076" lon="6.02988">
        <ele>33</ele>
        <time>2022-08-11T14:45:02Z</time>
      </trkpt>
      <trkpt lat="43.1077" lon="6.03064">
        <ele>32</ele>
        <time>2022-08-11T14:45:12Z</time>
      </trkpt>
      <trkpt lat="43.1076" lon="6.0308">
        <ele>33</ele>
        <time>2022-08-11T14:45:15Z</time>
      </trkpt>
      <trkpt lat="43.10756" lon="6.0309">
        <ele>33</ele>
        <time>2022-08-11T14:45:17Z</time>
      </trkpt>
      <trkpt lat="43.10756" lon="6.03103">
        <ele>33</ele>
        <time>2022-08-11T14:45:18Z</time>
      </trkpt>
      <trkpt lat="43.1076" lon="6.03121">
        <ele>33</ele>
        <time>2022-08-11T14:45:21Z</time>
      </trkpt>
      <trkpt lat="43.10782" lon="6.03144">
        <ele>32</ele>
        <time>2022-08-11T14:45:26Z</time>
      </trkpt>
      <trkpt lat="43.10785" lon="6.03151">
        <ele>32</ele>
        <time>2022-08-11T14:45:27Z</time>
      </trkpt>
      <trkpt lat="43.10813" lon="6.03329">
        <ele>33</ele>
        <time>2022-08-11T14:45:50Z</time>
      </trkpt>
      <trkpt lat="43.10813" lon="6.03345">
        <ele>34</ele>
        <time>2022-08-11T14:45:52Z</time>
      </trkpt>
      <trkpt lat="43.10807" lon="6.03356">
        <ele>34</ele>
        <time>2022-08-11T14:45:54Z</time>
      </trkpt>
      <trkpt lat="43.10808" lon="6.03367">
        <ele>34</ele>
        <time>2022-08-11T14:45:56Z</time>
      </trkpt>
      <trkpt lat="43.10811" lon="6.03376">
        <ele>34</ele>
        <time>2022-08-11T14:45:57Z</time>
      </trkpt>
      <trkpt lat="43.1082" lon="6.03383">
        <ele>34</ele>
        <time>2022-08-11T14:45:59Z</time>
      </trkpt>
      <trkpt lat="43.1083" lon="6.03415">
        <ele>33</ele>
        <time>2022-08-11T14:46:03Z</time>
      </trkpt>
      <trkpt lat="43.10855" lon="6.03475">
        <ele>33</ele>
        <time>2022-08-11T14:46:12Z</time>
      </trkpt>
      <trkpt lat="43.10862" lon="6.03493">
        <ele>33</ele>
        <time>2022-08-11T14:46:15Z</time>
      </trkpt>
      <trkpt lat="43.10864" lon="6.03505">
        <ele>33</ele>
        <time>2022-08-11T14:46:17Z</time>
      </trkpt>
      <trkpt lat="43.10864" lon="6.0352">
        <ele>33</ele>
        <time>2022-08-11T14:46:18Z</time>
      </trkpt>
      <trkpt lat="43.10865" lon="6.03524">
        <ele>33</ele>
        <time>2022-08-11T14:46:19Z</time>
      </trkpt>
      <trkpt lat="43.10872" lon="6.03533">
        <ele>32</ele>
        <time>2022-08-11T14:46:21Z</time>
      </trkpt>
      <trkpt lat="43.10906" lon="6.03726">
        <ele>33</ele>
        <time>2022-08-11T14:46:47Z</time>
      </trkpt>
      <trkpt lat="43.10908" lon="6.03749">
        <ele>34</ele>
        <time>2022-08-11T14:46:50Z</time>
      </trkpt>
      <trkpt lat="43.10904" lon="6.0381">
        <ele>34</ele>
        <time>2022-08-11T14:46:57Z</time>
      </trkpt>
      <trkpt lat="43.10891" lon="6.03857">
        <ele>36</ele>
        <time>2022-08-11T14:47:04Z</time>
      </trkpt>
      <trkpt lat="43.10874" lon="6.03885">
        <ele>38</ele>
        <time>2022-08-11T14:47:09Z</time>
      </trkpt>
      <trkpt lat="43.10874" lon="6.03892">
        <ele>38</ele>
        <time>2022-08-11T14:47:10Z</time>
      </trkpt>
      <trkpt lat="43.10895" lon="6.03941">
        <ele>36</ele>
        <time>2022-08-11T14:47:17Z</time>
      </trkpt>
      <trkpt lat="43.10898" lon="6.03959">
        <ele>36</ele>
        <time>2022-08-11T14:47:19Z</time>
      </trkpt>
      <trkpt lat="43.10896" lon="6.03993">
        <ele>36</ele>
        <time>2022-08-11T14:47:24Z</time>
      </trkpt>
      <trkpt lat="43.10892" lon="6.04029">
        <ele>37</ele>
        <time>2022-08-11T14:47:29Z</time>
      </trkpt>
      <trkpt lat="43.10876" lon="6.0412">
        <ele>39</ele>
        <time>2022-08-11T14:47:41Z</time>
      </trkpt>
      <trkpt lat="43.10875" lon="6.0414">
        <ele>39</ele>
        <time>2022-08-11T14:47:43Z</time>
      </trkpt>
      <trkpt lat="43.10875" lon="6.04173">
        <ele>38</ele>
        <time>2022-08-11T14:47:48Z</time>
      </trkpt>
      <trkpt lat="43.10881" lon="6.04235">
        <ele>36</ele>
        <time>2022-08-11T14:47:56Z</time>
      </trkpt>
      <trkpt lat="43.109" lon="6.04309">
        <ele>35</ele>
        <time>2022-08-11T14:48:06Z</time>
      </trkpt>
      <trkpt lat="43.10909" lon="6.04327">
        <ele>34</ele>
        <time>2022-08-11T14:48:09Z</time>
      </trkpt>
      <trkpt lat="43.10913" lon="6.04351">
        <ele>34</ele>
        <time>2022-08-11T14:48:12Z</time>
      </trkpt>
      <trkpt lat="43.10913" lon="6.04383">
        <ele>34</ele>
        <time>2022-08-11T14:48:16Z</time>
      </trkpt>
      <trkpt lat="43.10891" lon="6.04502">
        <ele>31</ele>
        <time>2022-08-11T14:48:32Z</time>
      </trkpt>
      <trkpt lat="43.10887" lon="6.04586">
        <ele>30</ele>
        <time>2022-08-11T14:48:43Z</time>
      </trkpt>
      <trkpt lat="43.1088" lon="6.04643">
        <ele>33</ele>
        <time>2022-08-11T14:48:51Z</time>
      </trkpt>
      <trkpt lat="43.10876" lon="6.04663">
        <ele>33</ele>
        <time>2022-08-11T14:48:53Z</time>
      </trkpt>
      <trkpt lat="43.10869" lon="6.04677">
        <ele>34</ele>
        <time>2022-08-11T14:48:55Z</time>
      </trkpt>
      <trkpt lat="43.10863" lon="6.04683">
        <ele>34</ele>
        <time>2022-08-11T14:48:57Z</time>
      </trkpt>
      <trkpt lat="43.10839" lon="6.04704">
        <ele>35</ele>
        <time>2022-08-11T14:49:02Z</time>
      </trkpt>
      <trkpt lat="43.10836" lon="6.04711">
        <ele>35</ele>
        <time>2022-08-11T14:49:03Z</time>
      </trkpt>
      <trkpt lat="43.10834" lon="6.04727">
        <ele>35</ele>
        <time>2022-08-11T14:49:05Z</time>
      </trkpt>
      <trkpt lat="43.10836" lon="6.04748">
        <ele>36</ele>
        <time>2022-08-11T14:49:08Z</time>
      </trkpt>
      <trkpt lat="43.10836" lon="6.04753">
        <ele>36</ele>
        <time>2022-08-11T14:49:08Z</time>
      </trkpt>
      <trkpt lat="43.10788" lon="6.04866">
        <ele>37</ele>
        <time>2022-08-11T14:49:25Z</time>
      </trkpt>
      <trkpt lat="43.10741" lon="6.04969">
        <ele>35</ele>
        <time>2022-08-11T14:49:41Z</time>
      </trkpt>
      <trkpt lat="43.10668" lon="6.05112">
        <ele>35</ele>
        <time>2022-08-11T14:50:04Z</time>
      </trkpt>
      <trkpt lat="43.10656" lon="6.05129">
        <ele>35</ele>
        <time>2022-08-11T14:50:07Z</time>
      </trkpt>
      <trkpt lat="43.10643" lon="6.05146">
        <ele>35</ele>
        <time>2022-08-11T14:50:10Z</time>
      </trkpt>
      <trkpt lat="43.10618" lon="6.05169">
        <ele>35</ele>
        <time>2022-08-11T14:50:15Z</time>
      </trkpt>
      <trkpt lat="43.10613" lon="6.05172">
        <ele>35</ele>
        <time>2022-08-11T14:50:16Z</time>
      </trkpt>
      <trkpt lat="43.10605" lon="6.05184">
        <ele>35</ele>
        <time>2022-08-11T14:50:19Z</time>
      </trkpt>
      <trkpt lat="43.10561" lon="6.05227">
        <ele>36</ele>
        <time>2022-08-11T14:50:28Z</time>
      </trkpt>
      <trkpt lat="43.10376" lon="6.05462">
        <ele>37</ele>
        <time>2022-08-11T14:51:13Z</time>
      </trkpt>
      <trkpt lat="43.10318" lon="6.05558">
        <ele>38</ele>
        <time>2022-08-11T14:51:29Z</time>
      </trkpt>
      <trkpt lat="43.10298" lon="6.05585">
        <ele>38</ele>
        <time>2022-08-11T14:51:34Z</time>
      </trkpt>
      <trkpt lat="43.1028" lon="6.05607">
        <ele>39</ele>
        <time>2022-08-11T14:51:38Z</time>
      </trkpt>
      <trkpt lat="43.10238" lon="6.05647">
        <ele>40</ele>
        <time>2022-08-11T14:51:48Z</time>
      </trkpt>
      <trkpt lat="43.10229" lon="6.05659">
        <ele>40</ele>
        <time>2022-08-11T14:51:50Z</time>
      </trkpt>
      <trkpt lat="43.10222" lon="6.05675">
        <ele>40</ele>
        <time>2022-08-11T14:51:52Z</time>
      </trkpt>
      <trkpt lat="43.10208" lon="6.05694">
        <ele>41</ele>
        <time>2022-08-11T14:51:56Z</time>
      </trkpt>
      <trkpt lat="43.10199" lon="6.05711">
        <ele>41</ele>
        <time>2022-08-11T14:51:58Z</time>
      </trkpt>
      <trkpt lat="43.10199" lon="6.05719">
        <ele>41</ele>
        <time>2022-08-11T14:52:00Z</time>
      </trkpt>
      <trkpt lat="43.10192" lon="6.05734">
        <ele>41</ele>
        <time>2022-08-11T14:52:02Z</time>
      </trkpt>
      <trkpt lat="43.10181" lon="6.05751">
        <ele>41</ele>
        <time>2022-08-11T14:52:05Z</time>
      </trkpt>
      <trkpt lat="43.10161" lon="6.0579">
        <ele>42</ele>
        <time>2022-08-11T14:52:11Z</time>
      </trkpt>
      <trkpt lat="43.09965" lon="6.06277">
        <ele>43</ele>
        <time>2022-08-11T14:53:23Z</time>
      </trkpt>
      <trkpt lat="43.09922" lon="6.0641">
        <ele>41</ele>
        <time>2022-08-11T14:53:42Z</time>
      </trkpt>
      <trkpt lat="43.0991" lon="6.06437">
        <ele>41</ele>
        <time>2022-08-11T14:53:46Z</time>
      </trkpt>
      <trkpt lat="43.09832" lon="6.06575">
        <ele>39</ele>
        <time>2022-08-11T14:54:09Z</time>
      </trkpt>
      <trkpt lat="43.09812" lon="6.06612">
        <ele>38</ele>
        <time>2022-08-11T14:54:15Z</time>
      </trkpt>
      <trkpt lat="43.09768" lon="6.06705">
        <ele>36</ele>
        <time>2022-08-11T14:54:29Z</time>
      </trkpt>
      <trkpt lat="43.09751" lon="6.06733">
        <ele>35</ele>
        <time>2022-08-11T14:54:34Z</time>
      </trkpt>
      <trkpt lat="43.09748" lon="6.06735">
        <ele>35</ele>
        <time>2022-08-11T14:54:35Z</time>
      </trkpt>
      <trkpt lat="43.09721" lon="6.06776">
        <ele>35</ele>
        <time>2022-08-11T14:54:42Z</time>
      </trkpt>
      <trkpt lat="43.09674" lon="6.06836">
        <ele>33</ele>
        <time>2022-08-11T14:54:53Z</time>
      </trkpt>
      <trkpt lat="43.09608" lon="6.06904">
        <ele>31</ele>
        <time>2022-08-11T14:55:08Z</time>
      </trkpt>
      <trkpt lat="43.09594" lon="6.06911">
        <ele>30</ele>
        <time>2022-08-11T14:55:11Z</time>
      </trkpt>
      <trkpt lat="43.09576" lon="6.06913">
        <ele>30</ele>
        <time>2022-08-11T14:55:14Z</time>
      </trkpt>
      <trkpt lat="43.0957" lon="6.06915">
        <ele>31</ele>
        <time>2022-08-11T14:55:15Z</time>
      </trkpt>
      <trkpt lat="43.09567" lon="6.06919">
        <ele>31</ele>
        <time>2022-08-11T14:55:16Z</time>
      </trkpt>
      <trkpt lat="43.09563" lon="6.06916">
        <ele>31</ele>
        <time>2022-08-11T14:55:16Z</time>
      </trkpt>
      <trkpt lat="43.09556" lon="6.06927">
        <ele>31</ele>
        <time>2022-08-11T14:55:18Z</time>
      </trkpt>
      <trkpt lat="43.09558" lon="6.06935">
        <ele>31</ele>
        <time>2022-08-11T14:55:19Z</time>
      </trkpt>
      <trkpt lat="43.09553" lon="6.06943">
        <ele>31</ele>
        <time>2022-08-11T14:55:21Z</time>
      </trkpt>
      <trkpt lat="43.09544" lon="6.06967">
        <ele>30</ele>
        <time>2022-08-11T14:55:24Z</time>
      </trkpt>
      <trkpt lat="43.09407" lon="6.07105">
        <ele>28</ele>
        <time>2022-08-11T14:55:55Z</time>
      </trkpt>
      <trkpt lat="43.09371" lon="6.07145">
        <ele>26</ele>
        <time>2022-08-11T14:56:03Z</time>
      </trkpt>
      <trkpt lat="43.09357" lon="6.07164">
        <ele>25</ele>
        <time>2022-08-11T14:56:06Z</time>
      </trkpt>
      <trkpt lat="43.09346" lon="6.07172">
        <ele>24</ele>
        <time>2022-08-11T14:56:09Z</time>
      </trkpt>
      <trkpt lat="43.09341" lon="6.07179">
        <ele>24</ele>
        <time>2022-08-11T14:56:10Z</time>
      </trkpt>
      <trkpt lat="43.09316" lon="6.07242">
        <ele>22</ele>
        <time>2022-08-11T14:56:19Z</time>
      </trkpt>
      <trkpt lat="43.09293" lon="6.07305">
        <ele>22</ele>
        <time>2022-08-11T14:56:28Z</time>
      </trkpt>
      <trkpt lat="43.09277" lon="6.07373">
        <ele>22</ele>
        <time>2022-08-11T14:56:38Z</time>
      </trkpt>
      <trkpt lat="43.09253" lon="6.07568">
        <ele>22</ele>
        <time>2022-08-11T14:57:03Z</time>
      </trkpt>
      <trkpt lat="43.09246" lon="6.07609">
        <ele>22</ele>
        <time>2022-08-11T14:57:09Z</time>
      </trkpt>
      <trkpt lat="43.09233" lon="6.07642">
        <ele>21</ele>
        <time>2022-08-11T14:57:14Z</time>
      </trkpt>
      <trkpt lat="43.09219" lon="6.07658">
        <ele>20</ele>
        <time>2022-08-11T14:57:17Z</time>
      </trkpt>
      <trkpt lat="43.09219" lon="6.07661">
        <ele>20</ele>
        <time>2022-08-11T14:57:17Z</time>
      </trkpt>
      <trkpt lat="43.09221" lon="6.07678">
        <ele>21</ele>
        <time>2022-08-11T14:57:19Z</time>
      </trkpt>
      <trkpt lat="43.0922" lon="6.07695">
        <ele>21</ele>
        <time>2022-08-11T14:57:22Z</time>
      </trkpt>
      <trkpt lat="43.09221" lon="6.07712">
        <ele>21</ele>
        <time>2022-08-11T14:57:24Z</time>
      </trkpt>
      <trkpt lat="43.0921" lon="6.07758">
        <ele>21</ele>
        <time>2022-08-11T14:57:30Z</time>
      </trkpt>
      <trkpt lat="43.09184" lon="6.07834">
        <ele>19</ele>
        <time>2022-08-11T14:57:41Z</time>
      </trkpt>
      <trkpt lat="43.09174" lon="6.0786">
        <ele>19</ele>
        <time>2022-08-11T14:57:45Z</time>
      </trkpt>
      <trkpt lat="43.09129" lon="6.08006">
        <ele>19</ele>
        <time>2022-08-11T14:58:05Z</time>
      </trkpt>
      <trkpt lat="43.09126" lon="6.08012">
        <ele>19</ele>
        <time>2022-08-11T14:58:06Z</time>
      </trkpt>
      <trkpt lat="43.09115" lon="6.08023">
        <ele>19</ele>
        <time>2022-08-11T14:58:09Z</time>
      </trkpt>
      <trkpt lat="43.09113" lon="6.08029">
        <ele>19</ele>
        <time>2022-08-11T14:58:10Z</time>
      </trkpt>
      <trkpt lat="43.09114" lon="6.08061">
        <ele>19</ele>
        <time>2022-08-11T14:58:14Z</time>
      </trkpt>
      <trkpt lat="43.09033" lon="6.0832">
        <ele>18</ele>
        <time>2022-08-11T14:58:50Z</time>
      </trkpt>
      <trkpt lat="43.09008" lon="6.08404">
        <ele>17</ele>
        <time>2022-08-11T14:59:02Z</time>
      </trkpt>
      <trkpt lat="43.09001" lon="6.08418">
        <ele>17</ele>
        <time>2022-08-11T14:59:04Z</time>
      </trkpt>
      <trkpt lat="43.09" lon="6.08424">
        <ele>17</ele>
        <time>2022-08-11T14:59:05Z</time>
      </trkpt>
      <trkpt lat="43.09002" lon="6.08458">
        <ele>18</ele>
        <time>2022-08-11T14:59:10Z</time>
      </trkpt>
      <trkpt lat="43.09006" lon="6.0847">
        <ele>18</ele>
        <time>2022-08-11T14:59:11Z</time>
      </trkpt>
      <trkpt lat="43.09009" lon="6.08549">
        <ele>17</ele>
        <time>2022-08-11T14:59:22Z</time>
      </trkpt>
      <trkpt lat="43.09006" lon="6.08576">
        <ele>17</ele>
        <time>2022-08-11T14:59:25Z</time>
      </trkpt>
      <trkpt lat="43.08996" lon="6.08643">
        <ele>17</ele>
        <time>2022-08-11T14:59:34Z</time>
      </trkpt>
      <trkpt lat="43.08931" lon="6.08883">
        <ele>20</ele>
        <time>2022-08-11T15:00:07Z</time>
      </trkpt>
      <trkpt lat="43.08855" lon="6.09119">
        <ele>24</ele>
        <time>2022-08-11T15:00:41Z</time>
      </trkpt>
      <trkpt lat="43.08831" lon="6.09178">
        <ele>24</ele>
        <time>2022-08-11T15:00:50Z</time>
      </trkpt>
      <trkpt lat="43.08814" lon="6.09213">
        <ele>25</ele>
        <time>2022-08-11T15:00:55Z</time>
      </trkpt>
      <trkpt lat="43.08684" lon="6.0942">
        <ele>23</ele>
        <time>2022-08-11T15:01:31Z</time>
      </trkpt>
      <trkpt lat="43.08654" lon="6.0947">
        <ele>21</ele>
        <time>2022-08-11T15:01:39Z</time>
      </trkpt>
      <trkpt lat="43.08639" lon="6.095">
        <ele>21</ele>
        <time>2022-08-11T15:01:44Z</time>
      </trkpt>
      <trkpt lat="43.08623" lon="6.09537">
        <ele>21</ele>
        <time>2022-08-11T15:01:49Z</time>
      </trkpt>
      <trkpt lat="43.08579" lon="6.09666">
        <ele>19</ele>
        <time>2022-08-11T15:02:08Z</time>
      </trkpt>
      <trkpt lat="43.08558" lon="6.09721">
        <ele>19</ele>
        <time>2022-08-11T15:02:16Z</time>
      </trkpt>
      <trkpt lat="43.08547" lon="6.0976">
        <ele>20</ele>
        <time>2022-08-11T15:02:21Z</time>
      </trkpt>
      <trkpt lat="43.0854" lon="6.09795">
        <ele>20</ele>
        <time>2022-08-11T15:02:26Z</time>
      </trkpt>
      <trkpt lat="43.08534" lon="6.09832">
        <ele>21</ele>
        <time>2022-08-11T15:02:31Z</time>
      </trkpt>
      <trkpt lat="43.0852" lon="6.10006">
        <ele>22</ele>
        <time>2022-08-11T15:02:54Z</time>
      </trkpt>
      <trkpt lat="43.08523" lon="6.10105">
        <ele>24</ele>
        <time>2022-08-11T15:03:07Z</time>
      </trkpt>
      <trkpt lat="43.08522" lon="6.10133">
        <ele>25</ele>
        <time>2022-08-11T15:03:10Z</time>
      </trkpt>
      <trkpt lat="43.08502" lon="6.10257">
        <ele>26</ele>
        <time>2022-08-11T15:03:27Z</time>
      </trkpt>
      <trkpt lat="43.08501" lon="6.10352">
        <ele>26</ele>
        <time>2022-08-11T15:03:39Z</time>
      </trkpt>
      <trkpt lat="43.08479" lon="6.10537">
        <ele>28</ele>
        <time>2022-08-11T15:04:03Z</time>
      </trkpt>
      <trkpt lat="43.08475" lon="6.10586">
        <ele>29</ele>
        <time>2022-08-11T15:04:10Z</time>
      </trkpt>
      <trkpt lat="43.08478" lon="6.10634">
        <ele>30</ele>
        <time>2022-08-11T15:04:16Z</time>
      </trkpt>
      <trkpt lat="43.08495" lon="6.10737">
        <ele>33</ele>
        <time>2022-08-11T15:04:30Z</time>
      </trkpt>
      <trkpt lat="43.08497" lon="6.10764">
        <ele>34</ele>
        <time>2022-08-11T15:04:33Z</time>
      </trkpt>
      <trkpt lat="43.08496" lon="6.10814">
        <ele>35</ele>
        <time>2022-08-11T15:04:40Z</time>
      </trkpt>
      <trkpt lat="43.08491" lon="6.10845">
        <ele>34</ele>
        <time>2022-08-11T15:04:44Z</time>
      </trkpt>
      <trkpt lat="43.08484" lon="6.1086">
        <ele>31</ele>
        <time>2022-08-11T15:04:46Z</time>
      </trkpt>
      <trkpt lat="43.08479" lon="6.10898">
        <ele>29</ele>
        <time>2022-08-11T15:04:51Z</time>
      </trkpt>
      <trkpt lat="43.08476" lon="6.10906">
        <ele>28</ele>
        <time>2022-08-11T15:04:53Z</time>
      </trkpt>
      <trkpt lat="43.08474" lon="6.10925">
        <ele>28</ele>
        <time>2022-08-11T15:04:55Z</time>
      </trkpt>
      <trkpt lat="43.08475" lon="6.1095">
        <ele>29</ele>
        <time>2022-08-11T15:04:58Z</time>
      </trkpt>
      <trkpt lat="43.08471" lon="6.10987">
        <ele>29</ele>
        <time>2022-08-11T15:05:03Z</time>
      </trkpt>
      <trkpt lat="43.08451" lon="6.11101">
        <ele>25</ele>
        <time>2022-08-11T15:05:18Z</time>
      </trkpt>
      <trkpt lat="43.08448" lon="6.11143">
        <ele>23</ele>
        <time>2022-08-11T15:05:24Z</time>
      </trkpt>
      <trkpt lat="43.08441" lon="6.11177">
        <ele>22</ele>
        <time>2022-08-11T15:05:28Z</time>
      </trkpt>
      <trkpt lat="43.08417" lon="6.11238">
        <ele>23</ele>
        <time>2022-08-11T15:05:37Z</time>
      </trkpt>
      <trkpt lat="43.08408" lon="6.11292">
        <ele>24</ele>
        <time>2022-08-11T15:05:45Z</time>
      </trkpt>
      <trkpt lat="43.0839" lon="6.11433">
        <ele>22</ele>
        <time>2022-08-11T15:06:03Z</time>
      </trkpt>
      <trkpt lat="43.08379" lon="6.11476">
        <ele>20</ele>
        <time>2022-08-11T15:06:09Z</time>
      </trkpt>
      <trkpt lat="43.08355" lon="6.11551">
        <ele>15</ele>
        <time>2022-08-11T15:06:20Z</time>
      </trkpt>
      <trkpt lat="43.08341" lon="6.1159">
        <ele>13</ele>
        <time>2022-08-11T15:06:25Z</time>
      </trkpt>
      <trkpt lat="43.08311" lon="6.11665">
        <ele>11</ele>
        <time>2022-08-11T15:06:37Z</time>
      </trkpt>
      <trkpt lat="43.08245" lon="6.11802">
        <ele>10</ele>
        <time>2022-08-11T15:06:58Z</time>
      </trkpt>
      <trkpt lat="43.08235" lon="6.11819">
        <ele>11</ele>
        <time>2022-08-11T15:07:01Z</time>
      </trkpt>
      <trkpt lat="43.08226" lon="6.11829">
        <ele>10</ele>
        <time>2022-08-11T15:07:03Z</time>
      </trkpt>
      <trkpt lat="43.08215" lon="6.11843">
        <ele>10</ele>
        <time>2022-08-11T15:07:05Z</time>
      </trkpt>
      <trkpt lat="43.08208" lon="6.11847">
        <ele>10</ele>
        <time>2022-08-11T15:07:07Z</time>
      </trkpt>
      <trkpt lat="43.08208" lon="6.11853">
        <ele>10</ele>
        <time>2022-08-11T15:07:08Z</time>
      </trkpt>
      <trkpt lat="43.08163" lon="6.11878">
        <ele>7</ele>
        <time>2022-08-11T15:07:16Z</time>
      </trkpt>
      <trkpt lat="43.08136" lon="6.11897">
        <ele>7</ele>
        <time>2022-08-11T15:07:22Z</time>
      </trkpt>
      <trkpt lat="43.08127" lon="6.11908">
        <ele>7</ele>
        <time>2022-08-11T15:07:24Z</time>
      </trkpt>
      <trkpt lat="43.08105" lon="6.11949">
        <ele>6</ele>
        <time>2022-08-11T15:07:30Z</time>
      </trkpt>
      <trkpt lat="43.08097" lon="6.1197">
        <ele>6</ele>
        <time>2022-08-11T15:07:33Z</time>
      </trkpt>
      <trkpt lat="43.08092" lon="6.11987">
        <ele>6</ele>
        <time>2022-08-11T15:07:36Z</time>
      </trkpt>
      <trkpt lat="43.08086" lon="6.12021">
        <ele>6</ele>
        <time>2022-08-11T15:07:40Z</time>
      </trkpt>
      <trkpt lat="43.08071" lon="6.12138">
        <ele>6</ele>
        <time>2022-08-11T15:07:56Z</time>
      </trkpt>
      <trkpt lat="43.08059" lon="6.12186">
        <ele>5</ele>
        <time>2022-08-11T15:08:02Z</time>
      </trkpt>
      <trkpt lat="43.07999" lon="6.12364">
        <ele>3</ele>
        <time>2022-08-11T15:08:28Z</time>
      </trkpt>
      <trkpt lat="43.0799" lon="6.12408">
        <ele>2</ele>
        <time>2022-08-11T15:08:34Z</time>
      </trkpt>
      <trkpt lat="43.07988" lon="6.12453">
        <ele>2</ele>
        <time>2022-08-11T15:08:40Z</time>
      </trkpt>
      <trkpt lat="43.0799" lon="6.12481">
        <ele>2</ele>
        <time>2022-08-11T15:08:43Z</time>
      </trkpt>
      <trkpt lat="43.08005" lon="6.12587">
        <ele>1</ele>
        <time>2022-08-11T15:08:57Z</time>
      </trkpt>
      <trkpt lat="43.08002" lon="6.12637">
        <ele>1</ele>
        <time>2022-08-11T15:09:04Z</time>
      </trkpt>
      <trkpt lat="43.0799" lon="6.12632">
        <ele>1</ele>
        <time>2022-08-11T15:09:06Z</time>
      </trkpt>
      <trkpt lat="43.07994" lon="6.12625">
        <ele>1</ele>
        <time>2022-08-11T15:09:07Z</time>
      </trkpt>
      <trkpt lat="43.08" lon="6.1261">
        <ele>1</ele>
        <time>2022-08-11T15:09:10Z</time>
      </trkpt>
      <trkpt lat="43.07999" lon="6.12603">
        <ele>1</ele>
        <time>2022-08-11T15:09:10Z</time>
      </trkpt>
      <trkpt lat="43.08" lon="6.1261">
        <ele>1</ele>
        <time>2022-08-11T15:09:11Z</time>
      </trkpt>
      <trkpt lat="43.07994" lon="6.12625">
        <ele>1</ele>
        <time>2022-08-11T15:09:14Z</time>
      </trkpt>
      <trkpt lat="43.0799" lon="6.12632">
        <ele>1</ele>
        <time>2022-08-11T15:09:15Z</time>
      </trkpt>
      <trkpt lat="43.08002" lon="6.12637">
        <ele>1</ele>
        <time>2022-08-11T15:09:17Z</time>
      </trkpt>
      <trkpt lat="43.07998" lon="6.12649">
        <ele>1</ele>
        <time>2022-08-11T15:09:19Z</time>
      </trkpt>
      <trkpt lat="43.07987" lon="6.12657">
        <ele>1</ele>
        <time>2022-08-11T15:09:21Z</time>
      </trkpt>
      <trkpt lat="43.07983" lon="6.12665">
        <ele>1</ele>
        <time>2022-08-11T15:09:22Z</time>
      </trkpt>
      <trkpt lat="43.0798" lon="6.12675">
        <ele>1</ele>
        <time>2022-08-11T15:09:24Z</time>
      </trkpt>
      <trkpt lat="43.0798" lon="6.12685">
        <ele>1</ele>
        <time>2022-08-11T15:09:25Z</time>
      </trkpt>
      <trkpt lat="43.07981" lon="6.12694">
        <ele>1</ele>
        <time>2022-08-11T15:09:26Z</time>
      </trkpt>
      <trkpt lat="43.07988" lon="6.12708">
        <ele>1</ele>
        <time>2022-08-11T15:09:28Z</time>
      </trkpt>
      <trkpt lat="43.07998" lon="6.12715">
        <ele>1</ele>
        <time>2022-08-11T15:09:30Z</time>
      </trkpt>
      <trkpt lat="43.08009" lon="6.12716">
        <ele>1</ele>
        <time>2022-08-11T15:09:32Z</time>
      </trkpt>
      <trkpt lat="43.08014" lon="6.12714">
        <ele>1</ele>
        <time>2022-08-11T15:09:33Z</time>
      </trkpt>
      <trkpt lat="43.08017" lon="6.12725">
        <ele>1</ele>
        <time>2022-08-11T15:09:35Z</time>
      </trkpt>
      <trkpt lat="43.08015" lon="6.1274">
        <ele>1</ele>
        <time>2022-08-11T15:09:37Z</time>
      </trkpt>
      <trkpt lat="43.08008" lon="6.12774">
        <ele>1</ele>
        <time>2022-08-11T15:09:41Z</time>
      </trkpt>
      <trkpt lat="43.08009" lon="6.12795">
        <ele>1</ele>
        <time>2022-08-11T15:09:44Z</time>
      </trkpt>
      <trkpt lat="43.08115" lon="6.13567">
        <ele>2</ele>
        <time>2022-08-11T15:11:26Z</time>
      </trkpt>
      <trkpt lat="43.08123" lon="6.1365">
        <ele>5</ele>
        <time>2022-08-11T15:11:37Z</time>
      </trkpt>
      <trkpt lat="43.08158" lon="6.13925">
        <ele>6</ele>
        <time>2022-08-11T15:12:13Z</time>
      </trkpt>
      <trkpt lat="43.08199" lon="6.14197">
        <ele>1</ele>
        <time>2022-08-11T15:12:49Z</time>
      </trkpt>
      <trkpt lat="43.08215" lon="6.14312">
        <ele>1</ele>
        <time>2022-08-11T15:13:05Z</time>
      </trkpt>
      <trkpt lat="43.08217" lon="6.14365">
        <ele>1</ele>
        <time>2022-08-11T15:13:11Z</time>
      </trkpt>
      <trkpt lat="43.08216" lon="6.14402">
        <ele>1.8</ele>
        <time>2022-08-11T15:13:16Z</time>
      </trkpt>
      <trkpt lat="43.08127" lon="6.14834">
        <ele>2</ele>
        <time>2022-08-11T15:14:15Z</time>
      </trkpt>
      <trkpt lat="43.08116" lon="6.14861">
        <ele>2</ele>
        <time>2022-08-11T15:14:19Z</time>
      </trkpt>
      <trkpt lat="43.081" lon="6.14883">
        <ele>1</ele>
        <time>2022-08-11T15:14:23Z</time>
      </trkpt>
      <trkpt lat="43.08066" lon="6.14913">
        <ele>1</ele>
        <time>2022-08-11T15:14:30Z</time>
      </trkpt>
      <trkpt lat="43.0806" lon="6.14925">
        <ele>2</ele>
        <time>2022-08-11T15:14:32Z</time>
      </trkpt>
      <trkpt lat="43.08059" lon="6.14938">
        <ele>2</ele>
        <time>2022-08-11T15:14:33Z</time>
      </trkpt>
      <trkpt lat="43.0806" lon="6.14951">
        <ele>3</ele>
        <time>2022-08-11T15:14:35Z</time>
      </trkpt>
      <trkpt lat="43.08064" lon="6.14967">
        <ele>3</ele>
        <time>2022-08-11T15:14:37Z</time>
      </trkpt>
      <trkpt lat="43.08073" lon="6.14975">
        <ele>3</ele>
        <time>2022-08-11T15:14:39Z</time>
      </trkpt>
      <trkpt lat="43.0809" lon="6.14983">
        <ele>3</ele>
        <time>2022-08-11T15:14:42Z</time>
      </trkpt>
      <trkpt lat="43.08142" lon="6.14997">
        <ele>3</ele>
        <time>2022-08-11T15:14:52Z</time>
      </trkpt>
      <trkpt lat="43.08188" lon="6.14996">
        <ele>2</ele>
        <time>2022-08-11T15:15:00Z</time>
      </trkpt>
      <trkpt lat="43.08212" lon="6.14991">
        <ele>2</ele>
        <time>2022-08-11T15:15:04Z</time>
      </trkpt>
      <trkpt lat="43.08222" lon="6.14989">
        <ele>2</ele>
        <time>2022-08-11T15:15:06Z</time>
      </trkpt>
      <trkpt lat="43.08232" lon="6.14983">
        <ele>2</ele>
        <time>2022-08-11T15:15:08Z</time>
      </trkpt>
      <trkpt lat="43.08245" lon="6.14968">
        <ele>2</ele>
        <time>2022-08-11T15:15:11Z</time>
      </trkpt>
      <trkpt lat="43.08253" lon="6.1496">
        <ele>2</ele>
        <time>2022-08-11T15:15:13Z</time>
      </trkpt>
      <trkpt lat="43.0826" lon="6.14956">
        <ele>2</ele>
        <time>2022-08-11T15:15:14Z</time>
      </trkpt>
      <trkpt lat="43.0831" lon="6.14952">
        <ele>3</ele>
        <time>2022-08-11T15:15:23Z</time>
      </trkpt>
      <trkpt lat="43.08314" lon="6.14968">
        <ele>3</ele>
        <time>2022-08-11T15:15:25Z</time>
      </trkpt>
      <trkpt lat="43.08307" lon="6.14973">
        <ele>3</ele>
        <time>2022-08-11T15:15:27Z</time>
      </trkpt>
      <trkpt lat="43.08314" lon="6.14989">
        <ele>3</ele>
        <time>2022-08-11T15:15:29Z</time>
      </trkpt>
      <trkpt lat="43.08311" lon="6.15002">
        <ele>3</ele>
        <time>2022-08-11T15:15:31Z</time>
      </trkpt>
      <trkpt lat="43.08312" lon="6.15018">
        <ele>3</ele>
        <time>2022-08-11T15:15:33Z</time>
      </trkpt>
      <trkpt lat="43.08309" lon="6.15034">
        <ele>4</ele>
        <time>2022-08-11T15:15:35Z</time>
      </trkpt>
      <trkpt lat="43.08298" lon="6.15062">
        <ele>4</ele>
        <time>2022-08-11T15:15:39Z</time>
      </trkpt>
      <trkpt lat="43.08288" lon="6.15064">
        <ele>5</ele>
        <time>2022-08-11T15:15:41Z</time>
      </trkpt>
      <trkpt lat="43.08285" lon="6.15067">
        <ele>5</ele>
        <time>2022-08-11T15:15:42Z</time>
      </trkpt>
      <trkpt lat="43.08296" lon="6.1508">
        <ele>5</ele>
        <time>2022-08-11T15:15:44Z</time>
      </trkpt>
      <trkpt lat="43.08394" lon="6.15214">
        <ele>5</ele>
        <time>2022-08-11T15:16:09Z</time>
      </trkpt>
      <trkpt lat="43.08471" lon="6.15314">
        <ele>6</ele>
        <time>2022-08-11T15:16:28Z</time>
      </trkpt>
      <trkpt lat="43.08553" lon="6.15428">
        <ele>7</ele>
        <time>2022-08-11T15:16:49Z</time>
      </trkpt>
      <trkpt lat="43.08562" lon="6.15448">
        <ele>7</ele>
        <time>2022-08-11T15:16:52Z</time>
      </trkpt>
      <trkpt lat="43.08567" lon="6.15463">
        <ele>7</ele>
        <time>2022-08-11T15:16:54Z</time>
      </trkpt>
      <trkpt lat="43.08602" lon="6.15609">
        <ele>7</ele>
        <time>2022-08-11T15:17:14Z</time>
      </trkpt>
      <trkpt lat="43.08609" lon="6.15633">
        <ele>7</ele>
        <time>2022-08-11T15:17:17Z</time>
      </trkpt>
      <trkpt lat="43.0863" lon="6.15671">
        <ele>6</ele>
        <time>2022-08-11T15:17:23Z</time>
      </trkpt>
      <trkpt lat="43.08636" lon="6.15664">
        <ele>6</ele>
        <time>2022-08-11T15:17:25Z</time>
      </trkpt>
      <trkpt lat="43.08639" lon="6.15661">
        <ele>6</ele>
        <time>2022-08-11T15:17:25Z</time>
      </trkpt>
      <trkpt lat="43.08657" lon="6.15701">
        <ele>5</ele>
        <time>2022-08-11T15:17:32Z</time>
      </trkpt>
      <trkpt lat="43.08665" lon="6.15714">
        <ele>5</ele>
        <time>2022-08-11T15:17:34Z</time>
      </trkpt>
      <trkpt lat="43.08675" lon="6.15725">
        <ele>5</ele>
        <time>2022-08-11T15:17:36Z</time>
      </trkpt>
      <trkpt lat="43.08721" lon="6.15748">
        <ele>5</ele>
        <time>2022-08-11T15:17:45Z</time>
      </trkpt>
      <trkpt lat="43.08967" lon="6.15986">
        <ele>4</ele>
        <time>2022-08-11T15:18:38Z</time>
      </trkpt>
      <trkpt lat="43.08992" lon="6.15998">
        <ele>5</ele>
        <time>2022-08-11T15:18:43Z</time>
      </trkpt>
      <trkpt lat="43.09007" lon="6.16">
        <ele>5</ele>
        <time>2022-08-11T15:18:46Z</time>
      </trkpt>
      <trkpt lat="43.09025" lon="6.15995">
        <ele>6</ele>
        <time>2022-08-11T15:18:49Z</time>
      </trkpt>
      <trkpt lat="43.09031" lon="6.16005">
        <ele>6</ele>
        <time>2022-08-11T15:18:51Z</time>
      </trkpt>
      <trkpt lat="43.09035" lon="6.16019">
        <ele>6</ele>
        <time>2022-08-11T15:18:53Z</time>
      </trkpt>
      <trkpt lat="43.09034" lon="6.16028">
        <ele>6</ele>
        <time>2022-08-11T15:18:54Z</time>
      </trkpt>
      <trkpt lat="43.09037" lon="6.16042">
        <ele>6</ele>
        <time>2022-08-11T15:18:56Z</time>
      </trkpt>
      <trkpt lat="43.09053" lon="6.1607">
        <ele>6</ele>
        <time>2022-08-11T15:19:00Z</time>
      </trkpt>
      <trkpt lat="43.09926" lon="6.16945">
        <ele>3</ele>
        <time>2022-08-11T15:22:13Z</time>
      </trkpt>
      <trkpt lat="43.1" lon="6.17014">
        <ele>4</ele>
        <time>2022-08-11T15:22:29Z</time>
      </trkpt>
      <trkpt lat="43.10016" lon="6.17017">
        <ele>5</ele>
        <time>2022-08-11T15:22:32Z</time>
      </trkpt>
      <trkpt lat="43.10021" lon="6.17022">
        <ele>5</ele>
        <time>2022-08-11T15:22:33Z</time>
      </trkpt>
      <trkpt lat="43.10027" lon="6.17035">
        <ele>4</ele>
        <time>2022-08-11T15:22:35Z</time>
      </trkpt>
      <trkpt lat="43.10124" lon="6.17136">
        <ele>4</ele>
        <time>2022-08-11T15:22:56Z</time>
      </trkpt>
      <trkpt lat="43.10131" lon="6.17149">
        <ele>4</ele>
        <time>2022-08-11T15:22:58Z</time>
      </trkpt>
      <trkpt lat="43.10192" lon="6.17213">
        <ele>3</ele>
        <time>2022-08-11T15:23:12Z</time>
      </trkpt>
      <trkpt lat="43.10217" lon="6.17237">
        <ele>3</ele>
        <time>2022-08-11T15:23:18Z</time>
      </trkpt>
      <trkpt lat="43.10493" lon="6.17512">
        <ele>4</ele>
        <time>2022-08-11T15:24:18Z</time>
      </trkpt>
      <trkpt lat="43.10505" lon="6.17527">
        <ele>4</ele>
        <time>2022-08-11T15:24:21Z</time>
      </trkpt>
      <trkpt lat="43.10544" lon="6.17567">
        <ele>3</ele>
        <time>2022-08-11T15:24:30Z</time>
      </trkpt>
      <trkpt lat="43.10565" lon="6.1757">
        <ele>3</ele>
        <time>2022-08-11T15:24:34Z</time>
      </trkpt>
      <trkpt lat="43.10571" lon="6.17574">
        <ele>3</ele>
        <time>2022-08-11T15:24:35Z</time>
      </trkpt>
      <trkpt lat="43.10576" lon="6.17582">
        <ele>3</ele>
        <time>2022-08-11T15:24:36Z</time>
      </trkpt>
      <trkpt lat="43.10577" lon="6.17595">
        <ele>3</ele>
        <time>2022-08-11T15:24:38Z</time>
      </trkpt>
      <trkpt lat="43.1058" lon="6.17602">
        <ele>3</ele>
        <time>2022-08-11T15:24:39Z</time>
      </trkpt>
      <trkpt lat="43.10671" lon="6.17698">
        <ele>3</ele>
        <time>2022-08-11T15:24:59Z</time>
      </trkpt>
      <trkpt lat="43.10703" lon="6.17738">
        <ele>2</ele>
        <time>2022-08-11T15:25:07Z</time>
      </trkpt>
      <trkpt lat="43.10728" lon="6.17774">
        <ele>2</ele>
        <time>2022-08-11T15:25:14Z</time>
      </trkpt>
      <trkpt lat="43.10744" lon="6.17797">
        <ele>2</ele>
        <time>2022-08-11T15:25:18Z</time>
      </trkpt>
      <trkpt lat="43.1078" lon="6.17855">
        <ele>3</ele>
        <time>2022-08-11T15:25:28Z</time>
      </trkpt>
      <trkpt lat="43.10812" lon="6.17914">
        <ele>3</ele>
        <time>2022-08-11T15:25:37Z</time>
      </trkpt>
      <trkpt lat="43.10917" lon="6.18121">
        <ele>2</ele>
        <time>2022-08-11T15:26:10Z</time>
      </trkpt>
      <trkpt lat="43.10947" lon="6.18175">
        <ele>2</ele>
        <time>2022-08-11T15:26:19Z</time>
      </trkpt>
      <trkpt lat="43.10964" lon="6.18215">
        <ele>3</ele>
        <time>2022-08-11T15:26:25Z</time>
      </trkpt>
      <trkpt lat="43.11142" lon="6.18568">
        <ele>2</ele>
        <time>2022-08-11T15:27:20Z</time>
      </trkpt>
      <trkpt lat="43.11156" lon="6.18597">
        <ele>2</ele>
        <time>2022-08-11T15:27:25Z</time>
      </trkpt>
      <trkpt lat="43.11286" lon="6.18854">
        <ele>2</ele>
        <time>2022-08-11T15:28:06Z</time>
      </trkpt>
      <trkpt lat="43.11299" lon="6.18874">
        <ele>2</ele>
        <time>2022-08-11T15:28:09Z</time>
      </trkpt>
      <trkpt lat="43.11319" lon="6.18913">
        <ele>3</ele>
        <time>2022-08-11T15:28:15Z</time>
      </trkpt>
      <trkpt lat="43.11315" lon="6.18917">
        <ele>3</ele>
        <time>2022-08-11T15:28:16Z</time>
      </trkpt>
      <trkpt lat="43.11322" lon="6.18908">
        <ele>3</ele>
        <time>2022-08-11T15:28:18Z</time>
      </trkpt>
      <trkpt lat="43.11355" lon="6.18815">
        <ele>2</ele>
        <time>2022-08-11T15:28:31Z</time>
      </trkpt>
      <trkpt lat="43.11419" lon="6.18679">
        <ele>2</ele>
        <time>2022-08-11T15:28:52Z</time>
      </trkpt>
      <trkpt lat="43.1166" lon="6.18336">
        <ele>2</ele>
        <time>2022-08-11T15:29:54Z</time>
      </trkpt>
      <trkpt lat="43.11705" lon="6.18295">
        <ele>2</ele>
        <time>2022-08-11T15:30:04Z</time>
      </trkpt>
      <trkpt lat="43.11771" lon="6.18228">
        <ele>3</ele>
        <time>2022-08-11T15:30:18Z</time>
      </trkpt>
      <trkpt lat="43.11795" lon="6.18193">
        <ele>2</ele>
        <time>2022-08-11T15:30:25Z</time>
      </trkpt>
      <trkpt lat="43.11816" lon="6.18155">
        <ele>2</ele>
        <time>2022-08-11T15:30:31Z</time>
      </trkpt>
      <trkpt lat="43.11841" lon="6.18126">
        <ele>2</ele>
        <time>2022-08-11T15:30:37Z</time>
      </trkpt>
      <trkpt lat="43.11883" lon="6.18088">
        <ele>3</ele>
        <time>2022-08-11T15:30:46Z</time>
      </trkpt>
      <trkpt lat="43.11919" lon="6.18067">
        <ele>3</ele>
        <time>2022-08-11T15:30:52Z</time>
      </trkpt>
      <trkpt lat="43.11938" lon="6.18047">
        <ele>3</ele>
        <time>2022-08-11T15:30:57Z</time>
      </trkpt>
      <trkpt lat="43.11991" lon="6.17975">
        <ele>3</ele>
        <time>2022-08-11T15:31:10Z</time>
      </trkpt>
      <trkpt lat="43.1203" lon="6.179">
        <ele>1</ele>
        <time>2022-08-11T15:31:22Z</time>
      </trkpt>
      <trkpt lat="43.12081" lon="6.17778">
        <ele>4</ele>
        <time>2022-08-11T15:31:40Z</time>
      </trkpt>
      <trkpt lat="43.12096" lon="6.17758">
        <ele>4</ele>
        <time>2022-08-11T15:31:44Z</time>
      </trkpt>
      <trkpt lat="43.12135" lon="6.17723">
        <ele>4</ele>
        <time>2022-08-11T15:31:52Z</time>
      </trkpt>
      <trkpt lat="43.12231" lon="6.17599">
        <ele>4</ele>
        <time>2022-08-11T15:32:16Z</time>
      </trkpt>
      <trkpt lat="43.12269" lon="6.17538">
        <ele>4</ele>
        <time>2022-08-11T15:32:26Z</time>
      </trkpt>
      <trkpt lat="43.12279" lon="6.17514">
        <ele>4</ele>
        <time>2022-08-11T15:32:30Z</time>
      </trkpt>
      <trkpt lat="43.12297" lon="6.17392">
        <ele>4</ele>
        <time>2022-08-11T15:32:46Z</time>
      </trkpt>
      <trkpt lat="43.12309" lon="6.17332">
        <ele>5</ele>
        <time>2022-08-11T15:32:54Z</time>
      </trkpt>
      <trkpt lat="43.12317" lon="6.17246">
        <ele>6</ele>
        <time>2022-08-11T15:33:05Z</time>
      </trkpt>
      <trkpt lat="43.12329" lon="6.17213">
        <ele>7</ele>
        <time>2022-08-11T15:33:10Z</time>
      </trkpt>
      <trkpt lat="43.12345" lon="6.17188">
        <ele>7</ele>
        <time>2022-08-11T15:33:14Z</time>
      </trkpt>
      <trkpt lat="43.12423" lon="6.17118">
        <ele>6</ele>
        <time>2022-08-11T15:33:31Z</time>
      </trkpt>
      <trkpt lat="43.12432" lon="6.17111">
        <ele>6</ele>
        <time>2022-08-11T15:33:33Z</time>
      </trkpt>
      <trkpt lat="43.1245" lon="6.17099">
        <ele>6</ele>
        <time>2022-08-11T15:33:36Z</time>
      </trkpt>
      <trkpt lat="43.1247" lon="6.17096">
        <ele>5</ele>
        <time>2022-08-11T15:33:40Z</time>
      </trkpt>
      <trkpt lat="43.12515" lon="6.17103">
        <ele>5</ele>
        <time>2022-08-11T15:33:48Z</time>
      </trkpt>
      <trkpt lat="43.12584" lon="6.1712">
        <ele>6</ele>
        <time>2022-08-11T15:34:00Z</time>
      </trkpt>
      <trkpt lat="43.12598" lon="6.17121">
        <ele>6</ele>
        <time>2022-08-11T15:34:03Z</time>
      </trkpt>
      <trkpt lat="43.12617" lon="6.17115">
        <ele>6</ele>
        <time>2022-08-11T15:34:06Z</time>
      </trkpt>
      <trkpt lat="43.12643" lon="6.17098">
        <ele>6</ele>
        <time>2022-08-11T15:34:12Z</time>
      </trkpt>
      <trkpt lat="43.12677" lon="6.17052">
        <ele>6</ele>
        <time>2022-08-11T15:34:20Z</time>
      </trkpt>
      <trkpt lat="43.12745" lon="6.1695">
        <ele>6</ele>
        <time>2022-08-11T15:34:38Z</time>
      </trkpt>
      <trkpt lat="43.12812" lon="6.16856">
        <ele>5</ele>
        <time>2022-08-11T15:34:55Z</time>
      </trkpt>
      <trkpt lat="43.12874" lon="6.16738">
        <ele>6</ele>
        <time>2022-08-11T15:35:14Z</time>
      </trkpt>
      <trkpt lat="43.12888" lon="6.1672">
        <ele>6</ele>
        <time>2022-08-11T15:35:17Z</time>
      </trkpt>
      <trkpt lat="43.12991" lon="6.16655">
        <ele>6</ele>
        <time>2022-08-11T15:35:38Z</time>
      </trkpt>
      <trkpt lat="43.13012" lon="6.16635">
        <ele>6</ele>
        <time>2022-08-11T15:35:42Z</time>
      </trkpt>
      <trkpt lat="43.13029" lon="6.16615">
        <ele>6</ele>
        <time>2022-08-11T15:35:46Z</time>
      </trkpt>
      <trkpt lat="43.13038" lon="6.16598">
        <ele>6</ele>
        <time>2022-08-11T15:35:49Z</time>
      </trkpt>
      <trkpt lat="43.13039" lon="6.16586">
        <ele>6</ele>
        <time>2022-08-11T15:35:50Z</time>
      </trkpt>
      <trkpt lat="43.13032" lon="6.16529">
        <ele>6</ele>
        <time>2022-08-11T15:35:58Z</time>
      </trkpt>
      <trkpt lat="43.13032" lon="6.16518">
        <ele>6</ele>
        <time>2022-08-11T15:35:59Z</time>
      </trkpt>
      <trkpt lat="43.13039" lon="6.16513">
        <ele>6</ele>
        <time>2022-08-11T15:36:01Z</time>
      </trkpt>
      <trkpt lat="43.13052" lon="6.1656">
        <ele>6</ele>
        <time>2022-08-11T15:36:07Z</time>
      </trkpt>
      <trkpt lat="43.13056" lon="6.16568">
        <ele>6</ele>
        <time>2022-08-11T15:36:08Z</time>
      </trkpt>
      <trkpt lat="43.13066" lon="6.16612">
        <ele>7</ele>
        <time>2022-08-11T15:36:14Z</time>
      </trkpt>
      <trkpt lat="43.13069" lon="6.16638">
        <ele>7</ele>
        <time>2022-08-11T15:36:18Z</time>
      </trkpt>
      <trkpt lat="43.13068" lon="6.16643">
        <ele>7</ele>
        <time>2022-08-11T15:36:19Z</time>
      </trkpt>
      <trkpt lat="43.13069" lon="6.16654">
        <ele>7</ele>
        <time>2022-08-11T15:36:20Z</time>
      </trkpt>
      <trkpt lat="43.13074" lon="6.1666">
        <ele>7</ele>
        <time>2022-08-11T15:36:21Z</time>
      </trkpt>
      <trkpt lat="43.1308" lon="6.16663">
        <ele>7</ele>
        <time>2022-08-11T15:36:22Z</time>
      </trkpt>
      <trkpt lat="43.13089" lon="6.16658">
        <ele>7</ele>
        <time>2022-08-11T15:36:24Z</time>
      </trkpt>
      <trkpt lat="43.13092" lon="6.1665">
        <ele>7</ele>
        <time>2022-08-11T15:36:25Z</time>
      </trkpt>
      <trkpt lat="43.13092" lon="6.1664">
        <ele>7</ele>
        <time>2022-08-11T15:36:27Z</time>
      </trkpt>
      <trkpt lat="43.13103" lon="6.16614">
        <ele>7</ele>
        <time>2022-08-11T15:36:30Z</time>
      </trkpt>
      <trkpt lat="43.13112" lon="6.16557">
        <ele>7</ele>
        <time>2022-08-11T15:36:38Z</time>
      </trkpt>
      <trkpt lat="43.1312" lon="6.16523">
        <ele>7</ele>
        <time>2022-08-11T15:36:43Z</time>
      </trkpt>
      <trkpt lat="43.13145" lon="6.16476">
        <ele>8</ele>
        <time>2022-08-11T15:36:50Z</time>
      </trkpt>
      <trkpt lat="43.13193" lon="6.16398">
        <ele>8</ele>
        <time>2022-08-11T15:37:03Z</time>
      </trkpt>
      <trkpt lat="43.13253" lon="6.16332">
        <ele>7</ele>
        <time>2022-08-11T15:37:17Z</time>
      </trkpt>
      <trkpt lat="43.13299" lon="6.16273">
        <ele>7</ele>
        <time>2022-08-11T15:37:28Z</time>
      </trkpt>
      <trkpt lat="43.13324" lon="6.16237">
        <ele>6</ele>
        <time>2022-08-11T15:37:35Z</time>
      </trkpt>
      <trkpt lat="43.13368" lon="6.16155">
        <ele>6</ele>
        <time>2022-08-11T15:37:48Z</time>
      </trkpt>
      <trkpt lat="43.13388" lon="6.16112">
        <ele>7</ele>
        <time>2022-08-11T15:37:55Z</time>
      </trkpt>
      <trkpt lat="43.13393" lon="6.16092">
        <ele>7</ele>
        <time>2022-08-11T15:37:57Z</time>
      </trkpt>
      <trkpt lat="43.13401" lon="6.16052">
        <ele>8</ele>
        <time>2022-08-11T15:38:03Z</time>
      </trkpt>
      <trkpt lat="43.13409" lon="6.15974">
        <ele>7</ele>
        <time>2022-08-11T15:38:13Z</time>
      </trkpt>
      <trkpt lat="43.13414" lon="6.15953">
        <ele>7</ele>
        <time>2022-08-11T15:38:16Z</time>
      </trkpt>
      <trkpt lat="43.1342" lon="6.15932">
        <ele>7</ele>
        <time>2022-08-11T15:38:19Z</time>
      </trkpt>
      <trkpt lat="43.13432" lon="6.15901">
        <ele>7</ele>
        <time>2022-08-11T15:38:23Z</time>
      </trkpt>
      <trkpt lat="43.13457" lon="6.15856">
        <ele>8</ele>
        <time>2022-08-11T15:38:31Z</time>
      </trkpt>
      <trkpt lat="43.1348" lon="6.15822">
        <ele>9</ele>
        <time>2022-08-11T15:38:37Z</time>
      </trkpt>
      <trkpt lat="43.13493" lon="6.15808">
        <ele>9</ele>
        <time>2022-08-11T15:38:40Z</time>
      </trkpt>
      <trkpt lat="43.13521" lon="6.15785">
        <ele>9</ele>
        <time>2022-08-11T15:38:45Z</time>
      </trkpt>
      <trkpt lat="43.13557" lon="6.15764">
        <ele>8</ele>
        <time>2022-08-11T15:38:52Z</time>
      </trkpt>
      <trkpt lat="43.1363" lon="6.15736">
        <ele>9</ele>
        <time>2022-08-11T15:39:06Z</time>
      </trkpt>
      <trkpt lat="43.1385" lon="6.15664">
        <ele>9</ele>
        <time>2022-08-11T15:39:46Z</time>
      </trkpt>
      <trkpt lat="43.13878" lon="6.1565">
        <ele>9</ele>
        <time>2022-08-11T15:39:51Z</time>
      </trkpt>
      <trkpt lat="43.13905" lon="6.15628">
        <ele>9</ele>
        <time>2022-08-11T15:39:57Z</time>
      </trkpt>
      <trkpt lat="43.141" lon="6.15439">
        <ele>9</ele>
        <time>2022-08-11T15:40:40Z</time>
      </trkpt>
      <trkpt lat="43.14116" lon="6.15426">
        <ele>9</ele>
        <time>2022-08-11T15:40:43Z</time>
      </trkpt>
      <trkpt lat="43.14142" lon="6.15408">
        <ele>8</ele>
        <time>2022-08-11T15:40:48Z</time>
      </trkpt>
      <trkpt lat="43.14162" lon="6.15397">
        <ele>9</ele>
        <time>2022-08-11T15:40:52Z</time>
      </trkpt>
      <trkpt lat="43.14197" lon="6.15384">
        <ele>9</ele>
        <time>2022-08-11T15:40:58Z</time>
      </trkpt>
      <trkpt lat="43.14218" lon="6.15379">
        <ele>10</ele>
        <time>2022-08-11T15:41:02Z</time>
      </trkpt>
      <trkpt lat="43.14341" lon="6.15376">
        <ele>10</ele>
        <time>2022-08-11T15:41:24Z</time>
      </trkpt>
      <trkpt lat="43.14369" lon="6.15378">
        <ele>10</ele>
        <time>2022-08-11T15:41:29Z</time>
      </trkpt>
      <trkpt lat="43.14396" lon="6.15375">
        <ele>11</ele>
        <time>2022-08-11T15:41:34Z</time>
      </trkpt>
      <trkpt lat="43.14408" lon="6.1537">
        <ele>11</ele>
        <time>2022-08-11T15:41:36Z</time>
      </trkpt>
      <trkpt lat="43.14431" lon="6.15357">
        <ele>11</ele>
        <time>2022-08-11T15:41:40Z</time>
      </trkpt>
      <trkpt lat="43.14438" lon="6.15364">
        <ele>12</ele>
        <time>2022-08-11T15:41:42Z</time>
      </trkpt>
      <trkpt lat="43.14456" lon="6.15376">
        <ele>12</ele>
        <time>2022-08-11T15:41:46Z</time>
      </trkpt>
      <trkpt lat="43.14526" lon="6.15452">
        <ele>13</ele>
        <time>2022-08-11T15:42:01Z</time>
      </trkpt>
      <trkpt lat="43.14537" lon="6.15459">
        <ele>13</ele>
        <time>2022-08-11T15:42:04Z</time>
      </trkpt>
      <trkpt lat="43.14563" lon="6.15469">
        <ele>13</ele>
        <time>2022-08-11T15:42:08Z</time>
      </trkpt>
      <trkpt lat="43.14608" lon="6.15498">
        <ele>14</ele>
        <time>2022-08-11T15:42:17Z</time>
      </trkpt>
      <trkpt lat="43.1465" lon="6.15528">
        <ele>14</ele>
        <time>2022-08-11T15:42:26Z</time>
      </trkpt>
      <trkpt lat="43.14809" lon="6.1565">
        <ele>18</ele>
        <time>2022-08-11T15:42:58Z</time>
      </trkpt>
      <trkpt lat="43.14873" lon="6.15708">
        <ele>20</ele>
        <time>2022-08-11T15:43:12Z</time>
      </trkpt>
      <trkpt lat="43.14907" lon="6.15733">
        <ele>20</ele>
        <time>2022-08-11T15:43:19Z</time>
      </trkpt>
      <trkpt lat="43.14927" lon="6.15743">
        <ele>20</ele>
        <time>2022-08-11T15:43:22Z</time>
      </trkpt>
      <trkpt lat="43.14969" lon="6.15748">
        <ele>21</ele>
        <time>2022-08-11T15:43:30Z</time>
      </trkpt>
      <trkpt lat="43.14995" lon="6.15763">
        <ele>22</ele>
        <time>2022-08-11T15:43:35Z</time>
      </trkpt>
      <trkpt lat="43.15019" lon="6.15786">
        <ele>23</ele>
        <time>2022-08-11T15:43:40Z</time>
      </trkpt>
      <trkpt lat="43.1505" lon="6.15822">
        <ele>24</ele>
        <time>2022-08-11T15:43:47Z</time>
      </trkpt>
      <trkpt lat="43.15065" lon="6.15834">
        <ele>24</ele>
        <time>2022-08-11T15:43:50Z</time>
      </trkpt>
      <trkpt lat="43.15078" lon="6.15839">
        <ele>24</ele>
        <time>2022-08-11T15:43:53Z</time>
      </trkpt>
      <trkpt lat="43.15092" lon="6.15842">
        <ele>24</ele>
        <time>2022-08-11T15:43:55Z</time>
      </trkpt>
      <trkpt lat="43.15309" lon="6.15865">
        <ele>26</ele>
        <time>2022-08-11T15:44:34Z</time>
      </trkpt>
      <trkpt lat="43.15328" lon="6.15872">
        <ele>27</ele>
        <time>2022-08-11T15:44:38Z</time>
      </trkpt>
      <trkpt lat="43.15343" lon="6.15883">
        <ele>27</ele>
        <time>2022-08-11T15:44:41Z</time>
      </trkpt>
      <trkpt lat="43.1536" lon="6.15906">
        <ele>28</ele>
        <time>2022-08-11T15:44:45Z</time>
      </trkpt>
      <trkpt lat="43.15418" lon="6.16041">
        <ele>30</ele>
        <time>2022-08-11T15:45:05Z</time>
      </trkpt>
      <trkpt lat="43.15432" lon="6.1607">
        <ele>31</ele>
        <time>2022-08-11T15:45:10Z</time>
      </trkpt>
      <trkpt lat="43.15451" lon="6.16095">
        <ele>31</ele>
        <time>2022-08-11T15:45:14Z</time>
      </trkpt>
      <trkpt lat="43.15465" lon="6.1611">
        <ele>31</ele>
        <time>2022-08-11T15:45:18Z</time>
      </trkpt>
      <trkpt lat="43.15475" lon="6.16113">
        <ele>30</ele>
        <time>2022-08-11T15:45:19Z</time>
      </trkpt>
      <trkpt lat="43.15494" lon="6.16115">
        <ele>28</ele>
        <time>2022-08-11T15:45:23Z</time>
      </trkpt>
      <trkpt lat="43.15511" lon="6.16119">
        <ele>28</ele>
        <time>2022-08-11T15:45:26Z</time>
      </trkpt>
      <trkpt lat="43.1552" lon="6.16128">
        <ele>29</ele>
        <time>2022-08-11T15:45:28Z</time>
      </trkpt>
      <trkpt lat="43.15535" lon="6.16152">
        <ele>29</ele>
        <time>2022-08-11T15:45:32Z</time>
      </trkpt>
      <trkpt lat="43.15602" lon="6.16269">
        <ele>30</ele>
        <time>2022-08-11T15:45:51Z</time>
      </trkpt>
      <trkpt lat="43.15612" lon="6.16292">
        <ele>31</ele>
        <time>2022-08-11T15:45:55Z</time>
      </trkpt>
      <trkpt lat="43.15617" lon="6.1632">
        <ele>32</ele>
        <time>2022-08-11T15:45:58Z</time>
      </trkpt>
      <trkpt lat="43.15617" lon="6.16339">
        <ele>32</ele>
        <time>2022-08-11T15:46:01Z</time>
      </trkpt>
      <trkpt lat="43.15628" lon="6.16357">
        <ele>33</ele>
        <time>2022-08-11T15:46:04Z</time>
      </trkpt>
      <trkpt lat="43.15642" lon="6.16373">
        <ele>33</ele>
        <time>2022-08-11T15:46:07Z</time>
      </trkpt>
      <trkpt lat="43.15693" lon="6.16424">
        <ele>32</ele>
        <time>2022-08-11T15:46:18Z</time>
      </trkpt>
      <trkpt lat="43.15716" lon="6.16452">
        <ele>33</ele>
        <time>2022-08-11T15:46:24Z</time>
      </trkpt>
      <trkpt lat="43.15728" lon="6.16471">
        <ele>34</ele>
        <time>2022-08-11T15:46:27Z</time>
      </trkpt>
      <trkpt lat="43.1575" lon="6.16518">
        <ele>34</ele>
        <time>2022-08-11T15:46:34Z</time>
      </trkpt>
      <trkpt lat="43.15764" lon="6.16544">
        <ele>35</ele>
        <time>2022-08-11T15:46:39Z</time>
      </trkpt>
      <trkpt lat="43.15781" lon="6.16567">
        <ele>35</ele>
        <time>2022-08-11T15:46:43Z</time>
      </trkpt>
      <trkpt lat="43.158" lon="6.16603">
        <ele>36</ele>
        <time>2022-08-11T15:46:49Z</time>
      </trkpt>
      <trkpt lat="43.15817" lon="6.16638">
        <ele>38</ele>
        <time>2022-08-11T15:46:54Z</time>
      </trkpt>
      <trkpt lat="43.1584" lon="6.16671">
        <ele>38</ele>
        <time>2022-08-11T15:47:00Z</time>
      </trkpt>
      <trkpt lat="43.15846" lon="6.16676">
        <ele>38</ele>
        <time>2022-08-11T15:47:01Z</time>
      </trkpt>
      <trkpt lat="43.15884" lon="6.16685">
        <ele>38</ele>
        <time>2022-08-11T15:47:08Z</time>
      </trkpt>
      <trkpt lat="43.15936" lon="6.16716">
        <ele>38</ele>
        <time>2022-08-11T15:47:18Z</time>
      </trkpt>
      <trkpt lat="43.15989" lon="6.16742">
        <ele>40</ele>
        <time>2022-08-11T15:47:28Z</time>
      </trkpt>
      <trkpt lat="43.16081" lon="6.16777">
        <ele>45</ele>
        <time>2022-08-11T15:47:45Z</time>
      </trkpt>
      <trkpt lat="43.16124" lon="6.16798">
        <ele>48</ele>
        <time>2022-08-11T15:47:53Z</time>
      </trkpt>
      <trkpt lat="43.16132" lon="6.16805">
        <ele>48</ele>
        <time>2022-08-11T15:47:55Z</time>
      </trkpt>
      <trkpt lat="43.16146" lon="6.16823">
        <ele>49</ele>
        <time>2022-08-11T15:47:58Z</time>
      </trkpt>
      <trkpt lat="43.16193" lon="6.16922">
        <ele>49</ele>
        <time>2022-08-11T15:48:14Z</time>
      </trkpt>
      <trkpt lat="43.16203" lon="6.16948">
        <ele>49</ele>
        <time>2022-08-11T15:48:18Z</time>
      </trkpt>
      <trkpt lat="43.1621" lon="6.16974">
        <ele>49</ele>
        <time>2022-08-11T15:48:21Z</time>
      </trkpt>
      <trkpt lat="43.16235" lon="6.17102">
        <ele>47</ele>
        <time>2022-08-11T15:48:38Z</time>
      </trkpt>
      <trkpt lat="43.16258" lon="6.17199">
        <ele>47</ele>
        <time>2022-08-11T15:48:52Z</time>
      </trkpt>
      <trkpt lat="43.16286" lon="6.17339">
        <ele>50</ele>
        <time>2022-08-11T15:49:10Z</time>
      </trkpt>
      <trkpt lat="43.16287" lon="6.17356">
        <ele>50</ele>
        <time>2022-08-11T15:49:13Z</time>
      </trkpt>
      <trkpt lat="43.16274" lon="6.17443">
        <ele>50</ele>
        <time>2022-08-11T15:49:24Z</time>
      </trkpt>
      <trkpt lat="43.16273" lon="6.17457">
        <ele>50</ele>
        <time>2022-08-11T15:49:26Z</time>
      </trkpt>
      <trkpt lat="43.16275" lon="6.17477">
        <ele>50</ele>
        <time>2022-08-11T15:49:29Z</time>
      </trkpt>
      <trkpt lat="43.16282" lon="6.17494">
        <ele>50</ele>
        <time>2022-08-11T15:49:31Z</time>
      </trkpt>
      <trkpt lat="43.16318" lon="6.17534">
        <ele>51</ele>
        <time>2022-08-11T15:49:39Z</time>
      </trkpt>
      <trkpt lat="43.16325" lon="6.17544">
        <ele>51</ele>
        <time>2022-08-11T15:49:41Z</time>
      </trkpt>
      <trkpt lat="43.16332" lon="6.17558">
        <ele>51</ele>
        <time>2022-08-11T15:49:43Z</time>
      </trkpt>
      <trkpt lat="43.16348" lon="6.17602">
        <ele>51</ele>
        <time>2022-08-11T15:49:50Z</time>
      </trkpt>
      <trkpt lat="43.1636" lon="6.17678">
        <ele>51</ele>
        <time>2022-08-11T15:50:00Z</time>
      </trkpt>
      <trkpt lat="43.16374" lon="6.17718">
        <ele>52</ele>
        <time>2022-08-11T15:50:06Z</time>
      </trkpt>
      <trkpt lat="43.16382" lon="6.17733">
        <ele>52</ele>
        <time>2022-08-11T15:50:08Z</time>
      </trkpt>
      <trkpt lat="43.16392" lon="6.17745">
        <ele>52</ele>
        <time>2022-08-11T15:50:10Z</time>
      </trkpt>
      <trkpt lat="43.16424" lon="6.17768">
        <ele>52</ele>
        <time>2022-08-11T15:50:17Z</time>
      </trkpt>
      <trkpt lat="43.16432" lon="6.1778">
        <ele>53</ele>
        <time>2022-08-11T15:50:19Z</time>
      </trkpt>
      <trkpt lat="43.16438" lon="6.17802">
        <ele>53</ele>
        <time>2022-08-11T15:50:22Z</time>
      </trkpt>
      <trkpt lat="43.16443" lon="6.17832">
        <ele>53</ele>
        <time>2022-08-11T15:50:26Z</time>
      </trkpt>
      <trkpt lat="43.16443" lon="6.1786">
        <ele>54</ele>
        <time>2022-08-11T15:50:30Z</time>
      </trkpt>
      <trkpt lat="43.16433" lon="6.17919">
        <ele>53</ele>
        <time>2022-08-11T15:50:38Z</time>
      </trkpt>
      <trkpt lat="43.16432" lon="6.17941">
        <ele>54</ele>
        <time>2022-08-11T15:50:40Z</time>
      </trkpt>
      <trkpt lat="43.16447" lon="6.18112">
        <ele>58</ele>
        <time>2022-08-11T15:51:03Z</time>
      </trkpt>
      <trkpt lat="43.16456" lon="6.18148">
        <ele>59</ele>
        <time>2022-08-11T15:51:08Z</time>
      </trkpt>
      <trkpt lat="43.16469" lon="6.18188">
        <ele>60</ele>
        <time>2022-08-11T15:51:13Z</time>
      </trkpt>
      <trkpt lat="43.16534" lon="6.18311">
        <ele>62</ele>
        <time>2022-08-11T15:51:33Z</time>
      </trkpt>
      <trkpt lat="43.16538" lon="6.18325">
        <ele>61</ele>
        <time>2022-08-11T15:51:35Z</time>
      </trkpt>
      <trkpt lat="43.16535" lon="6.18361">
        <ele>62</ele>
        <time>2022-08-11T15:51:40Z</time>
      </trkpt>
      <trkpt lat="43.16534" lon="6.18373">
        <ele>62</ele>
        <time>2022-08-11T15:51:41Z</time>
      </trkpt>
      <trkpt lat="43.16531" lon="6.18402">
        <ele>62</ele>
        <time>2022-08-11T15:51:45Z</time>
      </trkpt>
      <trkpt lat="43.16531" lon="6.18424">
        <ele>63</ele>
        <time>2022-08-11T15:51:48Z</time>
      </trkpt>
      <trkpt lat="43.16534" lon="6.18444">
        <ele>64</ele>
        <time>2022-08-11T15:51:51Z</time>
      </trkpt>
      <trkpt lat="43.16536" lon="6.18449">
        <ele>64</ele>
        <time>2022-08-11T15:51:51Z</time>
      </trkpt>
      <trkpt lat="43.16562" lon="6.18498">
        <ele>65</ele>
        <time>2022-08-11T15:51:59Z</time>
      </trkpt>
      <trkpt lat="43.16569" lon="6.18507">
        <ele>65</ele>
        <time>2022-08-11T15:52:01Z</time>
      </trkpt>
      <trkpt lat="43.16595" lon="6.18584">
        <ele>68</ele>
        <time>2022-08-11T15:52:12Z</time>
      </trkpt>
      <trkpt lat="43.16605" lon="6.18589">
        <ele>68</ele>
        <time>2022-08-11T15:52:14Z</time>
      </trkpt>
      <trkpt lat="43.16607" lon="6.18591">
        <ele>68</ele>
        <time>2022-08-11T15:52:14Z</time>
      </trkpt>
      <trkpt lat="43.16622" lon="6.18625">
        <ele>69</ele>
        <time>2022-08-11T15:52:19Z</time>
      </trkpt>
      <trkpt lat="43.16634" lon="6.18673">
        <ele>70</ele>
        <time>2022-08-11T15:52:26Z</time>
      </trkpt>
      <trkpt lat="43.16649" lon="6.18741">
        <ele>72</ele>
        <time>2022-08-11T15:52:35Z</time>
      </trkpt>
      <trkpt lat="43.16681" lon="6.18803">
        <ele>73</ele>
        <time>2022-08-11T15:52:45Z</time>
      </trkpt>
      <trkpt lat="43.16724" lon="6.18882">
        <ele>76</ele>
        <time>2022-08-11T15:52:58Z</time>
      </trkpt>
      <trkpt lat="43.16747" lon="6.18929">
        <ele>77</ele>
        <time>2022-08-11T15:53:05Z</time>
      </trkpt>
      <trkpt lat="43.16773" lon="6.18989">
        <ele>78</ele>
        <time>2022-08-11T15:53:14Z</time>
      </trkpt>
      <trkpt lat="43.16783" lon="6.19023">
        <ele>79</ele>
        <time>2022-08-11T15:53:19Z</time>
      </trkpt>
      <trkpt lat="43.16792" lon="6.19049">
        <ele>80</ele>
        <time>2022-08-11T15:53:23Z</time>
      </trkpt>
      <trkpt lat="43.16805" lon="6.19072">
        <ele>80</ele>
        <time>2022-08-11T15:53:27Z</time>
      </trkpt>
      <trkpt lat="43.16816" lon="6.19086">
        <ele>81</ele>
        <time>2022-08-11T15:53:29Z</time>
      </trkpt>
      <trkpt lat="43.16823" lon="6.19096">
        <ele>81</ele>
        <time>2022-08-11T15:53:31Z</time>
      </trkpt>
      <trkpt lat="43.16879" lon="6.1919">
        <ele>84</ele>
        <time>2022-08-11T15:53:47Z</time>
      </trkpt>
      <trkpt lat="43.16898" lon="6.19228">
        <ele>85</ele>
        <time>2022-08-11T15:53:53Z</time>
      </trkpt>
      <trkpt lat="43.16938" lon="6.19297">
        <ele>88</ele>
        <time>2022-08-11T15:54:04Z</time>
      </trkpt>
      <trkpt lat="43.1695" lon="6.19315">
        <ele>89</ele>
        <time>2022-08-11T15:54:07Z</time>
      </trkpt>
      <trkpt lat="43.16988" lon="6.19351">
        <ele>90</ele>
        <time>2022-08-11T15:54:16Z</time>
      </trkpt>
      <trkpt lat="43.17006" lon="6.1937">
        <ele>91</ele>
        <time>2022-08-11T15:54:20Z</time>
      </trkpt>
      <trkpt lat="43.17016" lon="6.19387">
        <ele>92</ele>
        <time>2022-08-11T15:54:22Z</time>
      </trkpt>
      <trkpt lat="43.17035" lon="6.19442">
        <ele>93</ele>
        <time>2022-08-11T15:54:30Z</time>
      </trkpt>
      <trkpt lat="43.17053" lon="6.19477">
        <ele>94</ele>
        <time>2022-08-11T15:54:36Z</time>
      </trkpt>
      <trkpt lat="43.17081" lon="6.19566">
        <ele>93</ele>
        <time>2022-08-11T15:54:48Z</time>
      </trkpt>
      <trkpt lat="43.17093" lon="6.19616">
        <ele>94</ele>
        <time>2022-08-11T15:54:55Z</time>
      </trkpt>
      <trkpt lat="43.17094" lon="6.19629">
        <ele>95</ele>
        <time>2022-08-11T15:54:57Z</time>
      </trkpt>
      <trkpt lat="43.17087" lon="6.19685">
        <ele>96</ele>
        <time>2022-08-11T15:55:04Z</time>
      </trkpt>
      <trkpt lat="43.17089" lon="6.19706">
        <ele>96</ele>
        <time>2022-08-11T15:55:07Z</time>
      </trkpt>
      <trkpt lat="43.17091" lon="6.19723">
        <ele>97</ele>
        <time>2022-08-11T15:55:09Z</time>
      </trkpt>
      <trkpt lat="43.17095" lon="6.19736">
        <ele>97</ele>
        <time>2022-08-11T15:55:11Z</time>
      </trkpt>
      <trkpt lat="43.17115" lon="6.19776">
        <ele>98</ele>
        <time>2022-08-11T15:55:17Z</time>
      </trkpt>
      <trkpt lat="43.17119" lon="6.1979">
        <ele>98</ele>
        <time>2022-08-11T15:55:19Z</time>
      </trkpt>
      <trkpt lat="43.17123" lon="6.19817">
        <ele>99</ele>
        <time>2022-08-11T15:55:23Z</time>
      </trkpt>
      <trkpt lat="43.17125" lon="6.19852">
        <ele>99</ele>
        <time>2022-08-11T15:55:28Z</time>
      </trkpt>
      <trkpt lat="43.17134" lon="6.20078">
        <ele>93</ele>
        <time>2022-08-11T15:55:57Z</time>
      </trkpt>
      <trkpt lat="43.17133" lon="6.20103">
        <ele>92</ele>
        <time>2022-08-11T15:56:00Z</time>
      </trkpt>
      <trkpt lat="43.17123" lon="6.20153">
        <ele>91</ele>
        <time>2022-08-11T15:56:07Z</time>
      </trkpt>
      <trkpt lat="43.17121" lon="6.20183">
        <ele>91</ele>
        <time>2022-08-11T15:56:11Z</time>
      </trkpt>
      <trkpt lat="43.17119" lon="6.2023">
        <ele>89</ele>
        <time>2022-08-11T15:56:17Z</time>
      </trkpt>
      <trkpt lat="43.1716" lon="6.20375">
        <ele>84</ele>
        <time>2022-08-11T15:56:37Z</time>
      </trkpt>
      <trkpt lat="43.17163" lon="6.20399">
        <ele>83</ele>
        <time>2022-08-11T15:56:40Z</time>
      </trkpt>
      <trkpt lat="43.1716" lon="6.20414">
        <ele>83</ele>
        <time>2022-08-11T15:56:42Z</time>
      </trkpt>
      <trkpt lat="43.17151" lon="6.20433">
        <ele>83</ele>
        <time>2022-08-11T15:56:45Z</time>
      </trkpt>
      <trkpt lat="43.17146" lon="6.20446">
        <ele>83</ele>
        <time>2022-08-11T15:56:47Z</time>
      </trkpt>
      <trkpt lat="43.17145" lon="6.20459">
        <ele>82</ele>
        <time>2022-08-11T15:56:49Z</time>
      </trkpt>
      <trkpt lat="43.17167" lon="6.20548">
        <ele>80</ele>
        <time>2022-08-11T15:57:01Z</time>
      </trkpt>
      <trkpt lat="43.17184" lon="6.20606">
        <ele>81</ele>
        <time>2022-08-11T15:57:09Z</time>
      </trkpt>
      <trkpt lat="43.17206" lon="6.20668">
        <ele>81</ele>
        <time>2022-08-11T15:57:18Z</time>
      </trkpt>
      <trkpt lat="43.17234" lon="6.20713">
        <ele>79</ele>
        <time>2022-08-11T15:57:26Z</time>
      </trkpt>
      <trkpt lat="43.17252" lon="6.2074">
        <ele>76</ele>
        <time>2022-08-11T15:57:31Z</time>
      </trkpt>
      <trkpt lat="43.17269" lon="6.20787">
        <ele>76</ele>
        <time>2022-08-11T15:57:37Z</time>
      </trkpt>
      <trkpt lat="43.17283" lon="6.20867">
        <ele>76</ele>
        <time>2022-08-11T15:57:48Z</time>
      </trkpt>
      <trkpt lat="43.17289" lon="6.2092">
        <ele>76</ele>
        <time>2022-08-11T15:57:55Z</time>
      </trkpt>
      <trkpt lat="43.17293" lon="6.20939">
        <ele>75</ele>
        <time>2022-08-11T15:57:58Z</time>
      </trkpt>
      <trkpt lat="43.17304" lon="6.20992">
        <ele>74</ele>
        <time>2022-08-11T15:58:05Z</time>
      </trkpt>
      <trkpt lat="43.17323" lon="6.21067">
        <ele>70</ele>
        <time>2022-08-11T15:58:15Z</time>
      </trkpt>
      <trkpt lat="43.17339" lon="6.21145">
        <ele>66</ele>
        <time>2022-08-11T15:58:25Z</time>
      </trkpt>
      <trkpt lat="43.17341" lon="6.21196">
        <ele>67</ele>
        <time>2022-08-11T15:58:32Z</time>
      </trkpt>
      <trkpt lat="43.17339" lon="6.21248">
        <ele>67</ele>
        <time>2022-08-11T15:58:39Z</time>
      </trkpt>
      <trkpt lat="43.17333" lon="6.21286">
        <ele>67</ele>
        <time>2022-08-11T15:58:44Z</time>
      </trkpt>
      <trkpt lat="43.17302" lon="6.21408">
        <ele>64</ele>
        <time>2022-08-11T15:59:01Z</time>
      </trkpt>
      <trkpt lat="43.17285" lon="6.215">
        <ele>60</ele>
        <time>2022-08-11T15:59:13Z</time>
      </trkpt>
      <trkpt lat="43.17277" lon="6.21534">
        <ele>59</ele>
        <time>2022-08-11T15:59:18Z</time>
      </trkpt>
      <trkpt lat="43.17266" lon="6.21561">
        <ele>59</ele>
        <time>2022-08-11T15:59:22Z</time>
      </trkpt>
      <trkpt lat="43.17263" lon="6.2157">
        <ele>59</ele>
        <time>2022-08-11T15:59:23Z</time>
      </trkpt>
      <trkpt lat="43.17272" lon="6.21576">
        <ele>59</ele>
        <time>2022-08-11T15:59:25Z</time>
      </trkpt>
      <trkpt lat="43.17381" lon="6.21595">
        <ele>58</ele>
        <time>2022-08-11T15:59:44Z</time>
      </trkpt>
      <trkpt lat="43.17421" lon="6.21594">
        <ele>58</ele>
        <time>2022-08-11T15:59:51Z</time>
      </trkpt>
      <trkpt lat="43.1748" lon="6.21584">
        <ele>58</ele>
        <time>2022-08-11T16:00:02Z</time>
      </trkpt>
      <trkpt lat="43.17585" lon="6.2156">
        <ele>61</ele>
        <time>2022-08-11T16:00:21Z</time>
      </trkpt>
      <trkpt lat="43.17613" lon="6.21549">
        <ele>61</ele>
        <time>2022-08-11T16:00:26Z</time>
      </trkpt>
      <trkpt lat="43.1763" lon="6.21537">
        <ele>61</ele>
        <time>2022-08-11T16:00:29Z</time>
      </trkpt>
      <trkpt lat="43.17763" lon="6.2143">
        <ele>65</ele>
        <time>2022-08-11T16:00:57Z</time>
      </trkpt>
      <trkpt lat="43.17785" lon="6.21408">
        <ele>66</ele>
        <time>2022-08-11T16:01:02Z</time>
      </trkpt>
      <trkpt lat="43.17838" lon="6.21345">
        <ele>67</ele>
        <time>2022-08-11T16:01:14Z</time>
      </trkpt>
      <trkpt lat="43.17859" lon="6.21328">
        <ele>68</ele>
        <time>2022-08-11T16:01:19Z</time>
      </trkpt>
      <trkpt lat="43.17876" lon="6.21322">
        <ele>68</ele>
        <time>2022-08-11T16:01:22Z</time>
      </trkpt>
      <trkpt lat="43.17894" lon="6.21321">
        <ele>67</ele>
        <time>2022-08-11T16:01:25Z</time>
      </trkpt>
      <trkpt lat="43.17926" lon="6.21329">
        <ele>66</ele>
        <time>2022-08-11T16:01:31Z</time>
      </trkpt>
      <trkpt lat="43.17951" lon="6.21344">
        <ele>67</ele>
        <time>2022-08-11T16:01:36Z</time>
      </trkpt>
      <trkpt lat="43.17997" lon="6.21376">
        <ele>67</ele>
        <time>2022-08-11T16:01:45Z</time>
      </trkpt>
      <trkpt lat="43.18074" lon="6.21453">
        <ele>67</ele>
        <time>2022-08-11T16:02:02Z</time>
      </trkpt>
      <trkpt lat="43.18087" lon="6.21463">
        <ele>66</ele>
        <time>2022-08-11T16:02:04Z</time>
      </trkpt>
      <trkpt lat="43.18108" lon="6.21473">
        <ele>67</ele>
        <time>2022-08-11T16:02:08Z</time>
      </trkpt>
      <trkpt lat="43.18142" lon="6.2148">
        <ele>68</ele>
        <time>2022-08-11T16:02:14Z</time>
      </trkpt>
      <trkpt lat="43.18214" lon="6.21483">
        <ele>69</ele>
        <time>2022-08-11T16:02:27Z</time>
      </trkpt>
      <trkpt lat="43.18282" lon="6.2148">
        <ele>70</ele>
        <time>2022-08-11T16:02:39Z</time>
      </trkpt>
      <trkpt lat="43.18365" lon="6.21474">
        <ele>72</ele>
        <time>2022-08-11T16:02:54Z</time>
      </trkpt>
      <trkpt lat="43.18478" lon="6.21446">
        <ele>74</ele>
        <time>2022-08-11T16:03:15Z</time>
      </trkpt>
      <trkpt lat="43.18505" lon="6.21437">
        <ele>74</ele>
        <time>2022-08-11T16:03:20Z</time>
      </trkpt>
      <trkpt lat="43.18528" lon="6.21417">
        <ele>75</ele>
        <time>2022-08-11T16:03:24Z</time>
      </trkpt>
      <trkpt lat="43.18546" lon="6.21387">
        <ele>77</ele>
        <time>2022-08-11T16:03:29Z</time>
      </trkpt>
      <trkpt lat="43.18584" lon="6.21308">
        <ele>79</ele>
        <time>2022-08-11T16:03:42Z</time>
      </trkpt>
      <trkpt lat="43.18621" lon="6.21239">
        <ele>82</ele>
        <time>2022-08-11T16:03:53Z</time>
      </trkpt>
      <trkpt lat="43.18636" lon="6.21215">
        <ele>81</ele>
        <time>2022-08-11T16:03:57Z</time>
      </trkpt>
      <trkpt lat="43.18649" lon="6.21199">
        <ele>80</ele>
        <time>2022-08-11T16:04:00Z</time>
      </trkpt>
      <trkpt lat="43.18684" lon="6.21167">
        <ele>78</ele>
        <time>2022-08-11T16:04:07Z</time>
      </trkpt>
      <trkpt lat="43.18757" lon="6.21103">
        <ele>77</ele>
        <time>2022-08-11T16:04:23Z</time>
      </trkpt>
      <trkpt lat="43.18845" lon="6.21061">
        <ele>80</ele>
        <time>2022-08-11T16:04:39Z</time>
      </trkpt>
      <trkpt lat="43.19022" lon="6.20985">
        <ele>82</ele>
        <time>2022-08-11T16:05:12Z</time>
      </trkpt>
      <trkpt lat="43.19083" lon="6.20955">
        <ele>84</ele>
        <time>2022-08-11T16:05:24Z</time>
      </trkpt>
      <trkpt lat="43.19151" lon="6.20918">
        <ele>83</ele>
        <time>2022-08-11T16:05:37Z</time>
      </trkpt>
      <trkpt lat="43.19169" lon="6.20912">
        <ele>83</ele>
        <time>2022-08-11T16:05:40Z</time>
      </trkpt>
      <trkpt lat="43.19193" lon="6.20908">
        <ele>83</ele>
        <time>2022-08-11T16:05:45Z</time>
      </trkpt>
      <trkpt lat="43.19334" lon="6.20913">
        <ele>84</ele>
        <time>2022-08-11T16:06:10Z</time>
      </trkpt>
      <trkpt lat="43.19357" lon="6.20917">
        <ele>85</ele>
        <time>2022-08-11T16:06:14Z</time>
      </trkpt>
      <trkpt lat="43.19534" lon="6.21006">
        <ele>89</ele>
        <time>2022-08-11T16:06:47Z</time>
      </trkpt>
      <trkpt lat="43.19564" lon="6.21011">
        <ele>91</ele>
        <time>2022-08-11T16:06:53Z</time>
      </trkpt>
      <trkpt lat="43.19649" lon="6.21019">
        <ele>94</ele>
        <time>2022-08-11T16:07:08Z</time>
      </trkpt>
      <trkpt lat="43.19667" lon="6.21022">
        <ele>95</ele>
        <time>2022-08-11T16:07:11Z</time>
      </trkpt>
      <trkpt lat="43.19718" lon="6.21044">
        <ele>95</ele>
        <time>2022-08-11T16:07:21Z</time>
      </trkpt>
      <trkpt lat="43.19787" lon="6.21078">
        <ele>93</ele>
        <time>2022-08-11T16:07:34Z</time>
      </trkpt>
      <trkpt lat="43.19825" lon="6.21102">
        <ele>94</ele>
        <time>2022-08-11T16:07:41Z</time>
      </trkpt>
      <trkpt lat="43.19894" lon="6.21155">
        <ele>95</ele>
        <time>2022-08-11T16:07:55Z</time>
      </trkpt>
      <trkpt lat="43.19926" lon="6.21187">
        <ele>94</ele>
        <time>2022-08-11T16:08:02Z</time>
      </trkpt>
      <trkpt lat="43.19957" lon="6.21226">
        <ele>94</ele>
        <time>2022-08-11T16:08:10Z</time>
      </trkpt>
      <trkpt lat="43.19974" lon="6.21251">
        <ele>94</ele>
        <time>2022-08-11T16:08:14Z</time>
      </trkpt>
      <trkpt lat="43.20005" lon="6.21295">
        <ele>95</ele>
        <time>2022-08-11T16:08:22Z</time>
      </trkpt>
      <trkpt lat="43.2002" lon="6.2131">
        <ele>96</ele>
        <time>2022-08-11T16:08:25Z</time>
      </trkpt>
      <trkpt lat="43.20031" lon="6.21313">
        <ele>96</ele>
        <time>2022-08-11T16:08:27Z</time>
      </trkpt>
      <trkpt lat="43.20064" lon="6.21315">
        <ele>97</ele>
        <time>2022-08-11T16:08:33Z</time>
      </trkpt>
      <trkpt lat="43.20149" lon="6.21327">
        <ele>103</ele>
        <time>2022-08-11T16:08:48Z</time>
      </trkpt>
      <trkpt lat="43.20233" lon="6.21323">
        <ele>106</ele>
        <time>2022-08-11T16:09:03Z</time>
      </trkpt>
      <trkpt lat="43.204" lon="6.21298">
        <ele>113</ele>
        <time>2022-08-11T16:09:33Z</time>
      </trkpt>
      <trkpt lat="43.20413" lon="6.21292">
        <ele>113</ele>
        <time>2022-08-11T16:09:36Z</time>
      </trkpt>
      <trkpt lat="43.20424" lon="6.21284">
        <ele>113</ele>
        <time>2022-08-11T16:09:38Z</time>
      </trkpt>
      <trkpt lat="43.20467" lon="6.21245">
        <ele>114</ele>
        <time>2022-08-11T16:09:47Z</time>
      </trkpt>
      <trkpt lat="43.20537" lon="6.21177">
        <ele>117</ele>
        <time>2022-08-11T16:10:02Z</time>
      </trkpt>
      <trkpt lat="43.20575" lon="6.2113">
        <ele>118</ele>
        <time>2022-08-11T16:10:12Z</time>
      </trkpt>
      <trkpt lat="43.20672" lon="6.21036">
        <ele>123</ele>
        <time>2022-08-11T16:10:33Z</time>
      </trkpt>
      <trkpt lat="43.20697" lon="6.21016">
        <ele>121</ele>
        <time>2022-08-11T16:10:38Z</time>
      </trkpt>
      <trkpt lat="43.20721" lon="6.21005">
        <ele>121</ele>
        <time>2022-08-11T16:10:42Z</time>
      </trkpt>
      <trkpt lat="43.20745" lon="6.20998">
        <ele>121</ele>
        <time>2022-08-11T16:10:47Z</time>
      </trkpt>
      <trkpt lat="43.20768" lon="6.20994">
        <ele>122</ele>
        <time>2022-08-11T16:10:51Z</time>
      </trkpt>
      <trkpt lat="43.20796" lon="6.21003">
        <ele>123</ele>
        <time>2022-08-11T16:10:56Z</time>
      </trkpt>
      <trkpt lat="43.20831" lon="6.21026">
        <ele>127</ele>
        <time>2022-08-11T16:11:03Z</time>
      </trkpt>
      <trkpt lat="43.20853" lon="6.21047">
        <ele>131</ele>
        <time>2022-08-11T16:11:08Z</time>
      </trkpt>
      <trkpt lat="43.20864" lon="6.21066">
        <ele>132</ele>
        <time>2022-08-11T16:11:11Z</time>
      </trkpt>
      <trkpt lat="43.20872" lon="6.21094">
        <ele>134</ele>
        <time>2022-08-11T16:11:15Z</time>
      </trkpt>
      <trkpt lat="43.2089" lon="6.21174">
        <ele>135</ele>
        <time>2022-08-11T16:11:25Z</time>
      </trkpt>
      <trkpt lat="43.20915" lon="6.21248">
        <ele>131</ele>
        <time>2022-08-11T16:11:36Z</time>
      </trkpt>
      <trkpt lat="43.20927" lon="6.21303">
        <ele>134</ele>
        <time>2022-08-11T16:11:44Z</time>
      </trkpt>
      <trkpt lat="43.20934" lon="6.21325">
        <ele>135</ele>
        <time>2022-08-11T16:11:47Z</time>
      </trkpt>
      <trkpt lat="43.2096" lon="6.21381">
        <ele>137</ele>
        <time>2022-08-11T16:11:55Z</time>
      </trkpt>
      <trkpt lat="43.20973" lon="6.21397">
        <ele>137</ele>
        <time>2022-08-11T16:11:58Z</time>
      </trkpt>
      <trkpt lat="43.20992" lon="6.21409">
        <ele>135</ele>
        <time>2022-08-11T16:12:02Z</time>
      </trkpt>
      <trkpt lat="43.21032" lon="6.21414">
        <ele>135</ele>
        <time>2022-08-11T16:12:09Z</time>
      </trkpt>
      <trkpt lat="43.2106" lon="6.21414">
        <ele>137</ele>
        <time>2022-08-11T16:12:14Z</time>
      </trkpt>
      <trkpt lat="43.2109" lon="6.21402">
        <ele>140</ele>
        <time>2022-08-11T16:12:20Z</time>
      </trkpt>
      <trkpt lat="43.21099" lon="6.21404">
        <ele>141</ele>
        <time>2022-08-11T16:12:21Z</time>
      </trkpt>
      <trkpt lat="43.21108" lon="6.21411">
        <ele>141</ele>
        <time>2022-08-11T16:12:23Z</time>
      </trkpt>
      <trkpt lat="43.21135" lon="6.21441">
        <ele>144</ele>
        <time>2022-08-11T16:12:29Z</time>
      </trkpt>
      <trkpt lat="43.21146" lon="6.21459">
        <ele>145</ele>
        <time>2022-08-11T16:12:32Z</time>
      </trkpt>
      <trkpt lat="43.21152" lon="6.21475">
        <ele>145</ele>
        <time>2022-08-11T16:12:35Z</time>
      </trkpt>
      <trkpt lat="43.21178" lon="6.21562">
        <ele>149</ele>
        <time>2022-08-11T16:12:47Z</time>
      </trkpt>
      <trkpt lat="43.21189" lon="6.21589">
        <ele>151</ele>
        <time>2022-08-11T16:12:51Z</time>
      </trkpt>
      <trkpt lat="43.212" lon="6.21608">
        <ele>154</ele>
        <time>2022-08-11T16:12:54Z</time>
      </trkpt>
      <trkpt lat="43.21265" lon="6.21684">
        <ele>155</ele>
        <time>2022-08-11T16:13:09Z</time>
      </trkpt>
      <trkpt lat="43.2127" lon="6.217">
        <ele>157</ele>
        <time>2022-08-11T16:13:12Z</time>
      </trkpt>
      <trkpt lat="43.21272" lon="6.21719">
        <ele>159</ele>
        <time>2022-08-11T16:13:14Z</time>
      </trkpt>
      <trkpt lat="43.21269" lon="6.21757">
        <ele>160</ele>
        <time>2022-08-11T16:13:19Z</time>
      </trkpt>
      <trkpt lat="43.21253" lon="6.21873">
        <ele>159</ele>
        <time>2022-08-11T16:13:34Z</time>
      </trkpt>
      <trkpt lat="43.21253" lon="6.21894">
        <ele>160</ele>
        <time>2022-08-11T16:13:37Z</time>
      </trkpt>
      <trkpt lat="43.21257" lon="6.21906">
        <ele>161</ele>
        <time>2022-08-11T16:13:39Z</time>
      </trkpt>
      <trkpt lat="43.21271" lon="6.21933">
        <ele>164</ele>
        <time>2022-08-11T16:13:43Z</time>
      </trkpt>
      <trkpt lat="43.2129" lon="6.21954">
        <ele>166</ele>
        <time>2022-08-11T16:13:47Z</time>
      </trkpt>
      <trkpt lat="43.21303" lon="6.21965">
        <ele>167</ele>
        <time>2022-08-11T16:13:50Z</time>
      </trkpt>
      <trkpt lat="43.21319" lon="6.21982">
        <ele>167</ele>
        <time>2022-08-11T16:13:54Z</time>
      </trkpt>
      <trkpt lat="43.21328" lon="6.21998">
        <ele>167</ele>
        <time>2022-08-11T16:13:56Z</time>
      </trkpt>
      <trkpt lat="43.21347" lon="6.22043">
        <ele>174</ele>
        <time>2022-08-11T16:14:03Z</time>
      </trkpt>
      <trkpt lat="43.21354" lon="6.22051">
        <ele>175</ele>
        <time>2022-08-11T16:14:05Z</time>
      </trkpt>
      <trkpt lat="43.21369" lon="6.22063">
        <ele>175</ele>
        <time>2022-08-11T16:14:08Z</time>
      </trkpt>
      <trkpt lat="43.21396" lon="6.22079">
        <ele>173</ele>
        <time>2022-08-11T16:14:13Z</time>
      </trkpt>
      <trkpt lat="43.21481" lon="6.22122">
        <ele>179</ele>
        <time>2022-08-11T16:14:29Z</time>
      </trkpt>
      <trkpt lat="43.21493" lon="6.22133">
        <ele>181</ele>
        <time>2022-08-11T16:14:32Z</time>
      </trkpt>
      <trkpt lat="43.21501" lon="6.22146">
        <ele>183</ele>
        <time>2022-08-11T16:14:34Z</time>
      </trkpt>
      <trkpt lat="43.21507" lon="6.22163">
        <ele>186</ele>
        <time>2022-08-11T16:14:36Z</time>
      </trkpt>
      <trkpt lat="43.21528" lon="6.22242">
        <ele>201</ele>
        <time>2022-08-11T16:14:47Z</time>
      </trkpt>
      <trkpt lat="43.21532" lon="6.22247">
        <ele>202</ele>
        <time>2022-08-11T16:14:48Z</time>
      </trkpt>
      <trkpt lat="43.21538" lon="6.22247">
        <ele>203</ele>
        <time>2022-08-11T16:14:49Z</time>
      </trkpt>
      <trkpt lat="43.21542" lon="6.22241">
        <ele>203</ele>
        <time>2022-08-11T16:14:50Z</time>
      </trkpt>
      <trkpt lat="43.21544" lon="6.22232">
        <ele>201</ele>
        <time>2022-08-11T16:14:52Z</time>
      </trkpt>
      <trkpt lat="43.21548" lon="6.22187">
        <ele>195</ele>
        <time>2022-08-11T16:14:57Z</time>
      </trkpt>
      <trkpt lat="43.21552" lon="6.22168">
        <ele>192</ele>
        <time>2022-08-11T16:15:00Z</time>
      </trkpt>
      <trkpt lat="43.21557" lon="6.22154">
        <ele>190</ele>
        <time>2022-08-11T16:15:02Z</time>
      </trkpt>
      <trkpt lat="43.21569" lon="6.22139">
        <ele>189</ele>
        <time>2022-08-11T16:15:05Z</time>
      </trkpt>
      <trkpt lat="43.21603" lon="6.22107">
        <ele>189</ele>
        <time>2022-08-11T16:15:12Z</time>
      </trkpt>
      <trkpt lat="43.21659" lon="6.22028">
        <ele>195</ele>
        <time>2022-08-11T16:15:27Z</time>
      </trkpt>
      <trkpt lat="43.21707" lon="6.21992">
        <ele>191</ele>
        <time>2022-08-11T16:15:36Z</time>
      </trkpt>
      <trkpt lat="43.2174" lon="6.21958">
        <ele>188</ele>
        <time>2022-08-11T16:15:44Z</time>
      </trkpt>
      <trkpt lat="43.21758" lon="6.21937">
        <ele>187</ele>
        <time>2022-08-11T16:15:48Z</time>
      </trkpt>
      <trkpt lat="43.21768" lon="6.21919">
        <ele>186</ele>
        <time>2022-08-11T16:15:51Z</time>
      </trkpt>
      <trkpt lat="43.21774" lon="6.21901">
        <ele>186</ele>
        <time>2022-08-11T16:15:53Z</time>
      </trkpt>
      <trkpt lat="43.21781" lon="6.21866">
        <ele>188</ele>
        <time>2022-08-11T16:15:58Z</time>
      </trkpt>
      <trkpt lat="43.21786" lon="6.21853">
        <ele>188</ele>
        <time>2022-08-11T16:16:00Z</time>
      </trkpt>
      <trkpt lat="43.21791" lon="6.21847">
        <ele>189</ele>
        <time>2022-08-11T16:16:01Z</time>
      </trkpt>
      <trkpt lat="43.21797" lon="6.21846">
        <ele>188</ele>
        <time>2022-08-11T16:16:02Z</time>
      </trkpt>
      <trkpt lat="43.21803" lon="6.21849">
        <ele>188</ele>
        <time>2022-08-11T16:16:03Z</time>
      </trkpt>
      <trkpt lat="43.21825" lon="6.2188">
        <ele>182</ele>
        <time>2022-08-11T16:16:09Z</time>
      </trkpt>
      <trkpt lat="43.21839" lon="6.21895">
        <ele>177</ele>
        <time>2022-08-11T16:16:12Z</time>
      </trkpt>
      <trkpt lat="43.21856" lon="6.21901">
        <ele>175</ele>
        <time>2022-08-11T16:16:15Z</time>
      </trkpt>
      <trkpt lat="43.21865" lon="6.219">
        <ele>174</ele>
        <time>2022-08-11T16:16:17Z</time>
      </trkpt>
      <trkpt lat="43.21882" lon="6.21889">
        <ele>175</ele>
        <time>2022-08-11T16:16:20Z</time>
      </trkpt>
      <trkpt lat="43.21894" lon="6.21878">
        <ele>176</ele>
        <time>2022-08-11T16:16:23Z</time>
      </trkpt>
      <trkpt lat="43.21908" lon="6.21855">
        <ele>179</ele>
        <time>2022-08-11T16:16:27Z</time>
      </trkpt>
      <trkpt lat="43.21914" lon="6.21848">
        <ele>180</ele>
        <time>2022-08-11T16:16:28Z</time>
      </trkpt>
      <trkpt lat="43.2192" lon="6.21846">
        <ele>180</ele>
        <time>2022-08-11T16:16:29Z</time>
      </trkpt>
      <trkpt lat="43.21925" lon="6.21847">
        <ele>180</ele>
        <time>2022-08-11T16:16:30Z</time>
      </trkpt>
      <trkpt lat="43.21929" lon="6.21852">
        <ele>179</ele>
        <time>2022-08-11T16:16:31Z</time>
      </trkpt>
      <trkpt lat="43.21946" lon="6.21913">
        <ele>169</ele>
        <time>2022-08-11T16:16:39Z</time>
      </trkpt>
      <trkpt lat="43.21953" lon="6.21929">
        <ele>167</ele>
        <time>2022-08-11T16:16:42Z</time>
      </trkpt>
      <trkpt lat="43.21962" lon="6.2194">
        <ele>166</ele>
        <time>2022-08-11T16:16:44Z</time>
      </trkpt>
      <trkpt lat="43.21974" lon="6.2195">
        <ele>165</ele>
        <time>2022-08-11T16:16:47Z</time>
      </trkpt>
      <trkpt lat="43.21996" lon="6.21963">
        <ele>163</ele>
        <time>2022-08-11T16:16:51Z</time>
      </trkpt>
      <trkpt lat="43.22026" lon="6.21975">
        <ele>158</ele>
        <time>2022-08-11T16:16:56Z</time>
      </trkpt>
      <trkpt lat="43.22056" lon="6.21981">
        <ele>154</ele>
        <time>2022-08-11T16:17:02Z</time>
      </trkpt>
      <trkpt lat="43.22068" lon="6.21979">
        <ele>153</ele>
        <time>2022-08-11T16:17:04Z</time>
      </trkpt>
      <trkpt lat="43.22081" lon="6.21971">
        <ele>153</ele>
        <time>2022-08-11T16:17:06Z</time>
      </trkpt>
      <trkpt lat="43.22089" lon="6.2196">
        <ele>153</ele>
        <time>2022-08-11T16:17:08Z</time>
      </trkpt>
      <trkpt lat="43.22096" lon="6.21939">
        <ele>153</ele>
        <time>2022-08-11T16:17:11Z</time>
      </trkpt>
      <trkpt lat="43.22103" lon="6.21899">
        <ele>155</ele>
        <time>2022-08-11T16:17:17Z</time>
      </trkpt>
      <trkpt lat="43.22106" lon="6.21896">
        <ele>155</ele>
        <time>2022-08-11T16:17:17Z</time>
      </trkpt>
      <trkpt lat="43.22111" lon="6.21897">
        <ele>155</ele>
        <time>2022-08-11T16:17:18Z</time>
      </trkpt>
      <trkpt lat="43.22117" lon="6.219">
        <ele>154</ele>
        <time>2022-08-11T16:17:19Z</time>
      </trkpt>
      <trkpt lat="43.22122" lon="6.21921">
        <ele>152</ele>
        <time>2022-08-11T16:17:22Z</time>
      </trkpt>
      <trkpt lat="43.22121" lon="6.2194">
        <ele>150</ele>
        <time>2022-08-11T16:17:25Z</time>
      </trkpt>
      <trkpt lat="43.22118" lon="6.21956">
        <ele>149</ele>
        <time>2022-08-11T16:17:27Z</time>
      </trkpt>
      <trkpt lat="43.22114" lon="6.21971">
        <ele>148</ele>
        <time>2022-08-11T16:17:29Z</time>
      </trkpt>
      <trkpt lat="43.22105" lon="6.21991">
        <ele>148</ele>
        <time>2022-08-11T16:17:32Z</time>
      </trkpt>
      <trkpt lat="43.22094" lon="6.22009">
        <ele>148</ele>
        <time>2022-08-11T16:17:35Z</time>
      </trkpt>
      <trkpt lat="43.22085" lon="6.22018">
        <ele>148</ele>
        <time>2022-08-11T16:17:37Z</time>
      </trkpt>
      <trkpt lat="43.22076" lon="6.22022">
        <ele>148</ele>
        <time>2022-08-11T16:17:39Z</time>
      </trkpt>
      <trkpt lat="43.22057" lon="6.22027">
        <ele>150</ele>
        <time>2022-08-11T16:17:42Z</time>
      </trkpt>
      <trkpt lat="43.22051" lon="6.22034">
        <ele>150</ele>
        <time>2022-08-11T16:17:44Z</time>
      </trkpt>
      <trkpt lat="43.2205" lon="6.22039">
        <ele>149</ele>
        <time>2022-08-11T16:17:44Z</time>
      </trkpt>
      <trkpt lat="43.22052" lon="6.22045">
        <ele>149</ele>
        <time>2022-08-11T16:17:45Z</time>
      </trkpt>
      <trkpt lat="43.22057" lon="6.22049">
        <ele>148</ele>
        <time>2022-08-11T16:17:46Z</time>
      </trkpt>
      <trkpt lat="43.22063" lon="6.22051">
        <ele>147</ele>
        <time>2022-08-11T16:17:47Z</time>
      </trkpt>
      <trkpt lat="43.22079" lon="6.22047">
        <ele>145</ele>
        <time>2022-08-11T16:17:50Z</time>
      </trkpt>
      <trkpt lat="43.22102" lon="6.22036">
        <ele>145</ele>
        <time>2022-08-11T16:17:55Z</time>
      </trkpt>
      <trkpt lat="43.22131" lon="6.22028">
        <ele>143</ele>
        <time>2022-08-11T16:18:00Z</time>
      </trkpt>
      <trkpt lat="43.22201" lon="6.2202">
        <ele>139</ele>
        <time>2022-08-11T16:18:12Z</time>
      </trkpt>
      <trkpt lat="43.22241" lon="6.22028">
        <ele>137</ele>
        <time>2022-08-11T16:18:19Z</time>
      </trkpt>
      <trkpt lat="43.22299" lon="6.22052">
        <ele>137</ele>
        <time>2022-08-11T16:18:30Z</time>
      </trkpt>
      <trkpt lat="43.22371" lon="6.22065">
        <ele>135</ele>
        <time>2022-08-11T16:18:43Z</time>
      </trkpt>
      <trkpt lat="43.22421" lon="6.22099">
        <ele>133</ele>
        <time>2022-08-11T16:18:53Z</time>
      </trkpt>
      <trkpt lat="43.22465" lon="6.2215">
        <ele>132</ele>
        <time>2022-08-11T16:19:03Z</time>
      </trkpt>
      <trkpt lat="43.22492" lon="6.22167">
        <ele>128</ele>
        <time>2022-08-11T16:19:09Z</time>
      </trkpt>
      <trkpt lat="43.2252" lon="6.22173">
        <ele>126</ele>
        <time>2022-08-11T16:19:14Z</time>
      </trkpt>
      <trkpt lat="43.22554" lon="6.22175">
        <ele>125</ele>
        <time>2022-08-11T16:19:20Z</time>
      </trkpt>
      <trkpt lat="43.22572" lon="6.22165">
        <ele>124</ele>
        <time>2022-08-11T16:19:23Z</time>
      </trkpt>
      <trkpt lat="43.22602" lon="6.22123">
        <ele>127</ele>
        <time>2022-08-11T16:19:31Z</time>
      </trkpt>
      <trkpt lat="43.22615" lon="6.22096">
        <ele>128</ele>
        <time>2022-08-11T16:19:35Z</time>
      </trkpt>
      <trkpt lat="43.22629" lon="6.22062">
        <ele>127</ele>
        <time>2022-08-11T16:19:40Z</time>
      </trkpt>
      <trkpt lat="43.22641" lon="6.22041">
        <ele>126</ele>
        <time>2022-08-11T16:19:44Z</time>
      </trkpt>
      <trkpt lat="43.22663" lon="6.22016">
        <ele>122</ele>
        <time>2022-08-11T16:19:49Z</time>
      </trkpt>
      <trkpt lat="43.22716" lon="6.2197">
        <ele>122</ele>
        <time>2022-08-11T16:20:00Z</time>
      </trkpt>
      <trkpt lat="43.22746" lon="6.2194">
        <ele>120</ele>
        <time>2022-08-11T16:20:06Z</time>
      </trkpt>
      <trkpt lat="43.22772" lon="6.21881">
        <ele>120</ele>
        <time>2022-08-11T16:20:15Z</time>
      </trkpt>
      <trkpt lat="43.22809" lon="6.21822">
        <ele>119</ele>
        <time>2022-08-11T16:20:25Z</time>
      </trkpt>
      <trkpt lat="43.22835" lon="6.21774">
        <ele>115</ele>
        <time>2022-08-11T16:20:33Z</time>
      </trkpt>
      <trkpt lat="43.22851" lon="6.2175">
        <ele>115</ele>
        <time>2022-08-11T16:20:37Z</time>
      </trkpt>
      <trkpt lat="43.22862" lon="6.21722">
        <ele>116</ele>
        <time>2022-08-11T16:20:42Z</time>
      </trkpt>
      <trkpt lat="43.22932" lon="6.21522">
        <ele>110</ele>
        <time>2022-08-11T16:21:10Z</time>
      </trkpt>
      <trkpt lat="43.22982" lon="6.21449">
        <ele>109</ele>
        <time>2022-08-11T16:21:23Z</time>
      </trkpt>
      <trkpt lat="43.23" lon="6.21416">
        <ele>107</ele>
        <time>2022-08-11T16:21:29Z</time>
      </trkpt>
      <trkpt lat="43.23021" lon="6.21374">
        <ele>108</ele>
        <time>2022-08-11T16:21:35Z</time>
      </trkpt>
      <trkpt lat="43.23044" lon="6.21342">
        <ele>107</ele>
        <time>2022-08-11T16:21:41Z</time>
      </trkpt>
      <trkpt lat="43.23076" lon="6.21312">
        <ele>105</ele>
        <time>2022-08-11T16:21:48Z</time>
      </trkpt>
      <trkpt lat="43.23107" lon="6.21295">
        <ele>105</ele>
        <time>2022-08-11T16:21:54Z</time>
      </trkpt>
      <trkpt lat="43.23357" lon="6.21204">
        <ele>97</ele>
        <time>2022-08-11T16:22:40Z</time>
      </trkpt>
      <trkpt lat="43.23388" lon="6.21196">
        <ele>95</ele>
        <time>2022-08-11T16:22:46Z</time>
      </trkpt>
      <trkpt lat="43.23436" lon="6.21201">
        <ele>92</ele>
        <time>2022-08-11T16:22:54Z</time>
      </trkpt>
      <trkpt lat="43.23436" lon="6.21199">
        <ele>92</ele>
        <time>2022-08-11T16:22:54Z</time>
      </trkpt>
      <trkpt lat="43.2343" lon="6.21116">
        <ele>91</ele>
        <time>2022-08-11T16:23:05Z</time>
      </trkpt>
      <trkpt lat="43.23397" lon="6.20949">
        <ele>94</ele>
        <time>2022-08-11T16:23:28Z</time>
      </trkpt>
      <trkpt lat="43.23378" lon="6.20816">
        <ele>94</ele>
        <time>2022-08-11T16:23:45Z</time>
      </trkpt>
      <trkpt lat="43.23367" lon="6.20754">
        <ele>94</ele>
        <time>2022-08-11T16:23:53Z</time>
      </trkpt>
      <trkpt lat="43.23363" lon="6.20726">
        <ele>95</ele>
        <time>2022-08-11T16:23:57Z</time>
      </trkpt>
      <trkpt lat="43.2336" lon="6.20656">
        <ele>94</ele>
        <time>2022-08-11T16:24:06Z</time>
      </trkpt>
      <trkpt lat="43.23349" lon="6.20569">
        <ele>93</ele>
        <time>2022-08-11T16:24:18Z</time>
      </trkpt>
      <trkpt lat="43.23319" lon="6.20379">
        <ele>88</ele>
        <time>2022-08-11T16:24:43Z</time>
      </trkpt>
      <trkpt lat="43.23301" lon="6.203">
        <ele>86</ele>
        <time>2022-08-11T16:24:54Z</time>
      </trkpt>
      <trkpt lat="43.23264" lon="6.20123">
        <ele>86</ele>
        <time>2022-08-11T16:25:17Z</time>
      </trkpt>
      <trkpt lat="43.23261" lon="6.20097">
        <ele>86</ele>
        <time>2022-08-11T16:25:21Z</time>
      </trkpt>
      <trkpt lat="43.23259" lon="6.20042">
        <ele>86</ele>
        <time>2022-08-11T16:25:28Z</time>
      </trkpt>
      <trkpt lat="43.23264" lon="6.199">
        <ele>85</ele>
        <time>2022-08-11T16:25:46Z</time>
      </trkpt>
      <trkpt lat="43.23267" lon="6.19873">
        <ele>85</ele>
        <time>2022-08-11T16:25:50Z</time>
      </trkpt>
      <trkpt lat="43.23289" lon="6.19746">
        <ele>86</ele>
        <time>2022-08-11T16:26:07Z</time>
      </trkpt>
      <trkpt lat="43.23306" lon="6.19673">
        <ele>84</ele>
        <time>2022-08-11T16:26:17Z</time>
      </trkpt>
      <trkpt lat="43.23319" lon="6.19567">
        <ele>85</ele>
        <time>2022-08-11T16:26:31Z</time>
      </trkpt>
      <trkpt lat="43.2332" lon="6.1954">
        <ele>85</ele>
        <time>2022-08-11T16:26:34Z</time>
      </trkpt>
      <trkpt lat="43.23319" lon="6.19513">
        <ele>85</ele>
        <time>2022-08-11T16:26:38Z</time>
      </trkpt>
      <trkpt lat="43.23312" lon="6.19436">
        <ele>83</ele>
        <time>2022-08-11T16:26:48Z</time>
      </trkpt>
      <trkpt lat="43.23311" lon="6.19301">
        <ele>82</ele>
        <time>2022-08-11T16:27:05Z</time>
      </trkpt>
      <trkpt lat="43.23314" lon="6.19274">
        <ele>82</ele>
        <time>2022-08-11T16:27:09Z</time>
      </trkpt>
      <trkpt lat="43.23318" lon="6.19247">
        <ele>82</ele>
        <time>2022-08-11T16:27:12Z</time>
      </trkpt>
      <trkpt lat="43.23343" lon="6.19139">
        <ele>81</ele>
        <time>2022-08-11T16:27:27Z</time>
      </trkpt>
      <trkpt lat="43.23346" lon="6.19112">
        <ele>80</ele>
        <time>2022-08-11T16:27:31Z</time>
      </trkpt>
      <trkpt lat="43.23354" lon="6.19001">
        <ele>80</ele>
        <time>2022-08-11T16:27:45Z</time>
      </trkpt>
      <trkpt lat="43.23354" lon="6.18975">
        <ele>80</ele>
        <time>2022-08-11T16:27:49Z</time>
      </trkpt>
      <trkpt lat="43.23352" lon="6.18949">
        <ele>80</ele>
        <time>2022-08-11T16:27:52Z</time>
      </trkpt>
      <trkpt lat="43.23344" lon="6.18898">
        <ele>81</ele>
        <time>2022-08-11T16:27:59Z</time>
      </trkpt>
      <trkpt lat="43.23336" lon="6.18857">
        <ele>80</ele>
        <time>2022-08-11T16:28:04Z</time>
      </trkpt>
      <trkpt lat="43.23328" lon="6.18821">
        <ele>80</ele>
        <time>2022-08-11T16:28:09Z</time>
      </trkpt>
      <trkpt lat="43.2332" lon="6.18796">
        <ele>79</ele>
        <time>2022-08-11T16:28:13Z</time>
      </trkpt>
      <trkpt lat="43.23258" lon="6.18641">
        <ele>78</ele>
        <time>2022-08-11T16:28:36Z</time>
      </trkpt>
      <trkpt lat="43.2324" lon="6.18588">
        <ele>77</ele>
        <time>2022-08-11T16:28:43Z</time>
      </trkpt>
      <trkpt lat="43.23232" lon="6.18562">
        <ele>77</ele>
        <time>2022-08-11T16:28:47Z</time>
      </trkpt>
      <trkpt lat="43.23227" lon="6.18536">
        <ele>77</ele>
        <time>2022-08-11T16:28:50Z</time>
      </trkpt>
      <trkpt lat="43.23223" lon="6.18472">
        <ele>77</ele>
        <time>2022-08-11T16:28:59Z</time>
      </trkpt>
      <trkpt lat="43.2322" lon="6.18444">
        <ele>76</ele>
        <time>2022-08-11T16:29:02Z</time>
      </trkpt>
      <trkpt lat="43.23206" lon="6.18375">
        <ele>77</ele>
        <time>2022-08-11T16:29:12Z</time>
      </trkpt>
      <trkpt lat="43.2319" lon="6.18313">
        <ele>77</ele>
        <time>2022-08-11T16:29:20Z</time>
      </trkpt>
      <trkpt lat="43.23161" lon="6.1825">
        <ele>77</ele>
        <time>2022-08-11T16:29:30Z</time>
      </trkpt>
      <trkpt lat="43.23154" lon="6.18226">
        <ele>77</ele>
        <time>2022-08-11T16:29:33Z</time>
      </trkpt>
      <trkpt lat="43.23151" lon="6.18202">
        <ele>77</ele>
        <time>2022-08-11T16:29:36Z</time>
      </trkpt>
      <trkpt lat="43.23152" lon="6.18178">
        <ele>76</ele>
        <time>2022-08-11T16:29:39Z</time>
      </trkpt>
      <trkpt lat="43.23155" lon="6.18152">
        <ele>76</ele>
        <time>2022-08-11T16:29:43Z</time>
      </trkpt>
      <trkpt lat="43.23165" lon="6.18103">
        <ele>76</ele>
        <time>2022-08-11T16:29:49Z</time>
      </trkpt>
      <trkpt lat="43.23188" lon="6.18019">
        <ele>76</ele>
        <time>2022-08-11T16:30:01Z</time>
      </trkpt>
      <trkpt lat="43.23227" lon="6.17909">
        <ele>74</ele>
        <time>2022-08-11T16:30:17Z</time>
      </trkpt>
      <trkpt lat="43.23233" lon="6.17885">
        <ele>73</ele>
        <time>2022-08-11T16:30:20Z</time>
      </trkpt>
      <trkpt lat="43.23237" lon="6.17864">
        <ele>73</ele>
        <time>2022-08-11T16:30:23Z</time>
      </trkpt>
      <trkpt lat="43.23239" lon="6.17837">
        <ele>72</ele>
        <time>2022-08-11T16:30:26Z</time>
      </trkpt>
      <trkpt lat="43.2324" lon="6.1766">
        <ele>71</ele>
        <time>2022-08-11T16:30:49Z</time>
      </trkpt>
      <trkpt lat="43.2325" lon="6.17535">
        <ele>70</ele>
        <time>2022-08-11T16:31:06Z</time>
      </trkpt>
      <trkpt lat="43.2325" lon="6.17472">
        <ele>70</ele>
        <time>2022-08-11T16:31:14Z</time>
      </trkpt>
      <trkpt lat="43.23244" lon="6.1741">
        <ele>70</ele>
        <time>2022-08-11T16:31:22Z</time>
      </trkpt>
      <trkpt lat="43.23219" lon="6.17218">
        <ele>76</ele>
        <time>2022-08-11T16:31:47Z</time>
      </trkpt>
      <trkpt lat="43.2322" lon="6.17197">
        <ele>78</ele>
        <time>2022-08-11T16:31:50Z</time>
      </trkpt>
      <trkpt lat="43.23224" lon="6.17176">
        <ele>79</ele>
        <time>2022-08-11T16:31:53Z</time>
      </trkpt>
      <trkpt lat="43.23232" lon="6.17154">
        <ele>80</ele>
        <time>2022-08-11T16:31:56Z</time>
      </trkpt>
      <trkpt lat="43.23262" lon="6.17084">
        <ele>81</ele>
        <time>2022-08-11T16:32:07Z</time>
      </trkpt>
      <trkpt lat="43.23286" lon="6.17045">
        <ele>82</ele>
        <time>2022-08-11T16:32:13Z</time>
      </trkpt>
      <trkpt lat="43.23332" lon="6.16981">
        <ele>78</ele>
        <time>2022-08-11T16:32:25Z</time>
      </trkpt>
      <trkpt lat="43.23347" lon="6.16954">
        <ele>80</ele>
        <time>2022-08-11T16:32:29Z</time>
      </trkpt>
      <trkpt lat="43.23371" lon="6.169">
        <ele>80</ele>
        <time>2022-08-11T16:32:37Z</time>
      </trkpt>
      <trkpt lat="43.23396" lon="6.16819">
        <ele>78</ele>
        <time>2022-08-11T16:32:49Z</time>
      </trkpt>
      <trkpt lat="43.23412" lon="6.16754">
        <ele>77</ele>
        <time>2022-08-11T16:32:58Z</time>
      </trkpt>
      <trkpt lat="43.23418" lon="6.16696">
        <ele>77</ele>
        <time>2022-08-11T16:33:05Z</time>
      </trkpt>
      <trkpt lat="43.23419" lon="6.16658">
        <ele>77</ele>
        <time>2022-08-11T16:33:10Z</time>
      </trkpt>
      <trkpt lat="43.23419" lon="6.1659">
        <ele>78</ele>
        <time>2022-08-11T16:33:19Z</time>
      </trkpt>
      <trkpt lat="43.23417" lon="6.16561">
        <ele>79</ele>
        <time>2022-08-11T16:33:23Z</time>
      </trkpt>
      <trkpt lat="43.23392" lon="6.16374">
        <ele>84</ele>
        <time>2022-08-11T16:33:47Z</time>
      </trkpt>
      <trkpt lat="43.23376" lon="6.16235">
        <ele>84</ele>
        <time>2022-08-11T16:34:06Z</time>
      </trkpt>
      <trkpt lat="43.23334" lon="6.16037">
        <ele>81</ele>
        <time>2022-08-11T16:34:32Z</time>
      </trkpt>
      <trkpt lat="43.2331" lon="6.15939">
        <ele>80</ele>
        <time>2022-08-11T16:34:46Z</time>
      </trkpt>
      <trkpt lat="43.233" lon="6.15903">
        <ele>80</ele>
        <time>2022-08-11T16:34:51Z</time>
      </trkpt>
      <trkpt lat="43.23282" lon="6.15854">
        <ele>80</ele>
        <time>2022-08-11T16:34:58Z</time>
      </trkpt>
      <trkpt lat="43.23253" lon="6.15761">
        <ele>77</ele>
        <time>2022-08-11T16:35:11Z</time>
      </trkpt>
      <trkpt lat="43.23245" lon="6.15717">
        <ele>77</ele>
        <time>2022-08-11T16:35:17Z</time>
      </trkpt>
      <trkpt lat="43.23226" lon="6.15599">
        <ele>76</ele>
        <time>2022-08-11T16:35:33Z</time>
      </trkpt>
      <trkpt lat="43.23217" lon="6.15473">
        <ele>76</ele>
        <time>2022-08-11T16:35:49Z</time>
      </trkpt>
      <trkpt lat="43.23213" lon="6.1544">
        <ele>76</ele>
        <time>2022-08-11T16:35:53Z</time>
      </trkpt>
      <trkpt lat="43.23154" lon="6.15081">
        <ele>78</ele>
        <time>2022-08-11T16:36:41Z</time>
      </trkpt>
      <trkpt lat="43.2315" lon="6.15064">
        <ele>79</ele>
        <time>2022-08-11T16:36:43Z</time>
      </trkpt>
      <trkpt lat="43.23128" lon="6.15007">
        <ele>81</ele>
        <time>2022-08-11T16:36:52Z</time>
      </trkpt>
      <trkpt lat="43.23124" lon="6.14979">
        <ele>80</ele>
        <time>2022-08-11T16:36:55Z</time>
      </trkpt>
      <trkpt lat="43.23124" lon="6.14968">
        <ele>80</ele>
        <time>2022-08-11T16:36:57Z</time>
      </trkpt>
      <trkpt lat="43.23128" lon="6.14961">
        <ele>79</ele>
        <time>2022-08-11T16:36:58Z</time>
      </trkpt>
      <trkpt lat="43.23129" lon="6.14952">
        <ele>79</ele>
        <time>2022-08-11T16:36:59Z</time>
      </trkpt>
      <trkpt lat="43.23127" lon="6.14948">
        <ele>79</ele>
        <time>2022-08-11T16:37:00Z</time>
      </trkpt>
      <trkpt lat="43.23125" lon="6.14945">
        <ele>79</ele>
        <time>2022-08-11T16:37:00Z</time>
      </trkpt>
      <trkpt lat="43.23119" lon="6.14943">
        <ele>79</ele>
        <time>2022-08-11T16:37:01Z</time>
      </trkpt>
      <trkpt lat="43.23107" lon="6.14934">
        <ele>80</ele>
        <time>2022-08-11T16:37:04Z</time>
      </trkpt>
      <trkpt lat="43.23088" lon="6.1491">
        <ele>81</ele>
        <time>2022-08-11T16:37:08Z</time>
      </trkpt>
      <trkpt lat="43.23103" lon="6.1494">
        <ele>81</ele>
        <time>2022-08-11T16:37:13Z</time>
      </trkpt>
      <trkpt lat="43.2311" lon="6.14953">
        <ele>81</ele>
        <time>2022-08-11T16:37:15Z</time>
      </trkpt>
      <trkpt lat="43.2311" lon="6.14961">
        <ele>81</ele>
        <time>2022-08-11T16:37:16Z</time>
      </trkpt>
      <trkpt lat="43.23114" lon="6.14967">
        <ele>81</ele>
        <time>2022-08-11T16:37:17Z</time>
      </trkpt>
      <trkpt lat="43.23121" lon="6.14969">
        <ele>80</ele>
        <time>2022-08-11T16:37:19Z</time>
      </trkpt>
      <trkpt lat="43.23124" lon="6.14968">
        <ele>80</ele>
        <time>2022-08-11T16:37:19Z</time>
      </trkpt>
      <trkpt lat="43.23128" lon="6.14961">
        <ele>79</ele>
        <time>2022-08-11T16:37:20Z</time>
      </trkpt>
      <trkpt lat="43.23158" lon="6.14948">
        <ele>76</ele>
        <time>2022-08-11T16:37:26Z</time>
      </trkpt>
      <trkpt lat="43.23166" lon="6.14947">
        <ele>76</ele>
        <time>2022-08-11T16:37:27Z</time>
      </trkpt>
      <trkpt lat="43.23557" lon="6.1502">
        <ele>63</ele>
        <time>2022-08-11T16:38:38Z</time>
      </trkpt>
      <trkpt lat="43.23645" lon="6.15035">
        <ele>63</ele>
        <time>2022-08-11T16:38:53Z</time>
      </trkpt>
      <trkpt lat="43.23671" lon="6.15028">
        <ele>63</ele>
        <time>2022-08-11T16:38:58Z</time>
      </trkpt>
      <trkpt lat="43.23683" lon="6.15015">
        <ele>62</ele>
        <time>2022-08-11T16:39:01Z</time>
      </trkpt>
      <trkpt lat="43.23702" lon="6.14988">
        <ele>61</ele>
        <time>2022-08-11T16:39:06Z</time>
      </trkpt>
      <trkpt lat="43.23721" lon="6.14968">
        <ele>60</ele>
        <time>2022-08-11T16:39:10Z</time>
      </trkpt>
      <trkpt lat="43.23737" lon="6.14966">
        <ele>60</ele>
        <time>2022-08-11T16:39:13Z</time>
      </trkpt>
      <trkpt lat="43.23798" lon="6.15004">
        <ele>60</ele>
        <time>2022-08-11T16:39:25Z</time>
      </trkpt>
      <trkpt lat="43.23841" lon="6.15027">
        <ele>61</ele>
        <time>2022-08-11T16:39:33Z</time>
      </trkpt>
      <trkpt lat="43.24037" lon="6.15081">
        <ele>62</ele>
        <time>2022-08-11T16:40:08Z</time>
      </trkpt>
      <trkpt lat="43.24105" lon="6.15102">
        <ele>63</ele>
        <time>2022-08-11T16:40:21Z</time>
      </trkpt>
      <trkpt lat="43.24597" lon="6.15125">
        <ele>69</ele>
        <time>2022-08-11T16:41:48Z</time>
      </trkpt>
      <trkpt lat="43.24607" lon="6.15123">
        <ele>69</ele>
        <time>2022-08-11T16:41:50Z</time>
      </trkpt>
      <trkpt lat="43.24626" lon="6.15116">
        <ele>69</ele>
        <time>2022-08-11T16:41:54Z</time>
      </trkpt>
      <trkpt lat="43.24661" lon="6.15095">
        <ele>69</ele>
        <time>2022-08-11T16:42:01Z</time>
      </trkpt>
      <trkpt lat="43.24671" lon="6.15091">
        <ele>69</ele>
        <time>2022-08-11T16:42:02Z</time>
      </trkpt>
      <trkpt lat="43.24695" lon="6.15086">
        <ele>69</ele>
        <time>2022-08-11T16:42:07Z</time>
      </trkpt>
      <trkpt lat="43.24719" lon="6.15088">
        <ele>70</ele>
        <time>2022-08-11T16:42:11Z</time>
      </trkpt>
      <trkpt lat="43.24738" lon="6.15092">
        <ele>70</ele>
        <time>2022-08-11T16:42:14Z</time>
      </trkpt>
      <trkpt lat="43.2482" lon="6.15124">
        <ele>71</ele>
        <time>2022-08-11T16:42:30Z</time>
      </trkpt>
      <trkpt lat="43.24844" lon="6.15131">
        <ele>72</ele>
        <time>2022-08-11T16:42:34Z</time>
      </trkpt>
      <trkpt lat="43.24904" lon="6.15128">
        <ele>74</ele>
        <time>2022-08-11T16:42:45Z</time>
      </trkpt>
      <trkpt lat="43.24929" lon="6.15117">
        <ele>75</ele>
        <time>2022-08-11T16:42:49Z</time>
      </trkpt>
      <trkpt lat="43.2494" lon="6.15101">
        <ele>75</ele>
        <time>2022-08-11T16:42:52Z</time>
      </trkpt>
      <trkpt lat="43.24968" lon="6.15074">
        <ele>75</ele>
        <time>2022-08-11T16:42:58Z</time>
      </trkpt>
      <trkpt lat="43.24992" lon="6.15061">
        <ele>75</ele>
        <time>2022-08-11T16:43:03Z</time>
      </trkpt>
      <trkpt lat="43.25014" lon="6.15058">
        <ele>76</ele>
        <time>2022-08-11T16:43:07Z</time>
      </trkpt>
      <trkpt lat="43.25048" lon="6.1506">
        <ele>76</ele>
        <time>2022-08-11T16:43:13Z</time>
      </trkpt>
      <trkpt lat="43.2511" lon="6.15082">
        <ele>77</ele>
        <time>2022-08-11T16:43:24Z</time>
      </trkpt>
      <trkpt lat="43.2516" lon="6.15103">
        <ele>79</ele>
        <time>2022-08-11T16:43:34Z</time>
      </trkpt>
      <trkpt lat="43.25177" lon="6.15107">
        <ele>79</ele>
        <time>2022-08-11T16:43:37Z</time>
      </trkpt>
      <trkpt lat="43.25208" lon="6.1511">
        <ele>82</ele>
        <time>2022-08-11T16:43:42Z</time>
      </trkpt>
      <trkpt lat="43.2529" lon="6.15096">
        <ele>83</ele>
        <time>2022-08-11T16:43:57Z</time>
      </trkpt>
      <trkpt lat="43.25316" lon="6.15097">
        <ele>83</ele>
        <time>2022-08-11T16:44:01Z</time>
      </trkpt>
      <trkpt lat="43.2534" lon="6.15106">
        <ele>84</ele>
        <time>2022-08-11T16:44:06Z</time>
      </trkpt>
      <trkpt lat="43.25365" lon="6.15128">
        <ele>86</ele>
        <time>2022-08-11T16:44:11Z</time>
      </trkpt>
      <trkpt lat="43.25385" lon="6.15147">
        <ele>86</ele>
        <time>2022-08-11T16:44:16Z</time>
      </trkpt>
      <trkpt lat="43.25435" lon="6.15172">
        <ele>84</ele>
        <time>2022-08-11T16:44:25Z</time>
      </trkpt>
      <trkpt lat="43.25569" lon="6.15226">
        <ele>85</ele>
        <time>2022-08-11T16:44:50Z</time>
      </trkpt>
      <trkpt lat="43.2581" lon="6.15253">
        <ele>91</ele>
        <time>2022-08-11T16:45:33Z</time>
      </trkpt>
      <trkpt lat="43.25831" lon="6.15257">
        <ele>92</ele>
        <time>2022-08-11T16:45:37Z</time>
      </trkpt>
      <trkpt lat="43.25982" lon="6.15375">
        <ele>95</ele>
        <time>2022-08-11T16:46:08Z</time>
      </trkpt>
      <trkpt lat="43.26029" lon="6.15407">
        <ele>96</ele>
        <time>2022-08-11T16:46:17Z</time>
      </trkpt>
      <trkpt lat="43.26064" lon="6.15424">
        <ele>97</ele>
        <time>2022-08-11T16:46:23Z</time>
      </trkpt>
      <trkpt lat="43.261" lon="6.15429">
        <ele>98</ele>
        <time>2022-08-11T16:46:30Z</time>
      </trkpt>
      <trkpt lat="43.26134" lon="6.15423">
        <ele>99</ele>
        <time>2022-08-11T16:46:36Z</time>
      </trkpt>
      <trkpt lat="43.2618" lon="6.15405">
        <ele>99</ele>
        <time>2022-08-11T16:46:45Z</time>
      </trkpt>
      <trkpt lat="43.26554" lon="6.15224">
        <ele>109</ele>
        <time>2022-08-11T16:47:55Z</time>
      </trkpt>
      <trkpt lat="43.2657" lon="6.15217">
        <ele>109</ele>
        <time>2022-08-11T16:47:58Z</time>
      </trkpt>
      <trkpt lat="43.26626" lon="6.15202">
        <ele>111</ele>
        <time>2022-08-11T16:48:08Z</time>
      </trkpt>
      <trkpt lat="43.26684" lon="6.15181">
        <ele>112</ele>
        <time>2022-08-11T16:48:19Z</time>
      </trkpt>
      <trkpt lat="43.26722" lon="6.15165">
        <ele>114</ele>
        <time>2022-08-11T16:48:26Z</time>
      </trkpt>
      <trkpt lat="43.2687" lon="6.15095">
        <ele>116</ele>
        <time>2022-08-11T16:48:54Z</time>
      </trkpt>
      <trkpt lat="43.26884" lon="6.15086">
        <ele>116</ele>
        <time>2022-08-11T16:48:57Z</time>
      </trkpt>
      <trkpt lat="43.26969" lon="6.14995">
        <ele>120</ele>
        <time>2022-08-11T16:49:16Z</time>
      </trkpt>
      <trkpt lat="43.27006" lon="6.14974">
        <ele>121</ele>
        <time>2022-08-11T16:49:23Z</time>
      </trkpt>
      <trkpt lat="43.27212" lon="6.14879">
        <ele>125</ele>
        <time>2022-08-11T16:50:02Z</time>
      </trkpt>
      <trkpt lat="43.27256" lon="6.14867">
        <ele>126</ele>
        <time>2022-08-11T16:50:10Z</time>
      </trkpt>
      <trkpt lat="43.27415" lon="6.14836">
        <ele>130</ele>
        <time>2022-08-11T16:50:38Z</time>
      </trkpt>
      <trkpt lat="43.27583" lon="6.14768">
        <ele>136</ele>
        <time>2022-08-11T16:51:09Z</time>
      </trkpt>
      <trkpt lat="43.2761" lon="6.14752">
        <ele>137</ele>
        <time>2022-08-11T16:51:14Z</time>
      </trkpt>
      <trkpt lat="43.277" lon="6.14659">
        <ele>139</ele>
        <time>2022-08-11T16:51:35Z</time>
      </trkpt>
      <trkpt lat="43.27756" lon="6.14581">
        <ele>140</ele>
        <time>2022-08-11T16:51:49Z</time>
      </trkpt>
      <trkpt lat="43.27886" lon="6.14394">
        <ele>147</ele>
        <time>2022-08-11T16:52:22Z</time>
      </trkpt>
      <trkpt lat="43.27926" lon="6.14362">
        <ele>148</ele>
        <time>2022-08-11T16:52:30Z</time>
      </trkpt>
      <trkpt lat="43.27961" lon="6.14347">
        <ele>149</ele>
        <time>2022-08-11T16:52:37Z</time>
      </trkpt>
      <trkpt lat="43.28001" lon="6.14318">
        <ele>150</ele>
        <time>2022-08-11T16:52:45Z</time>
      </trkpt>
      <trkpt lat="43.28038" lon="6.1428">
        <ele>151</ele>
        <time>2022-08-11T16:52:53Z</time>
      </trkpt>
      <trkpt lat="43.28197" lon="6.14063">
        <ele>158</ele>
        <time>2022-08-11T16:53:33Z</time>
      </trkpt>
      <trkpt lat="43.28268" lon="6.13941">
        <ele>163</ele>
        <time>2022-08-11T16:53:53Z</time>
      </trkpt>
      <trkpt lat="43.2828" lon="6.13928">
        <ele>164</ele>
        <time>2022-08-11T16:53:56Z</time>
      </trkpt>
      <trkpt lat="43.28291" lon="6.13919">
        <ele>165</ele>
        <time>2022-08-11T16:53:58Z</time>
      </trkpt>
      <trkpt lat="43.28299" lon="6.13917">
        <ele>165</ele>
        <time>2022-08-11T16:54:00Z</time>
      </trkpt>
      <trkpt lat="43.28336" lon="6.13918">
        <ele>166</ele>
        <time>2022-08-11T16:54:06Z</time>
      </trkpt>
      <trkpt lat="43.28352" lon="6.13912">
        <ele>166</ele>
        <time>2022-08-11T16:54:09Z</time>
      </trkpt>
      <trkpt lat="43.28363" lon="6.13896">
        <ele>166</ele>
        <time>2022-08-11T16:54:12Z</time>
      </trkpt>
      <trkpt lat="43.28365" lon="6.13882">
        <ele>166</ele>
        <time>2022-08-11T16:54:14Z</time>
      </trkpt>
      <trkpt lat="43.28359" lon="6.13841">
        <ele>168</ele>
        <time>2022-08-11T16:54:19Z</time>
      </trkpt>
      <trkpt lat="43.28359" lon="6.13831">
        <ele>168</ele>
        <time>2022-08-11T16:54:21Z</time>
      </trkpt>
      <trkpt lat="43.28362" lon="6.13821">
        <ele>168</ele>
        <time>2022-08-11T16:54:22Z</time>
      </trkpt>
      <trkpt lat="43.28403" lon="6.13763">
        <ele>169</ele>
        <time>2022-08-11T16:54:33Z</time>
      </trkpt>
      <trkpt lat="43.28447" lon="6.13681">
        <ele>174</ele>
        <time>2022-08-11T16:54:46Z</time>
      </trkpt>
      <trkpt lat="43.28475" lon="6.13615">
        <ele>177</ele>
        <time>2022-08-11T16:54:56Z</time>
      </trkpt>
      <trkpt lat="43.28493" lon="6.13584">
        <ele>180</ele>
        <time>2022-08-11T16:55:01Z</time>
      </trkpt>
      <trkpt lat="43.28536" lon="6.13526">
        <ele>181</ele>
        <time>2022-08-11T16:55:12Z</time>
      </trkpt>
      <trkpt lat="43.28551" lon="6.13512">
        <ele>182</ele>
        <time>2022-08-11T16:55:15Z</time>
      </trkpt>
      <trkpt lat="43.28554" lon="6.1351">
        <ele>182</ele>
        <time>2022-08-11T16:55:15Z</time>
      </trkpt>
      <trkpt lat="43.28561" lon="6.13512">
        <ele>182</ele>
        <time>2022-08-11T16:55:17Z</time>
      </trkpt>
      <trkpt lat="43.28565" lon="6.13511">
        <ele>182</ele>
        <time>2022-08-11T16:55:17Z</time>
      </trkpt>
      <trkpt lat="43.28571" lon="6.13505">
        <ele>182</ele>
        <time>2022-08-11T16:55:19Z</time>
      </trkpt>
      <trkpt lat="43.28572" lon="6.135">
        <ele>182</ele>
        <time>2022-08-11T16:55:19Z</time>
      </trkpt>
      <trkpt lat="43.28572" lon="6.13489">
        <ele>182</ele>
        <time>2022-08-11T16:55:21Z</time>
      </trkpt>
      <trkpt lat="43.28579" lon="6.13466">
        <ele>183</ele>
        <time>2022-08-11T16:55:24Z</time>
      </trkpt>
      <trkpt lat="43.28611" lon="6.13417">
        <ele>185</ele>
        <time>2022-08-11T16:55:33Z</time>
      </trkpt>
      <trkpt lat="43.28665" lon="6.13341">
        <ele>189</ele>
        <time>2022-08-11T16:55:46Z</time>
      </trkpt>
      <trkpt lat="43.2867" lon="6.13342">
        <ele>189</ele>
        <time>2022-08-11T16:55:47Z</time>
      </trkpt>
      <trkpt lat="43.28719" lon="6.13262">
        <ele>193</ele>
        <time>2022-08-11T16:56:01Z</time>
      </trkpt>
      <trkpt lat="43.28743" lon="6.13215">
        <ele>195</ele>
        <time>2022-08-11T16:56:08Z</time>
      </trkpt>
      <trkpt lat="43.2871" lon="6.13153">
        <ele>198</ele>
        <time>2022-08-11T16:56:18Z</time>
      </trkpt>
      <trkpt lat="43.28691" lon="6.13116">
        <ele>197</ele>
        <time>2022-08-11T16:56:24Z</time>
      </trkpt>
      <trkpt lat="43.28694" lon="6.1311">
        <ele>197</ele>
        <time>2022-08-11T16:56:25Z</time>
      </trkpt>
      <trkpt lat="43.28717" lon="6.13091">
        <ele>198</ele>
        <time>2022-08-11T16:56:30Z</time>
      </trkpt>
      <trkpt lat="43.28719" lon="6.1309">
        <ele>198</ele>
        <time>2022-08-11T16:56:30Z</time>
      </trkpt>
      <trkpt lat="43.28722" lon="6.13092">
        <ele>199</ele>
        <time>2022-08-11T16:56:31Z</time>
      </trkpt>
      <trkpt lat="43.28734" lon="6.13116">
        <ele>199</ele>
        <time>2022-08-11T16:56:34Z</time>
      </trkpt>
      <trkpt lat="43.2874" lon="6.13122">
        <ele>199</ele>
        <time>2022-08-11T16:56:36Z</time>
      </trkpt>
      <trkpt lat="43.28743" lon="6.13122">
        <ele>199</ele>
        <time>2022-08-11T16:56:36Z</time>
      </trkpt>
      <trkpt lat="43.28802" lon="6.13069">
        <ele>201</ele>
        <time>2022-08-11T16:56:49Z</time>
      </trkpt>
      <trkpt lat="43.28803" lon="6.13046">
        <ele>202</ele>
        <time>2022-08-11T16:56:52Z</time>
      </trkpt>
      <trkpt lat="43.28848" lon="6.12989">
        <ele>206</ele>
        <time>2022-08-11T16:57:03Z</time>
      </trkpt>
      <trkpt lat="43.28915" lon="6.12909">
        <ele>211</ele>
        <time>2022-08-11T16:57:19Z</time>
      </trkpt>
      <trkpt lat="43.2893" lon="6.12883">
        <ele>212</ele>
        <time>2022-08-11T16:57:23Z</time>
      </trkpt>
      <trkpt lat="43.28943" lon="6.12841">
        <ele>213</ele>
        <time>2022-08-11T16:57:29Z</time>
      </trkpt>
      <trkpt lat="43.28995" lon="6.12748">
        <ele>219</ele>
        <time>2022-08-11T16:57:44Z</time>
      </trkpt>
      <trkpt lat="43.29043" lon="6.12669">
        <ele>224</ele>
        <time>2022-08-11T16:57:57Z</time>
      </trkpt>
      <trkpt lat="43.29057" lon="6.12635">
        <ele>225</ele>
        <time>2022-08-11T16:58:02Z</time>
      </trkpt>
      <trkpt lat="43.29055" lon="6.1263">
        <ele>225</ele>
        <time>2022-08-11T16:58:03Z</time>
      </trkpt>
      <trkpt lat="43.29073" lon="6.12604">
        <ele>227</ele>
        <time>2022-08-11T16:58:08Z</time>
      </trkpt>
      <trkpt lat="43.2908" lon="6.12586">
        <ele>229</ele>
        <time>2022-08-11T16:58:10Z</time>
      </trkpt>
      <trkpt lat="43.29097" lon="6.12551">
        <ele>228</ele>
        <time>2022-08-11T16:58:16Z</time>
      </trkpt>
      <trkpt lat="43.29102" lon="6.12543">
        <ele>227</ele>
        <time>2022-08-11T16:58:17Z</time>
      </trkpt>
      <trkpt lat="43.2912" lon="6.12534">
        <ele>228</ele>
        <time>2022-08-11T16:58:21Z</time>
      </trkpt>
      <trkpt lat="43.29146" lon="6.1251">
        <ele>229</ele>
        <time>2022-08-11T16:58:26Z</time>
      </trkpt>
      <trkpt lat="43.29163" lon="6.12501">
        <ele>231</ele>
        <time>2022-08-11T16:58:29Z</time>
      </trkpt>
      <trkpt lat="43.29227" lon="6.12485">
        <ele>235</ele>
        <time>2022-08-11T16:58:41Z</time>
      </trkpt>
      <trkpt lat="43.29261" lon="6.12462">
        <ele>237</ele>
        <time>2022-08-11T16:58:48Z</time>
      </trkpt>
      <trkpt lat="43.29386" lon="6.12366">
        <ele>249</ele>
        <time>2022-08-11T16:59:13Z</time>
      </trkpt>
      <trkpt lat="43.29412" lon="6.12334">
        <ele>252</ele>
        <time>2022-08-11T16:59:19Z</time>
      </trkpt>
      <trkpt lat="43.29437" lon="6.12284">
        <ele>254</ele>
        <time>2022-08-11T16:59:27Z</time>
      </trkpt>
      <trkpt lat="43.2946" lon="6.12259">
        <ele>256</ele>
        <time>2022-08-11T16:59:32Z</time>
      </trkpt>
      <trkpt lat="43.29505" lon="6.12243">
        <ele>263</ele>
        <time>2022-08-11T16:59:41Z</time>
      </trkpt>
      <trkpt lat="43.2953" lon="6.12225">
        <ele>267</ele>
        <time>2022-08-11T16:59:46Z</time>
      </trkpt>
      <trkpt lat="43.29544" lon="6.12209">
        <ele>268</ele>
        <time>2022-08-11T16:59:49Z</time>
      </trkpt>
      <trkpt lat="43.29555" lon="6.12182">
        <ele>265</ele>
        <time>2022-08-11T16:59:53Z</time>
      </trkpt>
      <trkpt lat="43.29566" lon="6.12176">
        <ele>266</ele>
        <time>2022-08-11T16:59:55Z</time>
      </trkpt>
      <trkpt lat="43.29596" lon="6.12152">
        <ele>269</ele>
        <time>2022-08-11T17:00:01Z</time>
      </trkpt>
      <trkpt lat="43.2962" lon="6.12123">
        <ele>271</ele>
        <time>2022-08-11T17:00:07Z</time>
      </trkpt>
      <trkpt lat="43.29646" lon="6.12111">
        <ele>271</ele>
        <time>2022-08-11T17:00:12Z</time>
      </trkpt>
      <trkpt lat="43.29693" lon="6.12101">
        <ele>274</ele>
        <time>2022-08-11T17:00:20Z</time>
      </trkpt>
      <trkpt lat="43.29706" lon="6.1209">
        <ele>273</ele>
        <time>2022-08-11T17:00:23Z</time>
      </trkpt>
      <trkpt lat="43.29712" lon="6.12073">
        <ele>273</ele>
        <time>2022-08-11T17:00:25Z</time>
      </trkpt>
      <trkpt lat="43.29711" lon="6.12059">
        <ele>274</ele>
        <time>2022-08-11T17:00:27Z</time>
      </trkpt>
      <trkpt lat="43.29708" lon="6.12041">
        <ele>275</ele>
        <time>2022-08-11T17:00:30Z</time>
      </trkpt>
      <trkpt lat="43.29702" lon="6.12025">
        <ele>275</ele>
        <time>2022-08-11T17:00:32Z</time>
      </trkpt>
      <trkpt lat="43.29695" lon="6.12013">
        <ele>276</ele>
        <time>2022-08-11T17:00:34Z</time>
      </trkpt>
      <trkpt lat="43.29689" lon="6.12006">
        <ele>277</ele>
        <time>2022-08-11T17:00:35Z</time>
      </trkpt>
      <trkpt lat="43.29682" lon="6.12002">
        <ele>277</ele>
        <time>2022-08-11T17:00:37Z</time>
      </trkpt>
      <trkpt lat="43.29663" lon="6.12004">
        <ele>278</ele>
        <time>2022-08-11T17:00:40Z</time>
      </trkpt>
      <trkpt lat="43.2962" lon="6.12027">
        <ele>280</ele>
        <time>2022-08-11T17:00:48Z</time>
      </trkpt>
      <trkpt lat="43.29583" lon="6.12057">
        <ele>277</ele>
        <time>2022-08-11T17:00:56Z</time>
      </trkpt>
      <trkpt lat="43.29556" lon="6.12063">
        <ele>277</ele>
        <time>2022-08-11T17:01:01Z</time>
      </trkpt>
      <trkpt lat="43.2952" lon="6.12064">
        <ele>281</ele>
        <time>2022-08-11T17:01:07Z</time>
      </trkpt>
      <trkpt lat="43.29491" lon="6.12063">
        <ele>282</ele>
        <time>2022-08-11T17:01:12Z</time>
      </trkpt>
      <trkpt lat="43.294" lon="6.12037">
        <ele>282</ele>
        <time>2022-08-11T17:01:29Z</time>
      </trkpt>
      <trkpt lat="43.29376" lon="6.12006">
        <ele>282</ele>
        <time>2022-08-11T17:01:35Z</time>
      </trkpt>
      <trkpt lat="43.29357" lon="6.11963">
        <ele>285</ele>
        <time>2022-08-11T17:01:41Z</time>
      </trkpt>
      <trkpt lat="43.29342" lon="6.11912">
        <ele>289</ele>
        <time>2022-08-11T17:01:48Z</time>
      </trkpt>
      <trkpt lat="43.29335" lon="6.11875">
        <ele>291</ele>
        <time>2022-08-11T17:01:53Z</time>
      </trkpt>
      <trkpt lat="43.29331" lon="6.11827">
        <ele>295</ele>
        <time>2022-08-11T17:02:00Z</time>
      </trkpt>
      <trkpt lat="43.29317" lon="6.11749">
        <ele>297</ele>
        <time>2022-08-11T17:02:10Z</time>
      </trkpt>
      <trkpt lat="43.29317" lon="6.11702">
        <ele>297</ele>
        <time>2022-08-11T17:02:16Z</time>
      </trkpt>
      <trkpt lat="43.29319" lon="6.1167">
        <ele>298</ele>
        <time>2022-08-11T17:02:20Z</time>
      </trkpt>
      <trkpt lat="43.2933" lon="6.11638">
        <ele>298</ele>
        <time>2022-08-11T17:02:25Z</time>
      </trkpt>
      <trkpt lat="43.29359" lon="6.1161">
        <ele>307</ele>
        <time>2022-08-11T17:02:31Z</time>
      </trkpt>
      <trkpt lat="43.29372" lon="6.11593">
        <ele>310</ele>
        <time>2022-08-11T17:02:34Z</time>
      </trkpt>
      <trkpt lat="43.29386" lon="6.11548">
        <ele>311</ele>
        <time>2022-08-11T17:02:41Z</time>
      </trkpt>
      <trkpt lat="43.29391" lon="6.11498">
        <ele>307</ele>
        <time>2022-08-11T17:02:47Z</time>
      </trkpt>
      <trkpt lat="43.29422" lon="6.11428">
        <ele>309</ele>
        <time>2022-08-11T17:02:58Z</time>
      </trkpt>
      <trkpt lat="43.29444" lon="6.11362">
        <ele>308</ele>
        <time>2022-08-11T17:03:07Z</time>
      </trkpt>
      <trkpt lat="43.29465" lon="6.11331">
        <ele>309</ele>
        <time>2022-08-11T17:03:13Z</time>
      </trkpt>
      <trkpt lat="43.29485" lon="6.11308">
        <ele>312</ele>
        <time>2022-08-11T17:03:17Z</time>
      </trkpt>
      <trkpt lat="43.29519" lon="6.11297">
        <ele>319</ele>
        <time>2022-08-11T17:03:24Z</time>
      </trkpt>
      <trkpt lat="43.29535" lon="6.11283">
        <ele>320</ele>
        <time>2022-08-11T17:03:27Z</time>
      </trkpt>
      <trkpt lat="43.29542" lon="6.11268">
        <ele>320</ele>
        <time>2022-08-11T17:03:29Z</time>
      </trkpt>
      <trkpt lat="43.29544" lon="6.11253">
        <ele>319</ele>
        <time>2022-08-11T17:03:31Z</time>
      </trkpt>
      <trkpt lat="43.2954" lon="6.1124">
        <ele>317</ele>
        <time>2022-08-11T17:03:33Z</time>
      </trkpt>
      <trkpt lat="43.29537" lon="6.11223">
        <ele>315</ele>
        <time>2022-08-11T17:03:35Z</time>
      </trkpt>
      <trkpt lat="43.29538" lon="6.11204">
        <ele>313</ele>
        <time>2022-08-11T17:03:38Z</time>
      </trkpt>
      <trkpt lat="43.29549" lon="6.11182">
        <ele>315</ele>
        <time>2022-08-11T17:03:41Z</time>
      </trkpt>
      <trkpt lat="43.29635" lon="6.11108">
        <ele>328</ele>
        <time>2022-08-11T17:03:59Z</time>
      </trkpt>
      <trkpt lat="43.29658" lon="6.11067">
        <ele>332</ele>
        <time>2022-08-11T17:04:06Z</time>
      </trkpt>
      <trkpt lat="43.29666" lon="6.11042">
        <ele>332</ele>
        <time>2022-08-11T17:04:10Z</time>
      </trkpt>
      <trkpt lat="43.29671" lon="6.11006">
        <ele>330</ele>
        <time>2022-08-11T17:04:14Z</time>
      </trkpt>
      <trkpt lat="43.29677" lon="6.10981">
        <ele>330</ele>
        <time>2022-08-11T17:04:18Z</time>
      </trkpt>
      <trkpt lat="43.29683" lon="6.10968">
        <ele>331</ele>
        <time>2022-08-11T17:04:20Z</time>
      </trkpt>
      <trkpt lat="43.2972" lon="6.10946">
        <ele>336</ele>
        <time>2022-08-11T17:04:27Z</time>
      </trkpt>
      <trkpt lat="43.29757" lon="6.1093">
        <ele>340</ele>
        <time>2022-08-11T17:04:34Z</time>
      </trkpt>
      <trkpt lat="43.29777" lon="6.10913">
        <ele>341</ele>
        <time>2022-08-11T17:04:38Z</time>
      </trkpt>
      <trkpt lat="43.29785" lon="6.10898">
        <ele>342</ele>
        <time>2022-08-11T17:04:40Z</time>
      </trkpt>
      <trkpt lat="43.29785" lon="6.10882">
        <ele>342</ele>
        <time>2022-08-11T17:04:42Z</time>
      </trkpt>
      <trkpt lat="43.29777" lon="6.10867">
        <ele>342</ele>
        <time>2022-08-11T17:04:45Z</time>
      </trkpt>
      <trkpt lat="43.29738" lon="6.10832">
        <ele>342</ele>
        <time>2022-08-11T17:04:53Z</time>
      </trkpt>
      <trkpt lat="43.29733" lon="6.10817">
        <ele>343</ele>
        <time>2022-08-11T17:04:55Z</time>
      </trkpt>
      <trkpt lat="43.29742" lon="6.10766">
        <ele>347</ele>
        <time>2022-08-11T17:05:02Z</time>
      </trkpt>
      <trkpt lat="43.29763" lon="6.10725">
        <ele>352</ele>
        <time>2022-08-11T17:05:09Z</time>
      </trkpt>
      <trkpt lat="43.29777" lon="6.10692">
        <ele>356</ele>
        <time>2022-08-11T17:05:14Z</time>
      </trkpt>
      <trkpt lat="43.2977" lon="6.10662">
        <ele>358</ele>
        <time>2022-08-11T17:05:18Z</time>
      </trkpt>
      <trkpt lat="43.29759" lon="6.10654">
        <ele>359</ele>
        <time>2022-08-11T17:05:20Z</time>
      </trkpt>
      <trkpt lat="43.29743" lon="6.10656">
        <ele>358</ele>
        <time>2022-08-11T17:05:23Z</time>
      </trkpt>
      <trkpt lat="43.2973" lon="6.10665">
        <ele>356</ele>
        <time>2022-08-11T17:05:25Z</time>
      </trkpt>
      <trkpt lat="43.29717" lon="6.1068">
        <ele>354</ele>
        <time>2022-08-11T17:05:28Z</time>
      </trkpt>
      <trkpt lat="43.29707" lon="6.10683">
        <ele>353</ele>
        <time>2022-08-11T17:05:30Z</time>
      </trkpt>
      <trkpt lat="43.29695" lon="6.10683">
        <ele>353</ele>
        <time>2022-08-11T17:05:32Z</time>
      </trkpt>
      <trkpt lat="43.29684" lon="6.10676">
        <ele>353</ele>
        <time>2022-08-11T17:05:34Z</time>
      </trkpt>
      <trkpt lat="43.29677" lon="6.10647">
        <ele>353</ele>
        <time>2022-08-11T17:05:38Z</time>
      </trkpt>
      <trkpt lat="43.29691" lon="6.10601">
        <ele>356</ele>
        <time>2022-08-11T17:05:45Z</time>
      </trkpt>
      <trkpt lat="43.29704" lon="6.10523">
        <ele>364</ele>
        <time>2022-08-11T17:05:55Z</time>
      </trkpt>
      <trkpt lat="43.29717" lon="6.10476">
        <ele>369</ele>
        <time>2022-08-11T17:06:02Z</time>
      </trkpt>
      <trkpt lat="43.29727" lon="6.10455">
        <ele>371</ele>
        <time>2022-08-11T17:06:05Z</time>
      </trkpt>
      <trkpt lat="43.29754" lon="6.10436">
        <ele>373</ele>
        <time>2022-08-11T17:06:10Z</time>
      </trkpt>
      <trkpt lat="43.29771" lon="6.10408">
        <ele>377</ele>
        <time>2022-08-11T17:06:15Z</time>
      </trkpt>
      <trkpt lat="43.29778" lon="6.10382">
        <ele>380</ele>
        <time>2022-08-11T17:06:19Z</time>
      </trkpt>
      <trkpt lat="43.29782" lon="6.10358">
        <ele>382</ele>
        <time>2022-08-11T17:06:22Z</time>
      </trkpt>
      <trkpt lat="43.29777" lon="6.10325">
        <ele>383</ele>
        <time>2022-08-11T17:06:26Z</time>
      </trkpt>
      <trkpt lat="43.29768" lon="6.1031">
        <ele>382</ele>
        <time>2022-08-11T17:06:29Z</time>
      </trkpt>
      <trkpt lat="43.29753" lon="6.10299">
        <ele>381</ele>
        <time>2022-08-11T17:06:32Z</time>
      </trkpt>
      <trkpt lat="43.29734" lon="6.10292">
        <ele>383</ele>
        <time>2022-08-11T17:06:35Z</time>
      </trkpt>
      <trkpt lat="43.29716" lon="6.10292">
        <ele>386</ele>
        <time>2022-08-11T17:06:38Z</time>
      </trkpt>
      <trkpt lat="43.29702" lon="6.10296">
        <ele>388</ele>
        <time>2022-08-11T17:06:41Z</time>
      </trkpt>
      <trkpt lat="43.29689" lon="6.10312">
        <ele>388</ele>
        <time>2022-08-11T17:06:44Z</time>
      </trkpt>
      <trkpt lat="43.29671" lon="6.10347">
        <ele>385</ele>
        <time>2022-08-11T17:06:50Z</time>
      </trkpt>
      <trkpt lat="43.29664" lon="6.10365">
        <ele>383</ele>
        <time>2022-08-11T17:06:52Z</time>
      </trkpt>
      <trkpt lat="43.29657" lon="6.10389">
        <ele>380</ele>
        <time>2022-08-11T17:06:56Z</time>
      </trkpt>
      <trkpt lat="43.29646" lon="6.10408">
        <ele>379</ele>
        <time>2022-08-11T17:06:59Z</time>
      </trkpt>
      <trkpt lat="43.29635" lon="6.10416">
        <ele>380</ele>
        <time>2022-08-11T17:07:01Z</time>
      </trkpt>
      <trkpt lat="43.29591" lon="6.104">
        <ele>390</ele>
        <time>2022-08-11T17:07:09Z</time>
      </trkpt>
      <trkpt lat="43.2958" lon="6.10405">
        <ele>392</ele>
        <time>2022-08-11T17:07:11Z</time>
      </trkpt>
      <trkpt lat="43.29566" lon="6.10424">
        <ele>395</ele>
        <time>2022-08-11T17:07:15Z</time>
      </trkpt>
      <trkpt lat="43.2953" lon="6.10518">
        <ele>393</ele>
        <time>2022-08-11T17:07:28Z</time>
      </trkpt>
      <trkpt lat="43.29513" lon="6.10545">
        <ele>391</ele>
        <time>2022-08-11T17:07:33Z</time>
      </trkpt>
      <trkpt lat="43.29437" lon="6.10601">
        <ele>400</ele>
        <time>2022-08-11T17:07:48Z</time>
      </trkpt>
      <trkpt lat="43.29391" lon="6.10642">
        <ele>403</ele>
        <time>2022-08-11T17:07:58Z</time>
      </trkpt>
      <trkpt lat="43.2931" lon="6.10751">
        <ele>399</ele>
        <time>2022-08-11T17:08:18Z</time>
      </trkpt>
      <trkpt lat="43.29297" lon="6.10759">
        <ele>398</ele>
        <time>2022-08-11T17:08:21Z</time>
      </trkpt>
      <trkpt lat="43.29282" lon="6.10761">
        <ele>398</ele>
        <time>2022-08-11T17:08:24Z</time>
      </trkpt>
      <trkpt lat="43.29271" lon="6.10756">
        <ele>399</ele>
        <time>2022-08-11T17:08:26Z</time>
      </trkpt>
      <trkpt lat="43.29243" lon="6.10698">
        <ele>406</ele>
        <time>2022-08-11T17:08:35Z</time>
      </trkpt>
      <trkpt lat="43.29239" lon="6.1068">
        <ele>407</ele>
        <time>2022-08-11T17:08:37Z</time>
      </trkpt>
      <trkpt lat="43.29222" lon="6.10546">
        <ele>414</ele>
        <time>2022-08-11T17:08:55Z</time>
      </trkpt>
      <trkpt lat="43.29221" lon="6.1052">
        <ele>416</ele>
        <time>2022-08-11T17:08:58Z</time>
      </trkpt>
      <trkpt lat="43.29239" lon="6.10457">
        <ele>421</ele>
        <time>2022-08-11T17:09:07Z</time>
      </trkpt>
      <trkpt lat="43.29296" lon="6.10362">
        <ele>431</ele>
        <time>2022-08-11T17:09:23Z</time>
      </trkpt>
      <trkpt lat="43.29306" lon="6.10331">
        <ele>431</ele>
        <time>2022-08-11T17:09:27Z</time>
      </trkpt>
      <trkpt lat="43.29311" lon="6.10299">
        <ele>433</ele>
        <time>2022-08-11T17:09:31Z</time>
      </trkpt>
      <trkpt lat="43.29303" lon="6.10253">
        <ele>434</ele>
        <time>2022-08-11T17:09:38Z</time>
      </trkpt>
      <trkpt lat="43.29303" lon="6.10213">
        <ele>438</ele>
        <time>2022-08-11T17:09:43Z</time>
      </trkpt>
      <trkpt lat="43.29319" lon="6.10172">
        <ele>440</ele>
        <time>2022-08-11T17:09:49Z</time>
      </trkpt>
      <trkpt lat="43.29329" lon="6.10157">
        <ele>441</ele>
        <time>2022-08-11T17:09:51Z</time>
      </trkpt>
      <trkpt lat="43.29312" lon="6.10157">
        <ele>443</ele>
        <time>2022-08-11T17:09:54Z</time>
      </trkpt>
      <trkpt lat="43.29298" lon="6.10165">
        <ele>443</ele>
        <time>2022-08-11T17:09:57Z</time>
      </trkpt>
      <trkpt lat="43.29281" lon="6.10175">
        <ele>443</ele>
        <time>2022-08-11T17:10:00Z</time>
      </trkpt>
      <trkpt lat="43.2926" lon="6.10196">
        <ele>442</ele>
        <time>2022-08-11T17:10:05Z</time>
      </trkpt>
      <trkpt lat="43.29242" lon="6.1024">
        <ele>436</ele>
        <time>2022-08-11T17:10:12Z</time>
      </trkpt>
      <trkpt lat="43.29208" lon="6.10302">
        <ele>433</ele>
        <time>2022-08-11T17:10:22Z</time>
      </trkpt>
      <trkpt lat="43.29159" lon="6.10337">
        <ele>432</ele>
        <time>2022-08-11T17:10:31Z</time>
      </trkpt>
      <trkpt lat="43.29104" lon="6.10405">
        <ele>430</ele>
        <time>2022-08-11T17:10:45Z</time>
      </trkpt>
      <trkpt lat="43.29069" lon="6.10441">
        <ele>426</ele>
        <time>2022-08-11T17:10:52Z</time>
      </trkpt>
      <trkpt lat="43.2903" lon="6.10447">
        <ele>428</ele>
        <time>2022-08-11T17:10:59Z</time>
      </trkpt>
      <trkpt lat="43.28989" lon="6.10456">
        <ele>430</ele>
        <time>2022-08-11T17:11:07Z</time>
      </trkpt>
      <trkpt lat="43.28945" lon="6.10478">
        <ele>427</ele>
        <time>2022-08-11T17:11:15Z</time>
      </trkpt>
      <trkpt lat="43.28901" lon="6.10492">
        <ele>427</ele>
        <time>2022-08-11T17:11:23Z</time>
      </trkpt>
      <trkpt lat="43.28877" lon="6.10506">
        <ele>426</ele>
        <time>2022-08-11T17:11:28Z</time>
      </trkpt>
      <trkpt lat="43.28863" lon="6.10529">
        <ele>422</ele>
        <time>2022-08-11T17:11:32Z</time>
      </trkpt>
      <trkpt lat="43.28837" lon="6.10563">
        <ele>415</ele>
        <time>2022-08-11T17:11:38Z</time>
      </trkpt>
      <trkpt lat="43.28806" lon="6.10561">
        <ele>410</ele>
        <time>2022-08-11T17:11:44Z</time>
      </trkpt>
      <trkpt lat="43.2876" lon="6.10525">
        <ele>412</ele>
        <time>2022-08-11T17:11:53Z</time>
      </trkpt>
      <trkpt lat="43.28711" lon="6.10451">
        <ele>412</ele>
        <time>2022-08-11T17:12:06Z</time>
      </trkpt>
      <trkpt lat="43.28679" lon="6.10396">
        <ele>408</ele>
        <time>2022-08-11T17:12:15Z</time>
      </trkpt>
      <trkpt lat="43.28673" lon="6.10384">
        <ele>406</ele>
        <time>2022-08-11T17:12:17Z</time>
      </trkpt>
      <trkpt lat="43.28671" lon="6.1037">
        <ele>406</ele>
        <time>2022-08-11T17:12:19Z</time>
      </trkpt>
      <trkpt lat="43.28677" lon="6.10317">
        <ele>407</ele>
        <time>2022-08-11T17:12:26Z</time>
      </trkpt>
      <trkpt lat="43.28701" lon="6.10196">
        <ele>411</ele>
        <time>2022-08-11T17:12:42Z</time>
      </trkpt>
      <trkpt lat="43.287" lon="6.10184">
        <ele>410</ele>
        <time>2022-08-11T17:12:44Z</time>
      </trkpt>
      <trkpt lat="43.28664" lon="6.1011">
        <ele>399</ele>
        <time>2022-08-11T17:12:55Z</time>
      </trkpt>
      <trkpt lat="43.28655" lon="6.10052">
        <ele>401</ele>
        <time>2022-08-11T17:13:03Z</time>
      </trkpt>
      <trkpt lat="43.2865" lon="6.09999">
        <ele>403</ele>
        <time>2022-08-11T17:13:10Z</time>
      </trkpt>
      <trkpt lat="43.28644" lon="6.09976">
        <ele>404</ele>
        <time>2022-08-11T17:13:13Z</time>
      </trkpt>
      <trkpt lat="43.28612" lon="6.09924">
        <ele>401</ele>
        <time>2022-08-11T17:13:22Z</time>
      </trkpt>
      <trkpt lat="43.28581" lon="6.09879">
        <ele>397</ele>
        <time>2022-08-11T17:13:30Z</time>
      </trkpt>
      <trkpt lat="43.2854" lon="6.09858">
        <ele>390</ele>
        <time>2022-08-11T17:13:37Z</time>
      </trkpt>
      <trkpt lat="43.28532" lon="6.09828">
        <ele>390</ele>
        <time>2022-08-11T17:13:42Z</time>
      </trkpt>
      <trkpt lat="43.28528" lon="6.09788">
        <ele>394</ele>
        <time>2022-08-11T17:13:47Z</time>
      </trkpt>
      <trkpt lat="43.2853" lon="6.09739">
        <ele>401</ele>
        <time>2022-08-11T17:13:53Z</time>
      </trkpt>
      <trkpt lat="43.28521" lon="6.09732">
        <ele>400</ele>
        <time>2022-08-11T17:13:55Z</time>
      </trkpt>
      <trkpt lat="43.28467" lon="6.0972">
        <ele>391</ele>
        <time>2022-08-11T17:14:05Z</time>
      </trkpt>
      <trkpt lat="43.28436" lon="6.0971">
        <ele>388</ele>
        <time>2022-08-11T17:14:10Z</time>
      </trkpt>
      <trkpt lat="43.2841" lon="6.09697">
        <ele>386</ele>
        <time>2022-08-11T17:14:15Z</time>
      </trkpt>
      <trkpt lat="43.2838" lon="6.09692">
        <ele>379</ele>
        <time>2022-08-11T17:14:21Z</time>
      </trkpt>
      <trkpt lat="43.28369" lon="6.09681">
        <ele>378</ele>
        <time>2022-08-11T17:14:23Z</time>
      </trkpt>
      <trkpt lat="43.28356" lon="6.09651">
        <ele>379</ele>
        <time>2022-08-11T17:14:28Z</time>
      </trkpt>
      <trkpt lat="43.28354" lon="6.09595">
        <ele>386</ele>
        <time>2022-08-11T17:14:35Z</time>
      </trkpt>
      <trkpt lat="43.2834" lon="6.09561">
        <ele>387</ele>
        <time>2022-08-11T17:14:40Z</time>
      </trkpt>
      <trkpt lat="43.28309" lon="6.09538">
        <ele>385</ele>
        <time>2022-08-11T17:14:46Z</time>
      </trkpt>
      <trkpt lat="43.2829" lon="6.09505">
        <ele>389</ele>
        <time>2022-08-11T17:14:52Z</time>
      </trkpt>
      <trkpt lat="43.2827" lon="6.09487">
        <ele>390</ele>
        <time>2022-08-11T17:14:56Z</time>
      </trkpt>
      <trkpt lat="43.28251" lon="6.09493">
        <ele>386</ele>
        <time>2022-08-11T17:14:59Z</time>
      </trkpt>
      <trkpt lat="43.28237" lon="6.09531">
        <ele>381</ele>
        <time>2022-08-11T17:15:05Z</time>
      </trkpt>
      <trkpt lat="43.28155" lon="6.0967">
        <ele>377</ele>
        <time>2022-08-11T17:15:28Z</time>
      </trkpt>
      <trkpt lat="43.28129" lon="6.09737">
        <ele>372</ele>
        <time>2022-08-11T17:15:38Z</time>
      </trkpt>
      <trkpt lat="43.28099" lon="6.09802">
        <ele>366</ele>
        <time>2022-08-11T17:15:48Z</time>
      </trkpt>
      <trkpt lat="43.28071" lon="6.09823">
        <ele>363</ele>
        <time>2022-08-11T17:15:54Z</time>
      </trkpt>
      <trkpt lat="43.28042" lon="6.09814">
        <ele>359</ele>
        <time>2022-08-11T17:15:59Z</time>
      </trkpt>
      <trkpt lat="43.27988" lon="6.09776">
        <ele>359</ele>
        <time>2022-08-11T17:16:10Z</time>
      </trkpt>
      <trkpt lat="43.27876" lon="6.09664">
        <ele>356</ele>
        <time>2022-08-11T17:16:34Z</time>
      </trkpt>
      <trkpt lat="43.27864" lon="6.09633">
        <ele>359</ele>
        <time>2022-08-11T17:16:39Z</time>
      </trkpt>
      <trkpt lat="43.2784" lon="6.09601">
        <ele>359</ele>
        <time>2022-08-11T17:16:45Z</time>
      </trkpt>
      <trkpt lat="43.27813" lon="6.0956">
        <ele>355</ele>
        <time>2022-08-11T17:16:52Z</time>
      </trkpt>
      <trkpt lat="43.27796" lon="6.0953">
        <ele>352</ele>
        <time>2022-08-11T17:16:57Z</time>
      </trkpt>
      <trkpt lat="43.27803" lon="6.09442">
        <ele>361</ele>
        <time>2022-08-11T17:17:08Z</time>
      </trkpt>
      <trkpt lat="43.278" lon="6.09403">
        <ele>363</ele>
        <time>2022-08-11T17:17:13Z</time>
      </trkpt>
      <trkpt lat="43.27778" lon="6.0938">
        <ele>359</ele>
        <time>2022-08-11T17:17:18Z</time>
      </trkpt>
      <trkpt lat="43.27768" lon="6.0936">
        <ele>359</ele>
        <time>2022-08-11T17:17:21Z</time>
      </trkpt>
      <trkpt lat="43.27755" lon="6.09323">
        <ele>362</ele>
        <time>2022-08-11T17:17:27Z</time>
      </trkpt>
      <trkpt lat="43.2774" lon="6.09313">
        <ele>361</ele>
        <time>2022-08-11T17:17:30Z</time>
      </trkpt>
      <trkpt lat="43.27709" lon="6.09315">
        <ele>358</ele>
        <time>2022-08-11T17:17:35Z</time>
      </trkpt>
      <trkpt lat="43.27666" lon="6.09308">
        <ele>354</ele>
        <time>2022-08-11T17:17:43Z</time>
      </trkpt>
      <trkpt lat="43.27635" lon="6.09292">
        <ele>350</ele>
        <time>2022-08-11T17:17:49Z</time>
      </trkpt>
      <trkpt lat="43.27622" lon="6.0927">
        <ele>350</ele>
        <time>2022-08-11T17:17:53Z</time>
      </trkpt>
      <trkpt lat="43.27619" lon="6.0924">
        <ele>353</ele>
        <time>2022-08-11T17:17:57Z</time>
      </trkpt>
      <trkpt lat="43.27607" lon="6.09214">
        <ele>354</ele>
        <time>2022-08-11T17:18:00Z</time>
      </trkpt>
      <trkpt lat="43.27569" lon="6.09209">
        <ele>348</ele>
        <time>2022-08-11T17:18:07Z</time>
      </trkpt>
      <trkpt lat="43.27528" lon="6.09187">
        <ele>342</ele>
        <time>2022-08-11T17:18:15Z</time>
      </trkpt>
      <trkpt lat="43.27508" lon="6.09156">
        <ele>340</ele>
        <time>2022-08-11T17:18:20Z</time>
      </trkpt>
      <trkpt lat="43.27492" lon="6.09108">
        <ele>336</ele>
        <time>2022-08-11T17:18:27Z</time>
      </trkpt>
      <trkpt lat="43.27494" lon="6.09059">
        <ele>336</ele>
        <time>2022-08-11T17:18:34Z</time>
      </trkpt>
      <trkpt lat="43.27515" lon="6.09036">
        <ele>340</ele>
        <time>2022-08-11T17:18:38Z</time>
      </trkpt>
      <trkpt lat="43.27543" lon="6.09014">
        <ele>345</ele>
        <time>2022-08-11T17:18:44Z</time>
      </trkpt>
      <trkpt lat="43.27561" lon="6.08993">
        <ele>348</ele>
        <time>2022-08-11T17:18:48Z</time>
      </trkpt>
      <trkpt lat="43.27561" lon="6.08962">
        <ele>349</ele>
        <time>2022-08-11T17:18:52Z</time>
      </trkpt>
      <trkpt lat="43.27557" lon="6.08935">
        <ele>349</ele>
        <time>2022-08-11T17:18:56Z</time>
      </trkpt>
      <trkpt lat="43.27545" lon="6.08928">
        <ele>347</ele>
        <time>2022-08-11T17:18:58Z</time>
      </trkpt>
      <trkpt lat="43.27504" lon="6.08928">
        <ele>342</ele>
        <time>2022-08-11T17:19:06Z</time>
      </trkpt>
      <trkpt lat="43.27461" lon="6.08909">
        <ele>337</ele>
        <time>2022-08-11T17:19:14Z</time>
      </trkpt>
      <trkpt lat="43.27414" lon="6.08883">
        <ele>332</ele>
        <time>2022-08-11T17:19:23Z</time>
      </trkpt>
      <trkpt lat="43.27379" lon="6.08839">
        <ele>332</ele>
        <time>2022-08-11T17:19:31Z</time>
      </trkpt>
      <trkpt lat="43.27366" lon="6.08791">
        <ele>336</ele>
        <time>2022-08-11T17:19:38Z</time>
      </trkpt>
      <trkpt lat="43.27346" lon="6.08747">
        <ele>337</ele>
        <time>2022-08-11T17:19:44Z</time>
      </trkpt>
      <trkpt lat="43.27321" lon="6.08744">
        <ele>332</ele>
        <time>2022-08-11T17:19:49Z</time>
      </trkpt>
      <trkpt lat="43.27287" lon="6.08725">
        <ele>331</ele>
        <time>2022-08-11T17:19:55Z</time>
      </trkpt>
      <trkpt lat="43.2725" lon="6.08724">
        <ele>325</ele>
        <time>2022-08-11T17:20:02Z</time>
      </trkpt>
      <trkpt lat="43.27142" lon="6.08648">
        <ele>329</ele>
        <time>2022-08-11T17:20:24Z</time>
      </trkpt>
      <trkpt lat="43.27093" lon="6.08646">
        <ele>325</ele>
        <time>2022-08-11T17:20:32Z</time>
      </trkpt>
      <trkpt lat="43.27027" lon="6.08685">
        <ele>321</ele>
        <time>2022-08-11T17:20:45Z</time>
      </trkpt>
      <trkpt lat="43.27" lon="6.0871">
        <ele>319</ele>
        <time>2022-08-11T17:20:51Z</time>
      </trkpt>
      <trkpt lat="43.26962" lon="6.08772">
        <ele>313</ele>
        <time>2022-08-11T17:21:01Z</time>
      </trkpt>
      <trkpt lat="43.26946" lon="6.08828">
        <ele>308</ele>
        <time>2022-08-11T17:21:09Z</time>
      </trkpt>
      <trkpt lat="43.26929" lon="6.0885">
        <ele>306</ele>
        <time>2022-08-11T17:21:13Z</time>
      </trkpt>
      <trkpt lat="43.26892" lon="6.08853">
        <ele>308</ele>
        <time>2022-08-11T17:21:20Z</time>
      </trkpt>
      <trkpt lat="43.26848" lon="6.08841">
        <ele>312</ele>
        <time>2022-08-11T17:21:28Z</time>
      </trkpt>
      <trkpt lat="43.26811" lon="6.08838">
        <ele>312</ele>
        <time>2022-08-11T17:21:35Z</time>
      </trkpt>
      <trkpt lat="43.26788" lon="6.08818">
        <ele>313</ele>
        <time>2022-08-11T17:21:39Z</time>
      </trkpt>
      <trkpt lat="43.26786" lon="6.0877">
        <ele>314</ele>
        <time>2022-08-11T17:21:46Z</time>
      </trkpt>
      <trkpt lat="43.26792" lon="6.08723">
        <ele>313</ele>
        <time>2022-08-11T17:21:52Z</time>
      </trkpt>
      <trkpt lat="43.2681" lon="6.08666">
        <ele>311</ele>
        <time>2022-08-11T17:22:00Z</time>
      </trkpt>
      <trkpt lat="43.26823" lon="6.08611">
        <ele>311</ele>
        <time>2022-08-11T17:22:07Z</time>
      </trkpt>
      <trkpt lat="43.26813" lon="6.08556">
        <ele>308</ele>
        <time>2022-08-11T17:22:15Z</time>
      </trkpt>
      <trkpt lat="43.26811" lon="6.08516">
        <ele>306</ele>
        <time>2022-08-11T17:22:20Z</time>
      </trkpt>
      <trkpt lat="43.26832" lon="6.08451">
        <ele>303</ele>
        <time>2022-08-11T17:22:29Z</time>
      </trkpt>
      <trkpt lat="43.26851" lon="6.08416">
        <ele>303</ele>
        <time>2022-08-11T17:22:35Z</time>
      </trkpt>
      <trkpt lat="43.26874" lon="6.0839">
        <ele>306</ele>
        <time>2022-08-11T17:22:40Z</time>
      </trkpt>
      <trkpt lat="43.26909" lon="6.08358">
        <ele>310</ele>
        <time>2022-08-11T17:22:48Z</time>
      </trkpt>
      <trkpt lat="43.26915" lon="6.08347">
        <ele>310</ele>
        <time>2022-08-11T17:22:49Z</time>
      </trkpt>
      <trkpt lat="43.26917" lon="6.08337">
        <ele>309</ele>
        <time>2022-08-11T17:22:51Z</time>
      </trkpt>
      <trkpt lat="43.26913" lon="6.08324">
        <ele>310</ele>
        <time>2022-08-11T17:22:52Z</time>
      </trkpt>
      <trkpt lat="43.26904" lon="6.08319">
        <ele>309</ele>
        <time>2022-08-11T17:22:54Z</time>
      </trkpt>
      <trkpt lat="43.26839" lon="6.0831">
        <ele>302</ele>
        <time>2022-08-11T17:23:06Z</time>
      </trkpt>
      <trkpt lat="43.26786" lon="6.08295">
        <ele>298</ele>
        <time>2022-08-11T17:23:15Z</time>
      </trkpt>
      <trkpt lat="43.26746" lon="6.08248">
        <ele>300</ele>
        <time>2022-08-11T17:23:25Z</time>
      </trkpt>
      <trkpt lat="43.26679" lon="6.08255">
        <ele>296</ele>
        <time>2022-08-11T17:23:37Z</time>
      </trkpt>
      <trkpt lat="43.26633" lon="6.08241">
        <ele>294</ele>
        <time>2022-08-11T17:23:45Z</time>
      </trkpt>
      <trkpt lat="43.26598" lon="6.08224">
        <ele>292</ele>
        <time>2022-08-11T17:23:52Z</time>
      </trkpt>
      <trkpt lat="43.26589" lon="6.08197">
        <ele>292</ele>
        <time>2022-08-11T17:23:56Z</time>
      </trkpt>
      <trkpt lat="43.26574" lon="6.08029">
        <ele>291</ele>
        <time>2022-08-11T17:24:18Z</time>
      </trkpt>
      <trkpt lat="43.2657" lon="6.08006">
        <ele>292</ele>
        <time>2022-08-11T17:24:21Z</time>
      </trkpt>
      <trkpt lat="43.26556" lon="6.08">
        <ele>291</ele>
        <time>2022-08-11T17:24:23Z</time>
      </trkpt>
      <trkpt lat="43.26512" lon="6.0802">
        <ele>285</ele>
        <time>2022-08-11T17:24:31Z</time>
      </trkpt>
      <trkpt lat="43.26482" lon="6.08021">
        <ele>281</ele>
        <time>2022-08-11T17:24:37Z</time>
      </trkpt>
      <trkpt lat="43.26457" lon="6.08008">
        <ele>280</ele>
        <time>2022-08-11T17:24:42Z</time>
      </trkpt>
      <trkpt lat="43.26429" lon="6.07972">
        <ele>281</ele>
        <time>2022-08-11T17:24:48Z</time>
      </trkpt>
      <trkpt lat="43.26393" lon="6.07941">
        <ele>279</ele>
        <time>2022-08-11T17:24:56Z</time>
      </trkpt>
      <trkpt lat="43.26331" lon="6.079">
        <ele>274</ele>
        <time>2022-08-11T17:25:08Z</time>
      </trkpt>
      <trkpt lat="43.26318" lon="6.07887">
        <ele>274</ele>
        <time>2022-08-11T17:25:11Z</time>
      </trkpt>
      <trkpt lat="43.26299" lon="6.07858">
        <ele>274</ele>
        <time>2022-08-11T17:25:16Z</time>
      </trkpt>
      <trkpt lat="43.26284" lon="6.07823">
        <ele>275</ele>
        <time>2022-08-11T17:25:21Z</time>
      </trkpt>
      <trkpt lat="43.2627" lon="6.07802">
        <ele>276</ele>
        <time>2022-08-11T17:25:25Z</time>
      </trkpt>
      <trkpt lat="43.26257" lon="6.07797">
        <ele>274</ele>
        <time>2022-08-11T17:25:27Z</time>
      </trkpt>
      <trkpt lat="43.2623" lon="6.07794">
        <ele>272</ele>
        <time>2022-08-11T17:25:32Z</time>
      </trkpt>
      <trkpt lat="43.26216" lon="6.07782">
        <ele>273</ele>
        <time>2022-08-11T17:25:35Z</time>
      </trkpt>
      <trkpt lat="43.26197" lon="6.07762">
        <ele>274</ele>
        <time>2022-08-11T17:25:39Z</time>
      </trkpt>
      <trkpt lat="43.26184" lon="6.07756">
        <ele>274</ele>
        <time>2022-08-11T17:25:42Z</time>
      </trkpt>
      <trkpt lat="43.2617" lon="6.07758">
        <ele>273</ele>
        <time>2022-08-11T17:25:44Z</time>
      </trkpt>
      <trkpt lat="43.26161" lon="6.07766">
        <ele>273</ele>
        <time>2022-08-11T17:25:46Z</time>
      </trkpt>
      <trkpt lat="43.26144" lon="6.07803">
        <ele>270</ele>
        <time>2022-08-11T17:25:52Z</time>
      </trkpt>
      <trkpt lat="43.26132" lon="6.07847">
        <ele>265</ele>
        <time>2022-08-11T17:25:58Z</time>
      </trkpt>
      <trkpt lat="43.26124" lon="6.07903">
        <ele>261</ele>
        <time>2022-08-11T17:26:05Z</time>
      </trkpt>
      <trkpt lat="43.26123" lon="6.07933">
        <ele>258</ele>
        <time>2022-08-11T17:26:09Z</time>
      </trkpt>
      <trkpt lat="43.26117" lon="6.07946">
        <ele>257</ele>
        <time>2022-08-11T17:26:11Z</time>
      </trkpt>
      <trkpt lat="43.261" lon="6.07961">
        <ele>258</ele>
        <time>2022-08-11T17:26:15Z</time>
      </trkpt>
      <trkpt lat="43.26087" lon="6.07964">
        <ele>259</ele>
        <time>2022-08-11T17:26:17Z</time>
      </trkpt>
      <trkpt lat="43.26073" lon="6.07956">
        <ele>260</ele>
        <time>2022-08-11T17:26:20Z</time>
      </trkpt>
      <trkpt lat="43.26043" lon="6.07924">
        <ele>262</ele>
        <time>2022-08-11T17:26:27Z</time>
      </trkpt>
      <trkpt lat="43.26008" lon="6.079">
        <ele>264</ele>
        <time>2022-08-11T17:26:34Z</time>
      </trkpt>
      <trkpt lat="43.25998" lon="6.07898">
        <ele>264</ele>
        <time>2022-08-11T17:26:36Z</time>
      </trkpt>
      <trkpt lat="43.25993" lon="6.07905">
        <ele>263</ele>
        <time>2022-08-11T17:26:37Z</time>
      </trkpt>
      <trkpt lat="43.25992" lon="6.07917">
        <ele>262</ele>
        <time>2022-08-11T17:26:38Z</time>
      </trkpt>
      <trkpt lat="43.25997" lon="6.07965">
        <ele>258</ele>
        <time>2022-08-11T17:26:45Z</time>
      </trkpt>
      <trkpt lat="43.25995" lon="6.08023">
        <ele>254</ele>
        <time>2022-08-11T17:26:52Z</time>
      </trkpt>
      <trkpt lat="43.25986" lon="6.08076">
        <ele>250</ele>
        <time>2022-08-11T17:26:59Z</time>
      </trkpt>
      <trkpt lat="43.25945" lon="6.08106">
        <ele>246</ele>
        <time>2022-08-11T17:27:07Z</time>
      </trkpt>
      <trkpt lat="43.25933" lon="6.08111">
        <ele>245</ele>
        <time>2022-08-11T17:27:10Z</time>
      </trkpt>
      <trkpt lat="43.25915" lon="6.08111">
        <ele>244</ele>
        <time>2022-08-11T17:27:13Z</time>
      </trkpt>
      <trkpt lat="43.25894" lon="6.08106">
        <ele>240</ele>
        <time>2022-08-11T17:27:17Z</time>
      </trkpt>
      <trkpt lat="43.25873" lon="6.08078">
        <ele>240</ele>
        <time>2022-08-11T17:27:22Z</time>
      </trkpt>
      <trkpt lat="43.25804" lon="6.07946">
        <ele>242</ele>
        <time>2022-08-11T17:27:43Z</time>
      </trkpt>
      <trkpt lat="43.25758" lon="6.07882">
        <ele>238</ele>
        <time>2022-08-11T17:27:55Z</time>
      </trkpt>
      <trkpt lat="43.25729" lon="6.07854">
        <ele>234</ele>
        <time>2022-08-11T17:28:01Z</time>
      </trkpt>
      <trkpt lat="43.25704" lon="6.07822">
        <ele>234</ele>
        <time>2022-08-11T17:28:07Z</time>
      </trkpt>
      <trkpt lat="43.25698" lon="6.07794">
        <ele>238</ele>
        <time>2022-08-11T17:28:11Z</time>
      </trkpt>
      <trkpt lat="43.25684" lon="6.07779">
        <ele>236</ele>
        <time>2022-08-11T17:28:14Z</time>
      </trkpt>
      <trkpt lat="43.25645" lon="6.07749">
        <ele>229</ele>
        <time>2022-08-11T17:28:22Z</time>
      </trkpt>
      <trkpt lat="43.25618" lon="6.07715">
        <ele>224</ele>
        <time>2022-08-11T17:28:28Z</time>
      </trkpt>
      <trkpt lat="43.25603" lon="6.07669">
        <ele>224</ele>
        <time>2022-08-11T17:28:35Z</time>
      </trkpt>
      <trkpt lat="43.25596" lon="6.07629">
        <ele>223</ele>
        <time>2022-08-11T17:28:40Z</time>
      </trkpt>
      <trkpt lat="43.256" lon="6.07597">
        <ele>227</ele>
        <time>2022-08-11T17:28:44Z</time>
      </trkpt>
      <trkpt lat="43.25611" lon="6.07567">
        <ele>233</ele>
        <time>2022-08-11T17:28:49Z</time>
      </trkpt>
      <trkpt lat="43.25614" lon="6.07544">
        <ele>236</ele>
        <time>2022-08-11T17:28:52Z</time>
      </trkpt>
      <trkpt lat="43.25613" lon="6.0752">
        <ele>237</ele>
        <time>2022-08-11T17:28:55Z</time>
      </trkpt>
      <trkpt lat="43.25603" lon="6.07504">
        <ele>234</ele>
        <time>2022-08-11T17:28:58Z</time>
      </trkpt>
      <trkpt lat="43.25562" lon="6.07492">
        <ele>221</ele>
        <time>2022-08-11T17:29:05Z</time>
      </trkpt>
      <trkpt lat="43.25541" lon="6.07478">
        <ele>215</ele>
        <time>2022-08-11T17:29:09Z</time>
      </trkpt>
      <trkpt lat="43.25525" lon="6.07456">
        <ele>212</ele>
        <time>2022-08-11T17:29:13Z</time>
      </trkpt>
      <trkpt lat="43.25519" lon="6.07408">
        <ele>216</ele>
        <time>2022-08-11T17:29:20Z</time>
      </trkpt>
      <trkpt lat="43.25519" lon="6.07306">
        <ele>219</ele>
        <time>2022-08-11T17:29:33Z</time>
      </trkpt>
      <trkpt lat="43.25529" lon="6.07265">
        <ele>223</ele>
        <time>2022-08-11T17:29:38Z</time>
      </trkpt>
      <trkpt lat="43.25534" lon="6.07236">
        <ele>227</ele>
        <time>2022-08-11T17:29:42Z</time>
      </trkpt>
      <trkpt lat="43.2553" lon="6.07218">
        <ele>228</ele>
        <time>2022-08-11T17:29:45Z</time>
      </trkpt>
      <trkpt lat="43.25518" lon="6.07212">
        <ele>226</ele>
        <time>2022-08-11T17:29:47Z</time>
      </trkpt>
      <trkpt lat="43.25468" lon="6.07222">
        <ele>213</ele>
        <time>2022-08-11T17:29:56Z</time>
      </trkpt>
      <trkpt lat="43.25439" lon="6.07206">
        <ele>209</ele>
        <time>2022-08-11T17:30:02Z</time>
      </trkpt>
      <trkpt lat="43.25416" lon="6.07189">
        <ele>207</ele>
        <time>2022-08-11T17:30:06Z</time>
      </trkpt>
      <trkpt lat="43.25396" lon="6.07147">
        <ele>204</ele>
        <time>2022-08-11T17:30:13Z</time>
      </trkpt>
      <trkpt lat="43.25391" lon="6.07117">
        <ele>203</ele>
        <time>2022-08-11T17:30:17Z</time>
      </trkpt>
      <trkpt lat="43.25389" lon="6.07091">
        <ele>203</ele>
        <time>2022-08-11T17:30:20Z</time>
      </trkpt>
      <trkpt lat="43.25397" lon="6.07075">
        <ele>205</ele>
        <time>2022-08-11T17:30:23Z</time>
      </trkpt>
      <trkpt lat="43.25412" lon="6.07051">
        <ele>206</ele>
        <time>2022-08-11T17:30:27Z</time>
      </trkpt>
      <trkpt lat="43.2543" lon="6.07027">
        <ele>209</ele>
        <time>2022-08-11T17:30:31Z</time>
      </trkpt>
      <trkpt lat="43.25437" lon="6.07007">
        <ele>209</ele>
        <time>2022-08-11T17:30:34Z</time>
      </trkpt>
      <trkpt lat="43.25441" lon="6.06985">
        <ele>209</ele>
        <time>2022-08-11T17:30:37Z</time>
      </trkpt>
      <trkpt lat="43.25441" lon="6.06935">
        <ele>207</ele>
        <time>2022-08-11T17:30:44Z</time>
      </trkpt>
      <trkpt lat="43.25431" lon="6.06897">
        <ele>202</ele>
        <time>2022-08-11T17:30:49Z</time>
      </trkpt>
      <trkpt lat="43.25429" lon="6.06869">
        <ele>200</ele>
        <time>2022-08-11T17:30:52Z</time>
      </trkpt>
      <trkpt lat="43.2544" lon="6.06792">
        <ele>200</ele>
        <time>2022-08-11T17:31:03Z</time>
      </trkpt>
      <trkpt lat="43.25448" lon="6.06721">
        <ele>199</ele>
        <time>2022-08-11T17:31:12Z</time>
      </trkpt>
      <trkpt lat="43.2546" lon="6.0664">
        <ele>200</ele>
        <time>2022-08-11T17:31:23Z</time>
      </trkpt>
      <trkpt lat="43.25461" lon="6.06593">
        <ele>199</ele>
        <time>2022-08-11T17:31:29Z</time>
      </trkpt>
      <trkpt lat="43.25453" lon="6.0656">
        <ele>197</ele>
        <time>2022-08-11T17:31:33Z</time>
      </trkpt>
      <trkpt lat="43.25371" lon="6.06466">
        <ele>189</ele>
        <time>2022-08-11T17:31:52Z</time>
      </trkpt>
      <trkpt lat="43.25357" lon="6.0644">
        <ele>189</ele>
        <time>2022-08-11T17:31:56Z</time>
      </trkpt>
      <trkpt lat="43.25351" lon="6.06421">
        <ele>189</ele>
        <time>2022-08-11T17:31:59Z</time>
      </trkpt>
      <trkpt lat="43.25353" lon="6.06411">
        <ele>189</ele>
        <time>2022-08-11T17:32:00Z</time>
      </trkpt>
      <trkpt lat="43.2535" lon="6.06398">
        <ele>189</ele>
        <time>2022-08-11T17:32:02Z</time>
      </trkpt>
      <trkpt lat="43.25347" lon="6.06394">
        <ele>189</ele>
        <time>2022-08-11T17:32:03Z</time>
      </trkpt>
      <trkpt lat="43.25342" lon="6.06391">
        <ele>189</ele>
        <time>2022-08-11T17:32:04Z</time>
      </trkpt>
      <trkpt lat="43.25333" lon="6.06392">
        <ele>189</ele>
        <time>2022-08-11T17:32:06Z</time>
      </trkpt>
      <trkpt lat="43.2533" lon="6.06393">
        <ele>188</ele>
        <time>2022-08-11T17:32:06Z</time>
      </trkpt>
      <trkpt lat="43.25311" lon="6.06391">
        <ele>188</ele>
        <time>2022-08-11T17:32:09Z</time>
      </trkpt>
      <trkpt lat="43.25302" lon="6.064">
        <ele>187</ele>
        <time>2022-08-11T17:32:11Z</time>
      </trkpt>
      <trkpt lat="43.25294" lon="6.06414">
        <ele>187</ele>
        <time>2022-08-11T17:32:14Z</time>
      </trkpt>
      <trkpt lat="43.25283" lon="6.06428">
        <ele>186</ele>
        <time>2022-08-11T17:32:16Z</time>
      </trkpt>
      <trkpt lat="43.25188" lon="6.06512">
        <ele>183</ele>
        <time>2022-08-11T17:32:37Z</time>
      </trkpt>
      <trkpt lat="43.25161" lon="6.0654">
        <ele>182</ele>
        <time>2022-08-11T17:32:43Z</time>
      </trkpt>
      <trkpt lat="43.25118" lon="6.06594">
        <ele>179</ele>
        <time>2022-08-11T17:32:53Z</time>
      </trkpt>
      <trkpt lat="43.25107" lon="6.06605">
        <ele>178</ele>
        <time>2022-08-11T17:32:55Z</time>
      </trkpt>
      <trkpt lat="43.25095" lon="6.06612">
        <ele>177</ele>
        <time>2022-08-11T17:32:58Z</time>
      </trkpt>
      <trkpt lat="43.25068" lon="6.06622">
        <ele>176</ele>
        <time>2022-08-11T17:33:03Z</time>
      </trkpt>
      <trkpt lat="43.24802" lon="6.06777">
        <ele>178</ele>
        <time>2022-08-11T17:33:54Z</time>
      </trkpt>
      <trkpt lat="43.24781" lon="6.06791">
        <ele>180</ele>
        <time>2022-08-11T17:33:58Z</time>
      </trkpt>
      <trkpt lat="43.24752" lon="6.06824">
        <ele>181</ele>
        <time>2022-08-11T17:34:05Z</time>
      </trkpt>
      <trkpt lat="43.2474" lon="6.06846">
        <ele>181</ele>
        <time>2022-08-11T17:34:08Z</time>
      </trkpt>
      <trkpt lat="43.24711" lon="6.06915">
        <ele>179</ele>
        <time>2022-08-11T17:34:19Z</time>
      </trkpt>
      <trkpt lat="43.24674" lon="6.06994">
        <ele>180</ele>
        <time>2022-08-11T17:34:31Z</time>
      </trkpt>
      <trkpt lat="43.24665" lon="6.07008">
        <ele>179</ele>
        <time>2022-08-11T17:34:33Z</time>
      </trkpt>
      <trkpt lat="43.2463" lon="6.07043">
        <ele>174</ele>
        <time>2022-08-11T17:34:41Z</time>
      </trkpt>
      <trkpt lat="43.24612" lon="6.07052">
        <ele>172</ele>
        <time>2022-08-11T17:34:44Z</time>
      </trkpt>
      <trkpt lat="43.24589" lon="6.07056">
        <ele>169</ele>
        <time>2022-08-11T17:34:49Z</time>
      </trkpt>
      <trkpt lat="43.24577" lon="6.07055">
        <ele>168</ele>
        <time>2022-08-11T17:34:51Z</time>
      </trkpt>
      <trkpt lat="43.24564" lon="6.07051">
        <ele>167</ele>
        <time>2022-08-11T17:34:53Z</time>
      </trkpt>
      <trkpt lat="43.24528" lon="6.07034">
        <ele>164</ele>
        <time>2022-08-11T17:35:00Z</time>
      </trkpt>
      <trkpt lat="43.2451" lon="6.07022">
        <ele>162</ele>
        <time>2022-08-11T17:35:03Z</time>
      </trkpt>
      <trkpt lat="43.24498" lon="6.07012">
        <ele>161</ele>
        <time>2022-08-11T17:35:06Z</time>
      </trkpt>
      <trkpt lat="43.24468" lon="6.06971">
        <ele>160</ele>
        <time>2022-08-11T17:35:13Z</time>
      </trkpt>
      <trkpt lat="43.24448" lon="6.06934">
        <ele>159</ele>
        <time>2022-08-11T17:35:19Z</time>
      </trkpt>
      <trkpt lat="43.24442" lon="6.06928">
        <ele>158</ele>
        <time>2022-08-11T17:35:21Z</time>
      </trkpt>
      <trkpt lat="43.24434" lon="6.06923">
        <ele>158</ele>
        <time>2022-08-11T17:35:22Z</time>
      </trkpt>
      <trkpt lat="43.24423" lon="6.06922">
        <ele>156</ele>
        <time>2022-08-11T17:35:24Z</time>
      </trkpt>
      <trkpt lat="43.24401" lon="6.06931">
        <ele>155</ele>
        <time>2022-08-11T17:35:28Z</time>
      </trkpt>
      <trkpt lat="43.24374" lon="6.06945">
        <ele>154</ele>
        <time>2022-08-11T17:35:34Z</time>
      </trkpt>
      <trkpt lat="43.24333" lon="6.06975">
        <ele>152</ele>
        <time>2022-08-11T17:35:42Z</time>
      </trkpt>
      <trkpt lat="43.24327" lon="6.06972">
        <ele>152</ele>
        <time>2022-08-11T17:35:43Z</time>
      </trkpt>
      <trkpt lat="43.24321" lon="6.06974">
        <ele>151</ele>
        <time>2022-08-11T17:35:44Z</time>
      </trkpt>
      <trkpt lat="43.24317" lon="6.06982">
        <ele>151</ele>
        <time>2022-08-11T17:35:45Z</time>
      </trkpt>
      <trkpt lat="43.24317" lon="6.06987">
        <ele>151</ele>
        <time>2022-08-11T17:35:46Z</time>
      </trkpt>
      <trkpt lat="43.24333" lon="6.07033">
        <ele>151</ele>
        <time>2022-08-11T17:35:53Z</time>
      </trkpt>
      <trkpt lat="43.24333" lon="6.07055">
        <ele>150</ele>
        <time>2022-08-11T17:35:55Z</time>
      </trkpt>
      <trkpt lat="43.24331" lon="6.07064">
        <ele>150</ele>
        <time>2022-08-11T17:35:57Z</time>
      </trkpt>
      <trkpt lat="43.24323" lon="6.07079">
        <ele>150</ele>
        <time>2022-08-11T17:35:59Z</time>
      </trkpt>
      <trkpt lat="43.24292" lon="6.07113">
        <ele>150</ele>
        <time>2022-08-11T17:36:06Z</time>
      </trkpt>
      <trkpt lat="43.2426" lon="6.07142">
        <ele>149</ele>
        <time>2022-08-11T17:36:13Z</time>
      </trkpt>
      <trkpt lat="43.24211" lon="6.07166">
        <ele>149</ele>
        <time>2022-08-11T17:36:22Z</time>
      </trkpt>
      <trkpt lat="43.24147" lon="6.07193">
        <ele>147</ele>
        <time>2022-08-11T17:36:34Z</time>
      </trkpt>
      <trkpt lat="43.24131" lon="6.07202">
        <ele>147</ele>
        <time>2022-08-11T17:36:37Z</time>
      </trkpt>
      <trkpt lat="43.241" lon="6.07229">
        <ele>146</ele>
        <time>2022-08-11T17:36:44Z</time>
      </trkpt>
      <trkpt lat="43.24018" lon="6.07315">
        <ele>142</ele>
        <time>2022-08-11T17:37:02Z</time>
      </trkpt>
      <trkpt lat="43.24014" lon="6.07315">
        <ele>142</ele>
        <time>2022-08-11T17:37:03Z</time>
      </trkpt>
      <trkpt lat="43.24012" lon="6.07318">
        <ele>142</ele>
        <time>2022-08-11T17:37:03Z</time>
      </trkpt>
      <trkpt lat="43.24012" lon="6.07322">
        <ele>142</ele>
        <time>2022-08-11T17:37:04Z</time>
      </trkpt>
      <trkpt lat="43.24003" lon="6.07327">
        <ele>142</ele>
        <time>2022-08-11T17:37:06Z</time>
      </trkpt>
      <trkpt lat="43.23986" lon="6.07345">
        <ele>142</ele>
        <time>2022-08-11T17:37:09Z</time>
      </trkpt>
      <trkpt lat="43.23971" lon="6.07355">
        <ele>142</ele>
        <time>2022-08-11T17:37:12Z</time>
      </trkpt>
      <trkpt lat="43.23958" lon="6.07358">
        <ele>142</ele>
        <time>2022-08-11T17:37:15Z</time>
      </trkpt>
      <trkpt lat="43.23939" lon="6.07361">
        <ele>142</ele>
        <time>2022-08-11T17:37:18Z</time>
      </trkpt>
      <trkpt lat="43.23931" lon="6.07361">
        <ele>142</ele>
        <time>2022-08-11T17:37:19Z</time>
      </trkpt>
      <trkpt lat="43.23924" lon="6.07358">
        <ele>142</ele>
        <time>2022-08-11T17:37:21Z</time>
      </trkpt>
      <trkpt lat="43.23921" lon="6.07354">
        <ele>142</ele>
        <time>2022-08-11T17:37:22Z</time>
      </trkpt>
      <trkpt lat="43.23923" lon="6.07358">
        <ele>142</ele>
        <time>2022-08-11T17:37:22Z</time>
      </trkpt>
      <trkpt lat="43.23915" lon="6.07337">
        <ele>142</ele>
        <time>2022-08-11T17:37:25Z</time>
      </trkpt>
      <trkpt lat="43.23907" lon="6.07324">
        <ele>142</ele>
        <time>2022-08-11T17:37:27Z</time>
      </trkpt>
      <trkpt lat="43.23895" lon="6.07314">
        <ele>142</ele>
        <time>2022-08-11T17:37:30Z</time>
      </trkpt>
      <trkpt lat="43.23888" lon="6.07292">
        <ele>142</ele>
        <time>2022-08-11T17:37:33Z</time>
      </trkpt>
      <trkpt lat="43.23793" lon="6.07137">
        <ele>147</ele>
        <time>2022-08-11T17:37:59Z</time>
      </trkpt>
      <trkpt lat="43.23786" lon="6.0713">
        <ele>147</ele>
        <time>2022-08-11T17:38:01Z</time>
      </trkpt>
      <trkpt lat="43.23775" lon="6.07153">
        <ele>146</ele>
        <time>2022-08-11T17:38:04Z</time>
      </trkpt>
      <trkpt lat="43.23768" lon="6.07162">
        <ele>146</ele>
        <time>2022-08-11T17:38:06Z</time>
      </trkpt>
      <trkpt lat="43.23752" lon="6.07181">
        <ele>144</ele>
        <time>2022-08-11T17:38:10Z</time>
      </trkpt>
      <trkpt lat="43.23744" lon="6.07198">
        <ele>144</ele>
        <time>2022-08-11T17:38:12Z</time>
      </trkpt>
      <trkpt lat="43.23744" lon="6.07204">
        <ele>143</ele>
        <time>2022-08-11T17:38:13Z</time>
      </trkpt>
      <trkpt lat="43.23728" lon="6.07207">
        <ele>143</ele>
        <time>2022-08-11T17:38:16Z</time>
      </trkpt>
      <trkpt lat="43.23712" lon="6.07206">
        <ele>144</ele>
        <time>2022-08-11T17:38:19Z</time>
      </trkpt>
      <trkpt lat="43.23677" lon="6.07191">
        <ele>145</ele>
        <time>2022-08-11T17:38:26Z</time>
      </trkpt>
      <trkpt lat="43.23608" lon="6.07159">
        <ele>145</ele>
        <time>2022-08-11T17:38:38Z</time>
      </trkpt>
      <trkpt lat="43.23593" lon="6.07146">
        <ele>145</ele>
        <time>2022-08-11T17:38:42Z</time>
      </trkpt>
      <trkpt lat="43.23581" lon="6.07133">
        <ele>145</ele>
        <time>2022-08-11T17:38:44Z</time>
      </trkpt>
      <trkpt lat="43.23456" lon="6.06983">
        <ele>142</ele>
        <time>2022-08-11T17:39:14Z</time>
      </trkpt>
      <trkpt lat="43.23442" lon="6.0697">
        <ele>142</ele>
        <time>2022-08-11T17:39:17Z</time>
      </trkpt>
      <trkpt lat="43.23429" lon="6.06966">
        <ele>141</ele>
        <time>2022-08-11T17:39:19Z</time>
      </trkpt>
      <trkpt lat="43.23194" lon="6.06945">
        <ele>135</ele>
        <time>2022-08-11T17:40:01Z</time>
      </trkpt>
      <trkpt lat="43.23138" lon="6.06943">
        <ele>133</ele>
        <time>2022-08-11T17:40:11Z</time>
      </trkpt>
      <trkpt lat="43.23069" lon="6.06952">
        <ele>130</ele>
        <time>2022-08-11T17:40:23Z</time>
      </trkpt>
      <trkpt lat="43.23038" lon="6.0696">
        <ele>129</ele>
        <time>2022-08-11T17:40:29Z</time>
      </trkpt>
      <trkpt lat="43.22965" lon="6.0699">
        <ele>128</ele>
        <time>2022-08-11T17:40:43Z</time>
      </trkpt>
      <trkpt lat="43.22951" lon="6.06987">
        <ele>128</ele>
        <time>2022-08-11T17:40:45Z</time>
      </trkpt>
      <trkpt lat="43.22946" lon="6.0698">
        <ele>128</ele>
        <time>2022-08-11T17:40:46Z</time>
      </trkpt>
      <trkpt lat="43.22939" lon="6.06979">
        <ele>128</ele>
        <time>2022-08-11T17:40:48Z</time>
      </trkpt>
      <trkpt lat="43.22934" lon="6.06981">
        <ele>128</ele>
        <time>2022-08-11T17:40:49Z</time>
      </trkpt>
      <trkpt lat="43.22928" lon="6.0699">
        <ele>128</ele>
        <time>2022-08-11T17:40:50Z</time>
      </trkpt>
      <trkpt lat="43.22913" lon="6.07004">
        <ele>128</ele>
        <time>2022-08-11T17:40:53Z</time>
      </trkpt>
      <trkpt lat="43.22896" lon="6.07011">
        <ele>127</ele>
        <time>2022-08-11T17:40:57Z</time>
      </trkpt>
      <trkpt lat="43.22876" lon="6.07016">
        <ele>126</ele>
        <time>2022-08-11T17:41:00Z</time>
      </trkpt>
      <trkpt lat="43.22845" lon="6.0702">
        <ele>126</ele>
        <time>2022-08-11T17:41:06Z</time>
      </trkpt>
      <trkpt lat="43.22827" lon="6.07019">
        <ele>125</ele>
        <time>2022-08-11T17:41:09Z</time>
      </trkpt>
      <trkpt lat="43.22641" lon="6.06985">
        <ele>122</ele>
        <time>2022-08-11T17:41:42Z</time>
      </trkpt>
      <trkpt lat="43.22585" lon="6.06982">
        <ele>122</ele>
        <time>2022-08-11T17:41:52Z</time>
      </trkpt>
      <trkpt lat="43.22566" lon="6.06984">
        <ele>122</ele>
        <time>2022-08-11T17:41:56Z</time>
      </trkpt>
      <trkpt lat="43.22523" lon="6.06994">
        <ele>123</ele>
        <time>2022-08-11T17:42:03Z</time>
      </trkpt>
      <trkpt lat="43.22515" lon="6.06975">
        <ele>125</ele>
        <time>2022-08-11T17:42:06Z</time>
      </trkpt>
      <trkpt lat="43.22509" lon="6.06966">
        <ele>126</ele>
        <time>2022-08-11T17:42:08Z</time>
      </trkpt>
      <trkpt lat="43.22494" lon="6.06956">
        <ele>127</ele>
        <time>2022-08-11T17:42:11Z</time>
      </trkpt>
      <trkpt lat="43.22487" lon="6.06956">
        <ele>127</ele>
        <time>2022-08-11T17:42:12Z</time>
      </trkpt>
      <trkpt lat="43.22473" lon="6.06963">
        <ele>127</ele>
        <time>2022-08-11T17:42:15Z</time>
      </trkpt>
      <trkpt lat="43.22453" lon="6.06982">
        <ele>126</ele>
        <time>2022-08-11T17:42:19Z</time>
      </trkpt>
      <trkpt lat="43.22437" lon="6.06987">
        <ele>125</ele>
        <time>2022-08-11T17:42:22Z</time>
      </trkpt>
      <trkpt lat="43.22345" lon="6.06985">
        <ele>126</ele>
        <time>2022-08-11T17:42:38Z</time>
      </trkpt>
      <trkpt lat="43.22314" lon="6.06977">
        <ele>126</ele>
        <time>2022-08-11T17:42:44Z</time>
      </trkpt>
      <trkpt lat="43.22296" lon="6.06969">
        <ele>126</ele>
        <time>2022-08-11T17:42:47Z</time>
      </trkpt>
      <trkpt lat="43.22279" lon="6.06959">
        <ele>125</ele>
        <time>2022-08-11T17:42:51Z</time>
      </trkpt>
      <trkpt lat="43.22262" lon="6.06947">
        <ele>125</ele>
        <time>2022-08-11T17:42:54Z</time>
      </trkpt>
      <trkpt lat="43.22217" lon="6.06906">
        <ele>125</ele>
        <time>2022-08-11T17:43:04Z</time>
      </trkpt>
      <trkpt lat="43.22021" lon="6.06717">
        <ele>127</ele>
        <time>2022-08-11T17:43:46Z</time>
      </trkpt>
      <trkpt lat="43.21956" lon="6.06652">
        <ele>127</ele>
        <time>2022-08-11T17:44:01Z</time>
      </trkpt>
      <trkpt lat="43.21811" lon="6.06498">
        <ele>126</ele>
        <time>2022-08-11T17:44:33Z</time>
      </trkpt>
      <trkpt lat="43.21794" lon="6.06485">
        <ele>126</ele>
        <time>2022-08-11T17:44:37Z</time>
      </trkpt>
      <trkpt lat="43.21753" lon="6.06458">
        <ele>124</ele>
        <time>2022-08-11T17:44:45Z</time>
      </trkpt>
      <trkpt lat="43.21657" lon="6.06403">
        <ele>122</ele>
        <time>2022-08-11T17:45:03Z</time>
      </trkpt>
      <trkpt lat="43.21626" lon="6.0638">
        <ele>121</ele>
        <time>2022-08-11T17:45:10Z</time>
      </trkpt>
      <trkpt lat="43.21548" lon="6.06307">
        <ele>117</ele>
        <time>2022-08-11T17:45:26Z</time>
      </trkpt>
      <trkpt lat="43.21517" lon="6.06282">
        <ele>115</ele>
        <time>2022-08-11T17:45:33Z</time>
      </trkpt>
      <trkpt lat="43.21393" lon="6.06202">
        <ele>112</ele>
        <time>2022-08-11T17:45:57Z</time>
      </trkpt>
      <trkpt lat="43.2137" lon="6.06186">
        <ele>111</ele>
        <time>2022-08-11T17:46:02Z</time>
      </trkpt>
      <trkpt lat="43.21321" lon="6.06137">
        <ele>110</ele>
        <time>2022-08-11T17:46:12Z</time>
      </trkpt>
      <trkpt lat="43.21295" lon="6.06104">
        <ele>110</ele>
        <time>2022-08-11T17:46:19Z</time>
      </trkpt>
      <trkpt lat="43.21038" lon="6.05767">
        <ele>115</ele>
        <time>2022-08-11T17:47:22Z</time>
      </trkpt>
      <trkpt lat="43.2102" lon="6.0574">
        <ele>114</ele>
        <time>2022-08-11T17:47:27Z</time>
      </trkpt>
      <trkpt lat="43.21006" lon="6.05715">
        <ele>114</ele>
        <time>2022-08-11T17:47:31Z</time>
      </trkpt>
      <trkpt lat="43.20993" lon="6.05686">
        <ele>114</ele>
        <time>2022-08-11T17:47:35Z</time>
      </trkpt>
      <trkpt lat="43.20971" lon="6.05616">
        <ele>114</ele>
        <time>2022-08-11T17:47:45Z</time>
      </trkpt>
      <trkpt lat="43.20961" lon="6.0558">
        <ele>113</ele>
        <time>2022-08-11T17:47:50Z</time>
      </trkpt>
      <trkpt lat="43.20951" lon="6.05519">
        <ele>113</ele>
        <time>2022-08-11T17:47:58Z</time>
      </trkpt>
      <trkpt lat="43.20939" lon="6.05396">
        <ele>113</ele>
        <time>2022-08-11T17:48:14Z</time>
      </trkpt>
      <trkpt lat="43.20928" lon="6.05339">
        <ele>112</ele>
        <time>2022-08-11T17:48:22Z</time>
      </trkpt>
      <trkpt lat="43.2092" lon="6.05314">
        <ele>111</ele>
        <time>2022-08-11T17:48:26Z</time>
      </trkpt>
      <trkpt lat="43.20887" lon="6.05236">
        <ele>109</ele>
        <time>2022-08-11T17:48:37Z</time>
      </trkpt>
      <trkpt lat="43.20847" lon="6.05159">
        <ele>105</ele>
        <time>2022-08-11T17:48:50Z</time>
      </trkpt>
      <trkpt lat="43.20796" lon="6.0507">
        <ele>104</ele>
        <time>2022-08-11T17:49:04Z</time>
      </trkpt>
      <trkpt lat="43.20784" lon="6.05045">
        <ele>105</ele>
        <time>2022-08-11T17:49:08Z</time>
      </trkpt>
      <trkpt lat="43.20777" lon="6.05016">
        <ele>106</ele>
        <time>2022-08-11T17:49:12Z</time>
      </trkpt>
      <trkpt lat="43.20767" lon="6.04938">
        <ele>107</ele>
        <time>2022-08-11T17:49:22Z</time>
      </trkpt>
      <trkpt lat="43.20759" lon="6.04911">
        <ele>107</ele>
        <time>2022-08-11T17:49:26Z</time>
      </trkpt>
      <trkpt lat="43.20684" lon="6.04766">
        <ele>107</ele>
        <time>2022-08-11T17:49:49Z</time>
      </trkpt>
      <trkpt lat="43.20673" lon="6.04751">
        <ele>107</ele>
        <time>2022-08-11T17:49:52Z</time>
      </trkpt>
      <trkpt lat="43.20666" lon="6.04746">
        <ele>107</ele>
        <time>2022-08-11T17:49:53Z</time>
      </trkpt>
      <trkpt lat="43.20639" lon="6.04728">
        <ele>107</ele>
        <time>2022-08-11T17:49:59Z</time>
      </trkpt>
      <trkpt lat="43.20636" lon="6.04719">
        <ele>107</ele>
        <time>2022-08-11T17:50:00Z</time>
      </trkpt>
      <trkpt lat="43.2063" lon="6.04712">
        <ele>107</ele>
        <time>2022-08-11T17:50:01Z</time>
      </trkpt>
      <trkpt lat="43.20617" lon="6.04703">
        <ele>107</ele>
        <time>2022-08-11T17:50:04Z</time>
      </trkpt>
      <trkpt lat="43.20609" lon="6.04689">
        <ele>107</ele>
        <time>2022-08-11T17:50:06Z</time>
      </trkpt>
      <trkpt lat="43.20605" lon="6.04671">
        <ele>107</ele>
        <time>2022-08-11T17:50:09Z</time>
      </trkpt>
      <trkpt lat="43.20603" lon="6.04645">
        <ele>107</ele>
        <time>2022-08-11T17:50:12Z</time>
      </trkpt>
      <trkpt lat="43.20596" lon="6.04627">
        <ele>107</ele>
        <time>2022-08-11T17:50:15Z</time>
      </trkpt>
      <trkpt lat="43.20585" lon="6.04617">
        <ele>107</ele>
        <time>2022-08-11T17:50:17Z</time>
      </trkpt>
      <trkpt lat="43.20539" lon="6.0459">
        <ele>105</ele>
        <time>2022-08-11T17:50:26Z</time>
      </trkpt>
      <trkpt lat="43.20509" lon="6.04563">
        <ele>103</ele>
        <time>2022-08-11T17:50:32Z</time>
      </trkpt>
      <trkpt lat="43.20451" lon="6.04478">
        <ele>101</ele>
        <time>2022-08-11T17:50:47Z</time>
      </trkpt>
      <trkpt lat="43.20436" lon="6.04465">
        <ele>101</ele>
        <time>2022-08-11T17:50:51Z</time>
      </trkpt>
      <trkpt lat="43.20376" lon="6.04436">
        <ele>98</ele>
        <time>2022-08-11T17:51:02Z</time>
      </trkpt>
      <trkpt lat="43.20246" lon="6.04375">
        <ele>93</ele>
        <time>2022-08-11T17:51:26Z</time>
      </trkpt>
      <trkpt lat="43.20104" lon="6.04385">
        <ele>89</ele>
        <time>2022-08-11T17:51:52Z</time>
      </trkpt>
      <trkpt lat="43.20099" lon="6.04377">
        <ele>89</ele>
        <time>2022-08-11T17:51:53Z</time>
      </trkpt>
      <trkpt lat="43.20098" lon="6.04368">
        <ele>89</ele>
        <time>2022-08-11T17:51:54Z</time>
      </trkpt>
      <trkpt lat="43.20094" lon="6.04362">
        <ele>89</ele>
        <time>2022-08-11T17:51:55Z</time>
      </trkpt>
      <trkpt lat="43.20091" lon="6.0436">
        <ele>89</ele>
        <time>2022-08-11T17:51:56Z</time>
      </trkpt>
      <trkpt lat="43.20025" lon="6.04264">
        <ele>88</ele>
        <time>2022-08-11T17:52:13Z</time>
      </trkpt>
      <trkpt lat="43.19967" lon="6.04205">
        <ele>87</ele>
        <time>2022-08-11T17:52:26Z</time>
      </trkpt>
      <trkpt lat="43.19922" lon="6.04155">
        <ele>87</ele>
        <time>2022-08-11T17:52:36Z</time>
      </trkpt>
      <trkpt lat="43.1991" lon="6.04137">
        <ele>87</ele>
        <time>2022-08-11T17:52:39Z</time>
      </trkpt>
      <trkpt lat="43.19905" lon="6.04125">
        <ele>87</ele>
        <time>2022-08-11T17:52:41Z</time>
      </trkpt>
      <trkpt lat="43.19896" lon="6.04096">
        <ele>87</ele>
        <time>2022-08-11T17:52:45Z</time>
      </trkpt>
      <trkpt lat="43.19894" lon="6.04036">
        <ele>88</ele>
        <time>2022-08-11T17:52:53Z</time>
      </trkpt>
      <trkpt lat="43.19897" lon="6.03958">
        <ele>90</ele>
        <time>2022-08-11T17:53:03Z</time>
      </trkpt>
      <trkpt lat="43.19899" lon="6.03946">
        <ele>91</ele>
        <time>2022-08-11T17:53:05Z</time>
      </trkpt>
      <trkpt lat="43.19905" lon="6.03934">
        <ele>91</ele>
        <time>2022-08-11T17:53:07Z</time>
      </trkpt>
      <trkpt lat="43.19905" lon="6.03926">
        <ele>91</ele>
        <time>2022-08-11T17:53:08Z</time>
      </trkpt>
      <trkpt lat="43.19903" lon="6.03919">
        <ele>91</ele>
        <time>2022-08-11T17:53:09Z</time>
      </trkpt>
      <trkpt lat="43.19882" lon="6.03889">
        <ele>91</ele>
        <time>2022-08-11T17:53:14Z</time>
      </trkpt>
      <trkpt lat="43.19871" lon="6.03867">
        <ele>91</ele>
        <time>2022-08-11T17:53:17Z</time>
      </trkpt>
      <trkpt lat="43.19864" lon="6.03846">
        <ele>91</ele>
        <time>2022-08-11T17:53:20Z</time>
      </trkpt>
      <trkpt lat="43.19851" lon="6.03762">
        <ele>91</ele>
        <time>2022-08-11T17:53:32Z</time>
      </trkpt>
      <trkpt lat="43.19838" lon="6.03699">
        <ele>92</ele>
        <time>2022-08-11T17:53:40Z</time>
      </trkpt>
      <trkpt lat="43.19838" lon="6.0365">
        <ele>93</ele>
        <time>2022-08-11T17:53:46Z</time>
      </trkpt>
      <trkpt lat="43.19835" lon="6.03618">
        <ele>94</ele>
        <time>2022-08-11T17:53:51Z</time>
      </trkpt>
      <trkpt lat="43.19827" lon="6.03588">
        <ele>95</ele>
        <time>2022-08-11T17:53:55Z</time>
      </trkpt>
      <trkpt lat="43.19811" lon="6.03566">
        <ele>94</ele>
        <time>2022-08-11T17:53:59Z</time>
      </trkpt>
      <trkpt lat="43.19808" lon="6.03555">
        <ele>94</ele>
        <time>2022-08-11T17:54:00Z</time>
      </trkpt>
      <trkpt lat="43.19801" lon="6.03547">
        <ele>94</ele>
        <time>2022-08-11T17:54:02Z</time>
      </trkpt>
      <trkpt lat="43.19792" lon="6.03545">
        <ele>93</ele>
        <time>2022-08-11T17:54:04Z</time>
      </trkpt>
      <trkpt lat="43.19783" lon="6.03551">
        <ele>93</ele>
        <time>2022-08-11T17:54:05Z</time>
      </trkpt>
      <trkpt lat="43.19764" lon="6.03556">
        <ele>91</ele>
        <time>2022-08-11T17:54:09Z</time>
      </trkpt>
      <trkpt lat="43.1976" lon="6.03557">
        <ele>91</ele>
        <time>2022-08-11T17:54:10Z</time>
      </trkpt>
      <trkpt lat="43.19717" lon="6.03542">
        <ele>89</ele>
        <time>2022-08-11T17:54:17Z</time>
      </trkpt>
      <trkpt lat="43.1969" lon="6.035">
        <ele>88</ele>
        <time>2022-08-11T17:54:25Z</time>
      </trkpt>
      <trkpt lat="43.19677" lon="6.03507">
        <ele>87</ele>
        <time>2022-08-11T17:54:27Z</time>
      </trkpt>
      <trkpt lat="43.19662" lon="6.03516">
        <ele>87</ele>
        <time>2022-08-11T17:54:30Z</time>
      </trkpt>
      <trkpt lat="43.19636" lon="6.03511">
        <ele>86</ele>
        <time>2022-08-11T17:54:35Z</time>
      </trkpt>
      <trkpt lat="43.19633" lon="6.03537">
        <ele>86</ele>
        <time>2022-08-11T17:54:38Z</time>
      </trkpt>
      <trkpt lat="43.19617" lon="6.03556">
        <ele>86</ele>
        <time>2022-08-11T17:54:42Z</time>
      </trkpt>
      <trkpt lat="43.19594" lon="6.03552">
        <ele>85</ele>
        <time>2022-08-11T17:54:46Z</time>
      </trkpt>
      <trkpt lat="43.19585" lon="6.03578">
        <ele>85</ele>
        <time>2022-08-11T17:54:50Z</time>
      </trkpt>
      <trkpt lat="43.19568" lon="6.036">
        <ele>85</ele>
        <time>2022-08-11T17:54:54Z</time>
      </trkpt>
      <trkpt lat="43.19548" lon="6.03615">
        <ele>85</ele>
        <time>2022-08-11T17:54:58Z</time>
      </trkpt>
      <trkpt lat="43.19515" lon="6.03599">
        <ele>85</ele>
        <time>2022-08-11T17:55:04Z</time>
      </trkpt>
      <trkpt lat="43.19507" lon="6.03606">
        <ele>85</ele>
        <time>2022-08-11T17:55:06Z</time>
      </trkpt>
      <trkpt lat="43.19482" lon="6.03656">
        <ele>84</ele>
        <time>2022-08-11T17:55:14Z</time>
      </trkpt>
      <trkpt lat="43.19472" lon="6.0367">
        <ele>84</ele>
        <time>2022-08-11T17:55:16Z</time>
      </trkpt>
      <trkpt lat="43.1945" lon="6.03729">
        <ele>82</ele>
        <time>2022-08-11T17:55:25Z</time>
      </trkpt>
      <trkpt lat="43.19426" lon="6.03753">
        <ele>81</ele>
        <time>2022-08-11T17:55:30Z</time>
      </trkpt>
      <trkpt lat="43.19358" lon="6.03826">
        <ele>80</ele>
        <time>2022-08-11T17:55:46Z</time>
      </trkpt>
      <trkpt lat="43.19349" lon="6.0383">
        <ele>80</ele>
        <time>2022-08-11T17:55:47Z</time>
      </trkpt>
      <trkpt lat="43.1934" lon="6.0383">
        <ele>80</ele>
        <time>2022-08-11T17:55:49Z</time>
      </trkpt>
      <trkpt lat="43.1933" lon="6.03826">
        <ele>80</ele>
        <time>2022-08-11T17:55:51Z</time>
      </trkpt>
      <trkpt lat="43.1932" lon="6.03818">
        <ele>80</ele>
        <time>2022-08-11T17:55:53Z</time>
      </trkpt>
      <trkpt lat="43.19301" lon="6.0379">
        <ele>80</ele>
        <time>2022-08-11T17:55:58Z</time>
      </trkpt>
      <trkpt lat="43.19294" lon="6.03772">
        <ele>81</ele>
        <time>2022-08-11T17:56:00Z</time>
      </trkpt>
      <trkpt lat="43.19291" lon="6.03767">
        <ele>81</ele>
        <time>2022-08-11T17:56:01Z</time>
      </trkpt>
      <trkpt lat="43.19283" lon="6.03761">
        <ele>81</ele>
        <time>2022-08-11T17:56:03Z</time>
      </trkpt>
      <trkpt lat="43.19271" lon="6.03755">
        <ele>81</ele>
        <time>2022-08-11T17:56:05Z</time>
      </trkpt>
      <trkpt lat="43.19265" lon="6.03754">
        <ele>81</ele>
        <time>2022-08-11T17:56:06Z</time>
      </trkpt>
      <trkpt lat="43.19258" lon="6.03751">
        <ele>81</ele>
        <time>2022-08-11T17:56:07Z</time>
      </trkpt>
      <trkpt lat="43.19232" lon="6.03763">
        <ele>81</ele>
        <time>2022-08-11T17:56:12Z</time>
      </trkpt>
      <trkpt lat="43.19216" lon="6.03754">
        <ele>81</ele>
        <time>2022-08-11T17:56:15Z</time>
      </trkpt>
      <trkpt lat="43.19169" lon="6.0372">
        <ele>82</ele>
        <time>2022-08-11T17:56:25Z</time>
      </trkpt>
      <trkpt lat="43.19136" lon="6.03699">
        <ele>83</ele>
        <time>2022-08-11T17:56:31Z</time>
      </trkpt>
      <trkpt lat="43.19102" lon="6.03683">
        <ele>84</ele>
        <time>2022-08-11T17:56:38Z</time>
      </trkpt>
      <trkpt lat="43.19042" lon="6.03669">
        <ele>84</ele>
        <time>2022-08-11T17:56:49Z</time>
      </trkpt>
      <trkpt lat="43.19025" lon="6.03668">
        <ele>84</ele>
        <time>2022-08-11T17:56:52Z</time>
      </trkpt>
      <trkpt lat="43.18984" lon="6.0367">
        <ele>85</ele>
        <time>2022-08-11T17:56:59Z</time>
      </trkpt>
      <trkpt lat="43.18956" lon="6.03674">
        <ele>86</ele>
        <time>2022-08-11T17:57:04Z</time>
      </trkpt>
      <trkpt lat="43.18927" lon="6.03683">
        <ele>88</ele>
        <time>2022-08-11T17:57:09Z</time>
      </trkpt>
      <trkpt lat="43.18878" lon="6.03705">
        <ele>90</ele>
        <time>2022-08-11T17:57:18Z</time>
      </trkpt>
      <trkpt lat="43.18847" lon="6.03727">
        <ele>90</ele>
        <time>2022-08-11T17:57:25Z</time>
      </trkpt>
      <trkpt lat="43.18769" lon="6.03796">
        <ele>92</ele>
        <time>2022-08-11T17:57:41Z</time>
      </trkpt>
      <trkpt lat="43.18758" lon="6.03813">
        <ele>92</ele>
        <time>2022-08-11T17:57:44Z</time>
      </trkpt>
      <trkpt lat="43.18756" lon="6.03819">
        <ele>92</ele>
        <time>2022-08-11T17:57:45Z</time>
      </trkpt>
      <trkpt lat="43.18756" lon="6.0382">
        <ele>92</ele>
        <time>2022-08-11T17:57:45Z</time>
      </trkpt>
      <trkpt lat="43.1875" lon="6.03836">
        <ele>91</ele>
        <time>2022-08-11T17:57:47Z</time>
      </trkpt>
      <trkpt lat="43.18743" lon="6.03848">
        <ele>91</ele>
        <time>2022-08-11T17:57:49Z</time>
      </trkpt>
      <trkpt lat="43.18701" lon="6.03903">
        <ele>91</ele>
        <time>2022-08-11T17:58:00Z</time>
      </trkpt>
      <trkpt lat="43.18448" lon="6.0422">
        <ele>91</ele>
        <time>2022-08-11T17:59:01Z</time>
      </trkpt>
      <trkpt lat="43.18429" lon="6.04245">
        <ele>88</ele>
        <time>2022-08-11T17:59:05Z</time>
      </trkpt>
      <trkpt lat="43.18373" lon="6.04306">
        <ele>86</ele>
        <time>2022-08-11T17:59:18Z</time>
      </trkpt>
      <trkpt lat="43.18329" lon="6.04314">
        <ele>87</ele>
        <time>2022-08-11T17:59:26Z</time>
      </trkpt>
      <trkpt lat="43.1831" lon="6.04321">
        <ele>88</ele>
        <time>2022-08-11T17:59:30Z</time>
      </trkpt>
      <trkpt lat="43.18293" lon="6.04332">
        <ele>87</ele>
        <time>2022-08-11T17:59:33Z</time>
      </trkpt>
      <trkpt lat="43.18256" lon="6.04374">
        <ele>85</ele>
        <time>2022-08-11T17:59:41Z</time>
      </trkpt>
      <trkpt lat="43.18248" lon="6.04385">
        <ele>84</ele>
        <time>2022-08-11T17:59:43Z</time>
      </trkpt>
      <trkpt lat="43.18244" lon="6.04396">
        <ele>83</ele>
        <time>2022-08-11T17:59:45Z</time>
      </trkpt>
      <trkpt lat="43.18242" lon="6.04412">
        <ele>81</ele>
        <time>2022-08-11T17:59:47Z</time>
      </trkpt>
      <trkpt lat="43.1824" lon="6.04414">
        <ele>81</ele>
        <time>2022-08-11T17:59:48Z</time>
      </trkpt>
      <trkpt lat="43.18228" lon="6.04427">
        <ele>81</ele>
        <time>2022-08-11T17:59:50Z</time>
      </trkpt>
      <trkpt lat="43.17904" lon="6.04655">
        <ele>79</ele>
        <time>2022-08-11T18:00:55Z</time>
      </trkpt>
      <trkpt lat="43.17845" lon="6.04696">
        <ele>76</ele>
        <time>2022-08-11T18:01:07Z</time>
      </trkpt>
      <trkpt lat="43.17811" lon="6.04715">
        <ele>75</ele>
        <time>2022-08-11T18:01:13Z</time>
      </trkpt>
      <trkpt lat="43.17794" lon="6.04722">
        <ele>74</ele>
        <time>2022-08-11T18:01:17Z</time>
      </trkpt>
      <trkpt lat="43.17738" lon="6.04732">
        <ele>74</ele>
        <time>2022-08-11T18:01:27Z</time>
      </trkpt>
      <trkpt lat="43.17617" lon="6.04738">
        <ele>74</ele>
        <time>2022-08-11T18:01:48Z</time>
      </trkpt>
      <trkpt lat="43.17585" lon="6.04743">
        <ele>73</ele>
        <time>2022-08-11T18:01:54Z</time>
      </trkpt>
      <trkpt lat="43.17472" lon="6.0475">
        <ele>74</ele>
        <time>2022-08-11T18:02:14Z</time>
      </trkpt>
      <trkpt lat="43.17394" lon="6.04747">
        <ele>74</ele>
        <time>2022-08-11T18:02:28Z</time>
      </trkpt>
      <trkpt lat="43.17363" lon="6.04739">
        <ele>75</ele>
        <time>2022-08-11T18:02:33Z</time>
      </trkpt>
      <trkpt lat="43.1735" lon="6.04733">
        <ele>76</ele>
        <time>2022-08-11T18:02:36Z</time>
      </trkpt>
      <trkpt lat="43.17348" lon="6.04729">
        <ele>76</ele>
        <time>2022-08-11T18:02:37Z</time>
      </trkpt>
      <trkpt lat="43.17342" lon="6.04724">
        <ele>76</ele>
        <time>2022-08-11T18:02:38Z</time>
      </trkpt>
      <trkpt lat="43.17334" lon="6.04726">
        <ele>76</ele>
        <time>2022-08-11T18:02:39Z</time>
      </trkpt>
      <trkpt lat="43.17272" lon="6.04685">
        <ele>77</ele>
        <time>2022-08-11T18:02:51Z</time>
      </trkpt>
      <trkpt lat="43.17006" lon="6.04494">
        <ele>74</ele>
        <time>2022-08-11T18:03:45Z</time>
      </trkpt>
      <trkpt lat="43.16837" lon="6.04345">
        <ele>80</ele>
        <time>2022-08-11T18:04:21Z</time>
      </trkpt>
      <trkpt lat="43.16815" lon="6.04327">
        <ele>81</ele>
        <time>2022-08-11T18:04:25Z</time>
      </trkpt>
      <trkpt lat="43.16793" lon="6.04312">
        <ele>81</ele>
        <time>2022-08-11T18:04:30Z</time>
      </trkpt>
      <trkpt lat="43.16772" lon="6.04305">
        <ele>82</ele>
        <time>2022-08-11T18:04:33Z</time>
      </trkpt>
      <trkpt lat="43.1675" lon="6.04301">
        <ele>82</ele>
        <time>2022-08-11T18:04:37Z</time>
      </trkpt>
      <trkpt lat="43.16702" lon="6.04282">
        <ele>81</ele>
        <time>2022-08-11T18:04:46Z</time>
      </trkpt>
      <trkpt lat="43.1667" lon="6.04279">
        <ele>79</ele>
        <time>2022-08-11T18:04:52Z</time>
      </trkpt>
      <trkpt lat="43.16375" lon="6.04259">
        <ele>78</ele>
        <time>2022-08-11T18:05:45Z</time>
      </trkpt>
      <trkpt lat="43.16344" lon="6.04263">
        <ele>78</ele>
        <time>2022-08-11T18:05:50Z</time>
      </trkpt>
      <trkpt lat="43.1633" lon="6.04271">
        <ele>78</ele>
        <time>2022-08-11T18:05:53Z</time>
      </trkpt>
      <trkpt lat="43.16326" lon="6.0427">
        <ele>78</ele>
        <time>2022-08-11T18:05:53Z</time>
      </trkpt>
      <trkpt lat="43.16315" lon="6.04272">
        <ele>78</ele>
        <time>2022-08-11T18:05:55Z</time>
      </trkpt>
      <trkpt lat="43.16292" lon="6.04256">
        <ele>77</ele>
        <time>2022-08-11T18:06:00Z</time>
      </trkpt>
      <trkpt lat="43.16214" lon="6.0425">
        <ele>77</ele>
        <time>2022-08-11T18:06:14Z</time>
      </trkpt>
      <trkpt lat="43.16187" lon="6.04247">
        <ele>76</ele>
        <time>2022-08-11T18:06:19Z</time>
      </trkpt>
      <trkpt lat="43.16167" lon="6.04242">
        <ele>76</ele>
        <time>2022-08-11T18:06:22Z</time>
      </trkpt>
      <trkpt lat="43.16123" lon="6.04224">
        <ele>75</ele>
        <time>2022-08-11T18:06:31Z</time>
      </trkpt>
      <trkpt lat="43.1603" lon="6.04176">
        <ele>74</ele>
        <time>2022-08-11T18:06:48Z</time>
      </trkpt>
      <trkpt lat="43.16019" lon="6.04164">
        <ele>74</ele>
        <time>2022-08-11T18:06:51Z</time>
      </trkpt>
      <trkpt lat="43.16007" lon="6.04148">
        <ele>73</ele>
        <time>2022-08-11T18:06:54Z</time>
      </trkpt>
      <trkpt lat="43.16003" lon="6.04136">
        <ele>73</ele>
        <time>2022-08-11T18:06:55Z</time>
      </trkpt>
      <trkpt lat="43.15997" lon="6.04128">
        <ele>73</ele>
        <time>2022-08-11T18:06:57Z</time>
      </trkpt>
      <trkpt lat="43.15988" lon="6.04125">
        <ele>73</ele>
        <time>2022-08-11T18:06:59Z</time>
      </trkpt>
      <trkpt lat="43.15982" lon="6.04126">
        <ele>73</ele>
        <time>2022-08-11T18:07:00Z</time>
      </trkpt>
      <trkpt lat="43.15975" lon="6.0413">
        <ele>73</ele>
        <time>2022-08-11T18:07:01Z</time>
      </trkpt>
      <trkpt lat="43.15957" lon="6.04131">
        <ele>72</ele>
        <time>2022-08-11T18:07:04Z</time>
      </trkpt>
      <trkpt lat="43.15933" lon="6.04125">
        <ele>71</ele>
        <time>2022-08-11T18:07:09Z</time>
      </trkpt>
      <trkpt lat="43.15573" lon="6.03936">
        <ele>70</ele>
        <time>2022-08-11T18:08:17Z</time>
      </trkpt>
      <trkpt lat="43.15537" lon="6.03912">
        <ele>69</ele>
        <time>2022-08-11T18:08:24Z</time>
      </trkpt>
      <trkpt lat="43.1551" lon="6.0389">
        <ele>69</ele>
        <time>2022-08-11T18:08:30Z</time>
      </trkpt>
      <trkpt lat="43.15464" lon="6.03848">
        <ele>69</ele>
        <time>2022-08-11T18:08:40Z</time>
      </trkpt>
      <trkpt lat="43.1496" lon="6.03238">
        <ele>54</ele>
        <time>2022-08-11T18:10:39Z</time>
      </trkpt>
      <trkpt lat="43.14831" lon="6.03087">
        <ele>51</ele>
        <time>2022-08-11T18:11:09Z</time>
      </trkpt>
      <trkpt lat="43.14686" lon="6.02908">
        <ele>48</ele>
        <time>2022-08-11T18:11:44Z</time>
      </trkpt>
      <trkpt lat="43.14654" lon="6.02864">
        <ele>48</ele>
        <time>2022-08-11T18:11:52Z</time>
      </trkpt>
      <trkpt lat="43.1464" lon="6.0284">
        <ele>47</ele>
        <time>2022-08-11T18:11:56Z</time>
      </trkpt>
      <trkpt lat="43.14627" lon="6.02813">
        <ele>47</ele>
        <time>2022-08-11T18:12:00Z</time>
      </trkpt>
      <trkpt lat="43.14597" lon="6.02739">
        <ele>48</ele>
        <time>2022-08-11T18:12:11Z</time>
      </trkpt>
      <trkpt lat="43.14441" lon="6.02321">
        <ele>56</ele>
        <time>2022-08-11T18:13:12Z</time>
      </trkpt>
      <trkpt lat="43.14413" lon="6.02239">
        <ele>56</ele>
        <time>2022-08-11T18:13:24Z</time>
      </trkpt>
      <trkpt lat="43.14401" lon="6.02184">
        <ele>57</ele>
        <time>2022-08-11T18:13:32Z</time>
      </trkpt>
      <trkpt lat="43.14394" lon="6.02115">
        <ele>59</ele>
        <time>2022-08-11T18:13:41Z</time>
      </trkpt>
      <trkpt lat="43.14387" lon="6.01972">
        <ele>56</ele>
        <time>2022-08-11T18:13:59Z</time>
      </trkpt>
      <trkpt lat="43.14388" lon="6.01938">
        <ele>56</ele>
        <time>2022-08-11T18:14:04Z</time>
      </trkpt>
      <trkpt lat="43.14385" lon="6.01791">
        <ele>54</ele>
        <time>2022-08-11T18:14:23Z</time>
      </trkpt>
      <trkpt lat="43.14375" lon="6.01579">
        <ele>55</ele>
        <time>2022-08-11T18:14:50Z</time>
      </trkpt>
      <trkpt lat="43.14363" lon="6.01392">
        <ele>57</ele>
        <time>2022-08-11T18:15:15Z</time>
      </trkpt>
      <trkpt lat="43.14357" lon="6.01234">
        <ele>61</ele>
        <time>2022-08-11T18:15:35Z</time>
      </trkpt>
      <trkpt lat="43.14351" lon="6.01143">
        <ele>65</ele>
        <time>2022-08-11T18:15:47Z</time>
      </trkpt>
      <trkpt lat="43.14338" lon="6.01064">
        <ele>66</ele>
        <time>2022-08-11T18:15:58Z</time>
      </trkpt>
      <trkpt lat="43.1432" lon="6.00978">
        <ele>69</ele>
        <time>2022-08-11T18:16:09Z</time>
      </trkpt>
      <trkpt lat="43.14269" lon="6.00776">
        <ele>71</ele>
        <time>2022-08-11T18:16:37Z</time>
      </trkpt>
      <trkpt lat="43.14145" lon="6.00318">
        <ele>65</ele>
        <time>2022-08-11T18:17:40Z</time>
      </trkpt>
      <trkpt lat="43.14141" lon="6.00279">
        <ele>65</ele>
        <time>2022-08-11T18:17:46Z</time>
      </trkpt>
      <trkpt lat="43.14142" lon="6.00268">
        <ele>65</ele>
        <time>2022-08-11T18:17:47Z</time>
      </trkpt>
      <trkpt lat="43.1415" lon="6.00249">
        <ele>66</ele>
        <time>2022-08-11T18:17:50Z</time>
      </trkpt>
      <trkpt lat="43.14169" lon="6.00222">
        <ele>67</ele>
        <time>2022-08-11T18:17:55Z</time>
      </trkpt>
      <trkpt lat="43.14179" lon="6.00201">
        <ele>67</ele>
        <time>2022-08-11T18:17:58Z</time>
      </trkpt>
      <trkpt lat="43.14184" lon="6.00178">
        <ele>67</ele>
        <time>2022-08-11T18:18:01Z</time>
      </trkpt>
      <trkpt lat="43.14187" lon="6.00129">
        <ele>66</ele>
        <time>2022-08-11T18:18:07Z</time>
      </trkpt>
      <trkpt lat="43.1419" lon="6.00109">
        <ele>66</ele>
        <time>2022-08-11T18:18:10Z</time>
      </trkpt>
      <trkpt lat="43.14194" lon="6.00102">
        <ele>66</ele>
        <time>2022-08-11T18:18:11Z</time>
      </trkpt>
      <trkpt lat="43.14197" lon="6.00093">
        <ele>66</ele>
        <time>2022-08-11T18:18:13Z</time>
      </trkpt>
      <trkpt lat="43.14195" lon="6.00076">
        <ele>66</ele>
        <time>2022-08-11T18:18:15Z</time>
      </trkpt>
      <trkpt lat="43.14186" lon="6.00064">
        <ele>65</ele>
        <time>2022-08-11T18:18:17Z</time>
      </trkpt>
      <trkpt lat="43.14177" lon="6.0006">
        <ele>65</ele>
        <time>2022-08-11T18:18:19Z</time>
      </trkpt>
      <trkpt lat="43.14168" lon="6.0006">
        <ele>64</ele>
        <time>2022-08-11T18:18:20Z</time>
      </trkpt>
      <trkpt lat="43.14159" lon="6.00065">
        <ele>64</ele>
        <time>2022-08-11T18:18:22Z</time>
      </trkpt>
      <trkpt lat="43.14129" lon="6.00065">
        <ele>63</ele>
        <time>2022-08-11T18:18:27Z</time>
      </trkpt>
      <trkpt lat="43.14109" lon="6.00064">
        <ele>62</ele>
        <time>2022-08-11T18:18:31Z</time>
      </trkpt>
      <trkpt lat="43.141" lon="6.00061">
        <ele>62</ele>
        <time>2022-08-11T18:18:33Z</time>
      </trkpt>
      <trkpt lat="43.14087" lon="6.00051">
        <ele>61</ele>
        <time>2022-08-11T18:18:35Z</time>
      </trkpt>
      <trkpt lat="43.14078" lon="6.00037">
        <ele>61</ele>
        <time>2022-08-11T18:18:38Z</time>
      </trkpt>
      <trkpt lat="43.14076" lon="6.00024">
        <ele>61</ele>
        <time>2022-08-11T18:18:39Z</time>
      </trkpt>
      <trkpt lat="43.14069" lon="5.99994">
        <ele>61</ele>
        <time>2022-08-11T18:18:43Z</time>
      </trkpt>
      <trkpt lat="43.14051" lon="5.9993">
        <ele>62</ele>
        <time>2022-08-11T18:18:52Z</time>
      </trkpt>
      <trkpt lat="43.14018" lon="5.99843">
        <ele>61</ele>
        <time>2022-08-11T18:19:05Z</time>
      </trkpt>
      <trkpt lat="43.14002" lon="5.99793">
        <ele>61</ele>
        <time>2022-08-11T18:19:12Z</time>
      </trkpt>
      <trkpt lat="43.13946" lon="5.99635">
        <ele>61</ele>
        <time>2022-08-11T18:19:35Z</time>
      </trkpt>
      <trkpt lat="43.13944" lon="5.99623">
        <ele>62</ele>
        <time>2022-08-11T18:19:37Z</time>
      </trkpt>
      <trkpt lat="43.13943" lon="5.99604">
        <ele>62</ele>
        <time>2022-08-11T18:19:39Z</time>
      </trkpt>
      <trkpt lat="43.13944" lon="5.99597">
        <ele>63</ele>
        <time>2022-08-11T18:19:40Z</time>
      </trkpt>
      <trkpt lat="43.13927" lon="5.99578">
        <ele>63</ele>
        <time>2022-08-11T18:19:44Z</time>
      </trkpt>
      <trkpt lat="43.13919" lon="5.99561">
        <ele>63</ele>
        <time>2022-08-11T18:19:47Z</time>
      </trkpt>
      <trkpt lat="43.13824" lon="5.99284">
        <ele>64</ele>
        <time>2022-08-11T18:20:26Z</time>
      </trkpt>
      <trkpt lat="43.13821" lon="5.99259">
        <ele>63</ele>
        <time>2022-08-11T18:20:30Z</time>
      </trkpt>
      <trkpt lat="43.13822" lon="5.99248">
        <ele>63</ele>
        <time>2022-08-11T18:20:31Z</time>
      </trkpt>
      <trkpt lat="43.13818" lon="5.99237">
        <ele>63</ele>
        <time>2022-08-11T18:20:33Z</time>
      </trkpt>
      <trkpt lat="43.13818" lon="5.99144">
        <ele>64</ele>
        <time>2022-08-11T18:20:45Z</time>
      </trkpt>
      <trkpt lat="43.13823" lon="5.98953">
        <ele>65</ele>
        <time>2022-08-11T18:21:09Z</time>
      </trkpt>
      <trkpt lat="43.1383" lon="5.9877">
        <ele>64</ele>
        <time>2022-08-11T18:21:33Z</time>
      </trkpt>
      <trkpt lat="43.13833" lon="5.98766">
        <ele>64</ele>
        <time>2022-08-11T18:21:34Z</time>
      </trkpt>
      <trkpt lat="43.13836" lon="5.98757">
        <ele>64</ele>
        <time>2022-08-11T18:21:35Z</time>
      </trkpt>
      <trkpt lat="43.13835" lon="5.98752">
        <ele>64</ele>
        <time>2022-08-11T18:21:36Z</time>
      </trkpt>
      <trkpt lat="43.1383" lon="5.98745">
        <ele>64</ele>
        <time>2022-08-11T18:21:37Z</time>
      </trkpt>
      <trkpt lat="43.1383" lon="5.98666">
        <ele>65</ele>
        <time>2022-08-11T18:21:48Z</time>
      </trkpt>
      <trkpt lat="43.13827" lon="5.986">
        <ele>67</ele>
        <time>2022-08-11T18:21:56Z</time>
      </trkpt>
      <trkpt lat="43.13824" lon="5.98573">
        <ele>68</ele>
        <time>2022-08-11T18:22:00Z</time>
      </trkpt>
      <trkpt lat="43.13821" lon="5.98563">
        <ele>68</ele>
        <time>2022-08-11T18:22:01Z</time>
      </trkpt>
      <trkpt lat="43.13824" lon="5.9855">
        <ele>68</ele>
        <time>2022-08-11T18:22:03Z</time>
      </trkpt>
      <trkpt lat="43.13823" lon="5.98514">
        <ele>68</ele>
        <time>2022-08-11T18:22:07Z</time>
      </trkpt>
      <trkpt lat="43.13813" lon="5.9844">
        <ele>69</ele>
        <time>2022-08-11T18:22:17Z</time>
      </trkpt>
      <trkpt lat="43.13798" lon="5.98373">
        <ele>70</ele>
        <time>2022-08-11T18:22:26Z</time>
      </trkpt>
      <trkpt lat="43.13799" lon="5.98319">
        <ele>70</ele>
        <time>2022-08-11T18:22:33Z</time>
      </trkpt>
      <trkpt lat="43.13789" lon="5.98289">
        <ele>69</ele>
        <time>2022-08-11T18:22:38Z</time>
      </trkpt>
      <trkpt lat="43.13781" lon="5.98271">
        <ele>68</ele>
        <time>2022-08-11T18:22:40Z</time>
      </trkpt>
      <trkpt lat="43.13741" lon="5.9826">
        <ele>67</ele>
        <time>2022-08-11T18:22:48Z</time>
      </trkpt>
      <trkpt lat="43.13737" lon="5.98252">
        <ele>67</ele>
        <time>2022-08-11T18:22:49Z</time>
      </trkpt>
      <trkpt lat="43.13742" lon="5.98223">
        <ele>66</ele>
        <time>2022-08-11T18:22:53Z</time>
      </trkpt>
      <trkpt lat="43.13764" lon="5.98141">
        <ele>64</ele>
        <time>2022-08-11T18:23:04Z</time>
      </trkpt>
      <trkpt lat="43.13751" lon="5.9813">
        <ele>63</ele>
        <time>2022-08-11T18:23:07Z</time>
      </trkpt>
      <trkpt lat="43.1373" lon="5.98107">
        <ele>62</ele>
        <time>2022-08-11T18:23:12Z</time>
      </trkpt>
      <trkpt lat="43.13699" lon="5.98061">
        <ele>61</ele>
        <time>2022-08-11T18:23:20Z</time>
      </trkpt>
      <trkpt lat="43.13695" lon="5.98057">
        <ele>61</ele>
        <time>2022-08-11T18:23:21Z</time>
      </trkpt>
      <trkpt lat="43.13694" lon="5.98051">
        <ele>61</ele>
        <time>2022-08-11T18:23:21Z</time>
      </trkpt>
      <trkpt lat="43.1358" lon="5.97847">
        <ele>63</ele>
        <time>2022-08-11T18:23:55Z</time>
      </trkpt>
      <trkpt lat="43.13559" lon="5.9781">
        <ele>63</ele>
        <time>2022-08-11T18:24:01Z</time>
      </trkpt>
      <trkpt lat="43.13555" lon="5.97792">
        <ele>63</ele>
        <time>2022-08-11T18:24:03Z</time>
      </trkpt>
      <trkpt lat="43.13556" lon="5.97779">
        <ele>64</ele>
        <time>2022-08-11T18:24:05Z</time>
      </trkpt>
      <trkpt lat="43.1356" lon="5.97768">
        <ele>65</ele>
        <time>2022-08-11T18:24:07Z</time>
      </trkpt>
      <trkpt lat="43.13559" lon="5.97755">
        <ele>65</ele>
        <time>2022-08-11T18:24:08Z</time>
      </trkpt>
      <trkpt lat="43.13553" lon="5.97745">
        <ele>65</ele>
        <time>2022-08-11T18:24:10Z</time>
      </trkpt>
      <trkpt lat="43.13545" lon="5.97742">
        <ele>64</ele>
        <time>2022-08-11T18:24:11Z</time>
      </trkpt>
      <trkpt lat="43.13534" lon="5.97748">
        <ele>64</ele>
        <time>2022-08-11T18:24:14Z</time>
      </trkpt>
      <trkpt lat="43.13501" lon="5.97753">
        <ele>61</ele>
        <time>2022-08-11T18:24:19Z</time>
      </trkpt>
      <trkpt lat="43.13398" lon="5.97705">
        <ele>57</ele>
        <time>2022-08-11T18:24:39Z</time>
      </trkpt>
      <trkpt lat="43.13275" lon="5.97644">
        <ele>52</ele>
        <time>2022-08-11T18:25:02Z</time>
      </trkpt>
      <trkpt lat="43.13264" lon="5.97635">
        <ele>51</ele>
        <time>2022-08-11T18:25:04Z</time>
      </trkpt>
      <trkpt lat="43.13249" lon="5.97618">
        <ele>51</ele>
        <time>2022-08-11T18:25:08Z</time>
      </trkpt>
      <trkpt lat="43.13236" lon="5.97601">
        <ele>50</ele>
        <time>2022-08-11T18:25:11Z</time>
      </trkpt>
      <trkpt lat="43.13213" lon="5.97554">
        <ele>50</ele>
        <time>2022-08-11T18:25:18Z</time>
      </trkpt>
      <trkpt lat="43.13194" lon="5.97505">
        <ele>49</ele>
        <time>2022-08-11T18:25:26Z</time>
      </trkpt>
      <trkpt lat="43.13156" lon="5.9741">
        <ele>45</ele>
        <time>2022-08-11T18:25:40Z</time>
      </trkpt>
      <trkpt lat="43.13139" lon="5.97373">
        <ele>45</ele>
        <time>2022-08-11T18:25:45Z</time>
      </trkpt>
      <trkpt lat="43.13111" lon="5.973">
        <ele>46</ele>
        <time>2022-08-11T18:25:56Z</time>
      </trkpt>
      <trkpt lat="43.12977" lon="5.96968">
        <ele>46</ele>
        <time>2022-08-11T18:26:45Z</time>
      </trkpt>
      <trkpt lat="43.12914" lon="5.96779">
        <ele>40</ele>
        <time>2022-08-11T18:27:12Z</time>
      </trkpt>
      <trkpt lat="43.12797" lon="5.96416">
        <ele>35</ele>
        <time>2022-08-11T18:28:04Z</time>
      </trkpt>
      <trkpt lat="43.12759" lon="5.96309">
        <ele>34</ele>
        <time>2022-08-11T18:28:19Z</time>
      </trkpt>
      <trkpt lat="43.12708" lon="5.96185">
        <ele>29</ele>
        <time>2022-08-11T18:28:38Z</time>
      </trkpt>
      <trkpt lat="43.12676" lon="5.96103">
        <ele>28</ele>
        <time>2022-08-11T18:28:50Z</time>
      </trkpt>
      <trkpt lat="43.12427" lon="5.95492">
        <ele>20</ele>
        <time>2022-08-11T18:30:21Z</time>
      </trkpt>
    </trkseg>
  </trk>
</gpx>